<?xml version="1.0" encoding="UTF-8" standalone="no" ?>
<gpx xmlns="http://www.topografix.com/GPX/1/1" xmlns:xsi="http://www.w3.org/2001/XMLSchema-instance" xsi:schemaLocation="http://www.topografix.com/GPX/1/1 http://www.topografix.com/GPX/1/1/gpx.xsd" version="1.1" creator="VisuGPX - https://www.visugpx.com">
  <metadata>
    <name>roc des terrils</name>
    <desc><![CDATA[Denivelé positif cumulé : 1110 m
Denivelé négatif cumulé : 1121 m
Altitude maxi : 89 m
Altitude mini : -27 m
Altitude moyenne : 33 m
]]></desc>
  </metadata>
  <trk>
    <name><![CDATA[26_06_2011rocDesTerrils on GPSies.com]]></name>
    <trkseg>
      <trkpt lat="50.3865" lon="3.42456">
        <ele>50.125976</ele>
        <time>2011-06-26T05:46:24Z</time>
      </trkpt>
      <trkpt lat="50.38667" lon="3.42437">
        <ele>48.68396</ele>
        <time>2011-06-26T05:46:29Z</time>
      </trkpt>
      <trkpt lat="50.3868" lon="3.42425">
        <ele>48.203369</ele>
        <time>2011-06-26T05:46:32Z</time>
      </trkpt>
      <trkpt lat="50.3871" lon="3.42391">
        <ele>47.241821</ele>
        <time>2011-06-26T05:46:40Z</time>
      </trkpt>
      <trkpt lat="50.38725" lon="3.42368">
        <ele>47.241821</ele>
        <time>2011-06-26T05:46:45Z</time>
      </trkpt>
      <trkpt lat="50.38732" lon="3.42336">
        <ele>45.799926</ele>
        <time>2011-06-26T05:46:50Z</time>
      </trkpt>
      <trkpt lat="50.3873" lon="3.42306">
        <ele>45.799926</ele>
        <time>2011-06-26T05:46:55Z</time>
      </trkpt>
      <trkpt lat="50.38727" lon="3.42267">
        <ele>45.799926</ele>
        <time>2011-06-26T05:47:02Z</time>
      </trkpt>
      <trkpt lat="50.38731" lon="3.42225">
        <ele>47.722534</ele>
        <time>2011-06-26T05:47:09Z</time>
      </trkpt>
      <trkpt lat="50.38727" lon="3.422">
        <ele>50.606567</ele>
        <time>2011-06-26T05:47:14Z</time>
      </trkpt>
      <trkpt lat="50.38715" lon="3.42186">
        <ele>52.529174</ele>
        <time>2011-06-26T05:47:18Z</time>
      </trkpt>
      <trkpt lat="50.38699" lon="3.42187">
        <ele>47.722534</ele>
        <time>2011-06-26T05:47:22Z</time>
      </trkpt>
      <trkpt lat="50.3869" lon="3.4219">
        <ele>45.799926</ele>
        <time>2011-06-26T05:47:24Z</time>
      </trkpt>
      <trkpt lat="50.38668" lon="3.42209">
        <ele>43.396606</ele>
        <time>2011-06-26T05:47:29Z</time>
      </trkpt>
      <trkpt lat="50.38664" lon="3.42213">
        <ele>41.473999</ele>
        <time>2011-06-26T05:47:30Z</time>
      </trkpt>
      <trkpt lat="50.38658" lon="3.42236">
        <ele>37.148071</ele>
        <time>2011-06-26T05:47:34Z</time>
      </trkpt>
      <trkpt lat="50.38667" lon="3.42278">
        <ele>32.341552</ele>
        <time>2011-06-26T05:47:40Z</time>
      </trkpt>
      <trkpt lat="50.3868" lon="3.42296">
        <ele>33.783447</ele>
        <time>2011-06-26T05:47:44Z</time>
      </trkpt>
      <trkpt lat="50.38695" lon="3.423">
        <ele>34.26416</ele>
        <time>2011-06-26T05:47:48Z</time>
      </trkpt>
      <trkpt lat="50.38701" lon="3.42302">
        <ele>33.783447</ele>
        <time>2011-06-26T05:47:50Z</time>
      </trkpt>
      <trkpt lat="50.38712" lon="3.42312">
        <ele>33.783447</ele>
        <time>2011-06-26T05:47:54Z</time>
      </trkpt>
      <trkpt lat="50.38715" lon="3.4233">
        <ele>32.341552</ele>
        <time>2011-06-26T05:47:58Z</time>
      </trkpt>
      <trkpt lat="50.38707" lon="3.42346">
        <ele>32.822265</ele>
        <time>2011-06-26T05:48:02Z</time>
      </trkpt>
      <trkpt lat="50.38699" lon="3.42355">
        <ele>34.26416</ele>
        <time>2011-06-26T05:48:05Z</time>
      </trkpt>
      <trkpt lat="50.38694" lon="3.42372">
        <ele>34.26416</ele>
        <time>2011-06-26T05:48:10Z</time>
      </trkpt>
      <trkpt lat="50.38684" lon="3.42378">
        <ele>35.225463</ele>
        <time>2011-06-26T05:48:14Z</time>
      </trkpt>
      <trkpt lat="50.38682" lon="3.42367">
        <ele>36.186767</ele>
        <time>2011-06-26T05:48:17Z</time>
      </trkpt>
      <trkpt lat="50.38676" lon="3.42367">
        <ele>38.109375</ele>
        <time>2011-06-26T05:48:20Z</time>
      </trkpt>
      <trkpt lat="50.3867" lon="3.42385">
        <ele>39.070678</ele>
        <time>2011-06-26T05:48:24Z</time>
      </trkpt>
      <trkpt lat="50.38664" lon="3.42399">
        <ele>40.993408</ele>
        <time>2011-06-26T05:48:28Z</time>
      </trkpt>
      <trkpt lat="50.38657" lon="3.42397">
        <ele>41.473999</ele>
        <time>2011-06-26T05:48:31Z</time>
      </trkpt>
      <trkpt lat="50.3866" lon="3.42382">
        <ele>41.954711</ele>
        <time>2011-06-26T05:48:35Z</time>
      </trkpt>
      <trkpt lat="50.38651" lon="3.42376">
        <ele>44.358032</ele>
        <time>2011-06-26T05:48:39Z</time>
      </trkpt>
      <trkpt lat="50.38644" lon="3.42388">
        <ele>44.358032</ele>
        <time>2011-06-26T05:48:42Z</time>
      </trkpt>
      <trkpt lat="50.38636" lon="3.42404">
        <ele>44.358032</ele>
        <time>2011-06-26T05:48:46Z</time>
      </trkpt>
      <trkpt lat="50.38623" lon="3.42401">
        <ele>44.358032</ele>
        <time>2011-06-26T05:48:50Z</time>
      </trkpt>
      <trkpt lat="50.38617" lon="3.42411">
        <ele>43.877319</ele>
        <time>2011-06-26T05:48:53Z</time>
      </trkpt>
      <trkpt lat="50.38615" lon="3.42413">
        <ele>43.396606</ele>
        <time>2011-06-26T05:48:54Z</time>
      </trkpt>
      <trkpt lat="50.38592" lon="3.42433">
        <ele>42.435424</ele>
        <time>2011-06-26T05:49:02Z</time>
      </trkpt>
      <trkpt lat="50.38579" lon="3.42421">
        <ele>42.435424</ele>
        <time>2011-06-26T05:49:07Z</time>
      </trkpt>
      <trkpt lat="50.38566" lon="3.42396">
        <ele>41.473999</ele>
        <time>2011-06-26T05:49:13Z</time>
      </trkpt>
      <trkpt lat="50.38552" lon="3.42371">
        <ele>40.512817</ele>
        <time>2011-06-26T05:49:19Z</time>
      </trkpt>
      <trkpt lat="50.38537" lon="3.4237">
        <ele>41.473999</ele>
        <time>2011-06-26T05:49:23Z</time>
      </trkpt>
      <trkpt lat="50.38511" lon="3.42389">
        <ele>42.435424</ele>
        <time>2011-06-26T05:49:30Z</time>
      </trkpt>
      <trkpt lat="50.38486" lon="3.42403">
        <ele>42.916015</ele>
        <time>2011-06-26T05:49:37Z</time>
      </trkpt>
      <trkpt lat="50.38473" lon="3.42404">
        <ele>42.916015</ele>
        <time>2011-06-26T05:49:41Z</time>
      </trkpt>
      <trkpt lat="50.38451" lon="3.42425">
        <ele>42.916015</ele>
        <time>2011-06-26T05:49:48Z</time>
      </trkpt>
      <trkpt lat="50.38422" lon="3.42456">
        <ele>43.877319</ele>
        <time>2011-06-26T05:49:57Z</time>
      </trkpt>
      <trkpt lat="50.38402" lon="3.42486">
        <ele>52.529174</ele>
        <time>2011-06-26T05:50:04Z</time>
      </trkpt>
      <trkpt lat="50.38388" lon="3.42502">
        <ele>52.048584</ele>
        <time>2011-06-26T05:50:09Z</time>
      </trkpt>
      <trkpt lat="50.38376" lon="3.42509">
        <ele>49.16455</ele>
        <time>2011-06-26T05:50:13Z</time>
      </trkpt>
      <trkpt lat="50.38363" lon="3.42517">
        <ele>43.396606</ele>
        <time>2011-06-26T05:50:17Z</time>
      </trkpt>
      <trkpt lat="50.38346" lon="3.42506">
        <ele>42.916015</ele>
        <time>2011-06-26T05:50:22Z</time>
      </trkpt>
      <trkpt lat="50.38311" lon="3.42505">
        <ele>41.473999</ele>
        <time>2011-06-26T05:50:30Z</time>
      </trkpt>
      <trkpt lat="50.38285" lon="3.42505">
        <ele>40.512817</ele>
        <time>2011-06-26T05:50:36Z</time>
      </trkpt>
      <trkpt lat="50.38278" lon="3.42498">
        <ele>40.993408</ele>
        <time>2011-06-26T05:50:40Z</time>
      </trkpt>
      <trkpt lat="50.38281" lon="3.42488">
        <ele>40.993408</ele>
        <time>2011-06-26T05:50:43Z</time>
      </trkpt>
      <trkpt lat="50.38299" lon="3.4247">
        <ele>41.954711</ele>
        <time>2011-06-26T05:50:50Z</time>
      </trkpt>
      <trkpt lat="50.38321" lon="3.42449">
        <ele>44.838623</ele>
        <time>2011-06-26T05:50:57Z</time>
      </trkpt>
      <trkpt lat="50.38338" lon="3.42427">
        <ele>46.76123</ele>
        <time>2011-06-26T05:51:03Z</time>
      </trkpt>
      <trkpt lat="50.3835" lon="3.42413">
        <ele>46.76123</ele>
        <time>2011-06-26T05:51:07Z</time>
      </trkpt>
      <trkpt lat="50.38366" lon="3.42414">
        <ele>44.838623</ele>
        <time>2011-06-26T05:51:11Z</time>
      </trkpt>
      <trkpt lat="50.38387" lon="3.42425">
        <ele>43.396606</ele>
        <time>2011-06-26T05:51:16Z</time>
      </trkpt>
      <trkpt lat="50.38398" lon="3.4243">
        <ele>43.396606</ele>
        <time>2011-06-26T05:51:19Z</time>
      </trkpt>
      <trkpt lat="50.38407" lon="3.42433">
        <ele>43.877319</ele>
        <time>2011-06-26T05:51:21Z</time>
      </trkpt>
      <trkpt lat="50.38424" lon="3.42432">
        <ele>46.280639</ele>
        <time>2011-06-26T05:51:25Z</time>
      </trkpt>
      <trkpt lat="50.38461" lon="3.42399">
        <ele>48.68396</ele>
        <time>2011-06-26T05:51:35Z</time>
      </trkpt>
      <trkpt lat="50.38465" lon="3.42395">
        <ele>48.68396</ele>
        <time>2011-06-26T05:51:36Z</time>
      </trkpt>
      <trkpt lat="50.38481" lon="3.42394">
        <ele>45.799926</ele>
        <time>2011-06-26T05:51:40Z</time>
      </trkpt>
      <trkpt lat="50.38493" lon="3.42387">
        <ele>46.280639</ele>
        <time>2011-06-26T05:51:43Z</time>
      </trkpt>
      <trkpt lat="50.38527" lon="3.42353">
        <ele>47.241821</ele>
        <time>2011-06-26T05:51:52Z</time>
      </trkpt>
      <trkpt lat="50.38539" lon="3.42351">
        <ele>47.722534</ele>
        <time>2011-06-26T05:51:56Z</time>
      </trkpt>
      <trkpt lat="50.38549" lon="3.42356">
        <ele>46.280639</ele>
        <time>2011-06-26T05:52:00Z</time>
      </trkpt>
      <trkpt lat="50.38552" lon="3.42353">
        <ele>46.76123</ele>
        <time>2011-06-26T05:52:01Z</time>
      </trkpt>
      <trkpt lat="50.38557" lon="3.42347">
        <ele>46.76123</ele>
        <time>2011-06-26T05:52:03Z</time>
      </trkpt>
      <trkpt lat="50.38557" lon="3.4232">
        <ele>46.76123</ele>
        <time>2011-06-26T05:52:08Z</time>
      </trkpt>
      <trkpt lat="50.38558" lon="3.42298">
        <ele>44.838623</ele>
        <time>2011-06-26T05:52:12Z</time>
      </trkpt>
      <trkpt lat="50.3857" lon="3.42298">
        <ele>41.473999</ele>
        <time>2011-06-26T05:52:15Z</time>
      </trkpt>
      <trkpt lat="50.38588" lon="3.42311">
        <ele>38.590087</ele>
        <time>2011-06-26T05:52:19Z</time>
      </trkpt>
      <trkpt lat="50.38602" lon="3.42313">
        <ele>39.070678</ele>
        <time>2011-06-26T05:52:21Z</time>
      </trkpt>
      <trkpt lat="50.38598" lon="3.42287">
        <ele>37.148071</ele>
        <time>2011-06-26T05:52:26Z</time>
      </trkpt>
      <trkpt lat="50.38596" lon="3.42268">
        <ele>35.225463</ele>
        <time>2011-06-26T05:52:30Z</time>
      </trkpt>
      <trkpt lat="50.38604" lon="3.42266">
        <ele>36.186767</ele>
        <time>2011-06-26T05:52:34Z</time>
      </trkpt>
      <trkpt lat="50.38607" lon="3.42269">
        <ele>36.186767</ele>
        <time>2011-06-26T05:52:35Z</time>
      </trkpt>
      <trkpt lat="50.38615" lon="3.42275">
        <ele>37.148071</ele>
        <time>2011-06-26T05:52:37Z</time>
      </trkpt>
      <trkpt lat="50.38624" lon="3.42268">
        <ele>38.590087</ele>
        <time>2011-06-26T05:52:41Z</time>
      </trkpt>
      <trkpt lat="50.38619" lon="3.42252">
        <ele>38.590087</ele>
        <time>2011-06-26T05:52:45Z</time>
      </trkpt>
      <trkpt lat="50.38617" lon="3.42246">
        <ele>38.590087</ele>
        <time>2011-06-26T05:52:46Z</time>
      </trkpt>
      <trkpt lat="50.38615" lon="3.42237">
        <ele>38.590087</ele>
        <time>2011-06-26T05:52:48Z</time>
      </trkpt>
      <trkpt lat="50.38622" lon="3.42234">
        <ele>37.628662</ele>
        <time>2011-06-26T05:52:52Z</time>
      </trkpt>
      <trkpt lat="50.38637" lon="3.42247">
        <ele>37.628662</ele>
        <time>2011-06-26T05:52:56Z</time>
      </trkpt>
      <trkpt lat="50.38653" lon="3.42255">
        <ele>40.032104</ele>
        <time>2011-06-26T05:52:59Z</time>
      </trkpt>
      <trkpt lat="50.38652" lon="3.42245">
        <ele>41.473999</ele>
        <time>2011-06-26T05:53:02Z</time>
      </trkpt>
      <trkpt lat="50.38646" lon="3.42241">
        <ele>41.954711</ele>
        <time>2011-06-26T05:53:04Z</time>
      </trkpt>
      <trkpt lat="50.38638" lon="3.42234">
        <ele>41.954711</ele>
        <time>2011-06-26T05:53:06Z</time>
      </trkpt>
      <trkpt lat="50.38634" lon="3.42221">
        <ele>41.473999</ele>
        <time>2011-06-26T05:53:10Z</time>
      </trkpt>
      <trkpt lat="50.38641" lon="3.42213">
        <ele>41.954711</ele>
        <time>2011-06-26T05:53:14Z</time>
      </trkpt>
      <trkpt lat="50.38641" lon="3.42211">
        <ele>42.435424</ele>
        <time>2011-06-26T05:53:18Z</time>
      </trkpt>
      <trkpt lat="50.38643" lon="3.42191">
        <ele>45.319213</ele>
        <time>2011-06-26T05:53:34Z</time>
      </trkpt>
      <trkpt lat="50.38643" lon="3.42183">
        <ele>46.280639</ele>
        <time>2011-06-26T05:53:35Z</time>
      </trkpt>
      <trkpt lat="50.38654" lon="3.42163">
        <ele>47.241821</ele>
        <time>2011-06-26T05:53:40Z</time>
      </trkpt>
      <trkpt lat="50.38667" lon="3.42158">
        <ele>46.280639</ele>
        <time>2011-06-26T05:53:44Z</time>
      </trkpt>
      <trkpt lat="50.38666" lon="3.42144">
        <ele>45.799926</ele>
        <time>2011-06-26T05:53:47Z</time>
      </trkpt>
      <trkpt lat="50.38662" lon="3.42126">
        <ele>43.877319</ele>
        <time>2011-06-26T05:53:50Z</time>
      </trkpt>
      <trkpt lat="50.38661" lon="3.42119">
        <ele>44.838623</ele>
        <time>2011-06-26T05:53:53Z</time>
      </trkpt>
      <trkpt lat="50.3865" lon="3.42119">
        <ele>45.799926</ele>
        <time>2011-06-26T05:53:58Z</time>
      </trkpt>
      <trkpt lat="50.38645" lon="3.42113">
        <ele>45.799926</ele>
        <time>2011-06-26T05:54:01Z</time>
      </trkpt>
      <trkpt lat="50.38634" lon="3.42101">
        <ele>43.877319</ele>
        <time>2011-06-26T05:54:05Z</time>
      </trkpt>
      <trkpt lat="50.3863" lon="3.42096">
        <ele>42.916015</ele>
        <time>2011-06-26T05:54:06Z</time>
      </trkpt>
      <trkpt lat="50.38622" lon="3.42068">
        <ele>40.993408</ele>
        <time>2011-06-26T05:54:11Z</time>
      </trkpt>
      <trkpt lat="50.38605" lon="3.42044">
        <ele>40.032104</ele>
        <time>2011-06-26T05:54:16Z</time>
      </trkpt>
      <trkpt lat="50.38598" lon="3.4205">
        <ele>40.512817</ele>
        <time>2011-06-26T05:54:18Z</time>
      </trkpt>
      <trkpt lat="50.38565" lon="3.42089">
        <ele>39.551269</ele>
        <time>2011-06-26T05:54:28Z</time>
      </trkpt>
      <trkpt lat="50.38562" lon="3.42094">
        <ele>39.070678</ele>
        <time>2011-06-26T05:54:29Z</time>
      </trkpt>
      <trkpt lat="50.38551" lon="3.42124">
        <ele>38.590087</ele>
        <time>2011-06-26T05:54:34Z</time>
      </trkpt>
      <trkpt lat="50.3855" lon="3.42138">
        <ele>38.109375</ele>
        <time>2011-06-26T05:54:36Z</time>
      </trkpt>
      <trkpt lat="50.38549" lon="3.42174">
        <ele>36.186767</ele>
        <time>2011-06-26T05:54:41Z</time>
      </trkpt>
      <trkpt lat="50.38551" lon="3.42202">
        <ele>37.628662</ele>
        <time>2011-06-26T05:54:46Z</time>
      </trkpt>
      <trkpt lat="50.3855" lon="3.42206">
        <ele>38.109375</ele>
        <time>2011-06-26T05:54:47Z</time>
      </trkpt>
      <trkpt lat="50.38541" lon="3.42228">
        <ele>40.512817</ele>
        <time>2011-06-26T05:54:52Z</time>
      </trkpt>
      <trkpt lat="50.38529" lon="3.42247">
        <ele>40.993408</ele>
        <time>2011-06-26T05:54:56Z</time>
      </trkpt>
      <trkpt lat="50.38513" lon="3.42262">
        <ele>41.473999</ele>
        <time>2011-06-26T05:55:00Z</time>
      </trkpt>
      <trkpt lat="50.38505" lon="3.42267">
        <ele>41.954711</ele>
        <time>2011-06-26T05:55:02Z</time>
      </trkpt>
      <trkpt lat="50.38488" lon="3.42277">
        <ele>42.435424</ele>
        <time>2011-06-26T05:55:06Z</time>
      </trkpt>
      <trkpt lat="50.38462" lon="3.42278">
        <ele>41.954711</ele>
        <time>2011-06-26T05:55:11Z</time>
      </trkpt>
      <trkpt lat="50.38429" lon="3.42256">
        <ele>41.954711</ele>
        <time>2011-06-26T05:55:18Z</time>
      </trkpt>
      <trkpt lat="50.3842" lon="3.42249">
        <ele>42.435424</ele>
        <time>2011-06-26T05:55:20Z</time>
      </trkpt>
      <trkpt lat="50.38405" lon="3.42242">
        <ele>42.916015</ele>
        <time>2011-06-26T05:55:23Z</time>
      </trkpt>
      <trkpt lat="50.38395" lon="3.42237">
        <ele>43.396606</ele>
        <time>2011-06-26T05:55:25Z</time>
      </trkpt>
      <trkpt lat="50.3838" lon="3.42218">
        <ele>42.916015</ele>
        <time>2011-06-26T05:55:29Z</time>
      </trkpt>
      <trkpt lat="50.38366" lon="3.42178">
        <ele>40.032104</ele>
        <time>2011-06-26T05:55:35Z</time>
      </trkpt>
      <trkpt lat="50.38361" lon="3.42161">
        <ele>40.512817</ele>
        <time>2011-06-26T05:55:38Z</time>
      </trkpt>
      <trkpt lat="50.38352" lon="3.42122">
        <ele>40.032104</ele>
        <time>2011-06-26T05:55:44Z</time>
      </trkpt>
      <trkpt lat="50.38349" lon="3.42095">
        <ele>40.032104</ele>
        <time>2011-06-26T05:55:48Z</time>
      </trkpt>
      <trkpt lat="50.38348" lon="3.42073">
        <ele>39.551269</ele>
        <time>2011-06-26T05:55:51Z</time>
      </trkpt>
      <trkpt lat="50.38348" lon="3.42035">
        <ele>39.551269</ele>
        <time>2011-06-26T05:55:56Z</time>
      </trkpt>
      <trkpt lat="50.38351" lon="3.42013">
        <ele>39.551269</ele>
        <time>2011-06-26T05:55:59Z</time>
      </trkpt>
      <trkpt lat="50.3836" lon="3.41976">
        <ele>39.551269</ele>
        <time>2011-06-26T05:56:04Z</time>
      </trkpt>
      <trkpt lat="50.38377" lon="3.41949">
        <ele>40.032104</ele>
        <time>2011-06-26T05:56:09Z</time>
      </trkpt>
      <trkpt lat="50.3839" lon="3.41939">
        <ele>39.551269</ele>
        <time>2011-06-26T05:56:13Z</time>
      </trkpt>
      <trkpt lat="50.38401" lon="3.41938">
        <ele>39.070678</ele>
        <time>2011-06-26T05:56:18Z</time>
      </trkpt>
      <trkpt lat="50.38403" lon="3.41937">
        <ele>40.032104</ele>
        <time>2011-06-26T05:56:22Z</time>
      </trkpt>
      <trkpt lat="50.38409" lon="3.41935">
        <ele>40.993408</ele>
        <time>2011-06-26T05:56:33Z</time>
      </trkpt>
      <trkpt lat="50.3842" lon="3.4193">
        <ele>43.396606</ele>
        <time>2011-06-26T05:56:36Z</time>
      </trkpt>
      <trkpt lat="50.38433" lon="3.41934">
        <ele>42.916015</ele>
        <time>2011-06-26T05:56:40Z</time>
      </trkpt>
      <trkpt lat="50.38451" lon="3.41938">
        <ele>43.877319</ele>
        <time>2011-06-26T05:56:42Z</time>
      </trkpt>
      <trkpt lat="50.38458" lon="3.41937">
        <ele>43.877319</ele>
        <time>2011-06-26T05:56:43Z</time>
      </trkpt>
      <trkpt lat="50.38482" lon="3.41933">
        <ele>44.838623</ele>
        <time>2011-06-26T05:56:47Z</time>
      </trkpt>
      <trkpt lat="50.38498" lon="3.41928">
        <ele>44.358032</ele>
        <time>2011-06-26T05:56:50Z</time>
      </trkpt>
      <trkpt lat="50.38514" lon="3.41918">
        <ele>41.954711</ele>
        <time>2011-06-26T05:56:53Z</time>
      </trkpt>
      <trkpt lat="50.38523" lon="3.41899">
        <ele>39.551269</ele>
        <time>2011-06-26T05:56:57Z</time>
      </trkpt>
      <trkpt lat="50.38516" lon="3.41884">
        <ele>38.109375</ele>
        <time>2011-06-26T05:57:00Z</time>
      </trkpt>
      <trkpt lat="50.38517" lon="3.41875">
        <ele>39.070678</ele>
        <time>2011-06-26T05:57:03Z</time>
      </trkpt>
      <trkpt lat="50.38517" lon="3.41875">
        <ele>39.070678</ele>
        <time>2011-06-26T05:57:04Z</time>
      </trkpt>
      <trkpt lat="50.38515" lon="3.41873">
        <ele>39.070678</ele>
        <time>2011-06-26T05:57:09Z</time>
      </trkpt>
      <trkpt lat="50.38516" lon="3.41873">
        <ele>39.070678</ele>
        <time>2011-06-26T05:57:10Z</time>
      </trkpt>
      <trkpt lat="50.38516" lon="3.41868">
        <ele>37.628662</ele>
        <time>2011-06-26T05:57:15Z</time>
      </trkpt>
      <trkpt lat="50.38516" lon="3.4185">
        <ele>36.186767</ele>
        <time>2011-06-26T05:57:17Z</time>
      </trkpt>
      <trkpt lat="50.38521" lon="3.41846">
        <ele>34.744873</ele>
        <time>2011-06-26T05:57:20Z</time>
      </trkpt>
      <trkpt lat="50.38524" lon="3.41845">
        <ele>34.744873</ele>
        <time>2011-06-26T05:57:21Z</time>
      </trkpt>
      <trkpt lat="50.38543" lon="3.41836">
        <ele>34.744873</ele>
        <time>2011-06-26T05:57:26Z</time>
      </trkpt>
      <trkpt lat="50.38561" lon="3.41812">
        <ele>35.225463</ele>
        <time>2011-06-26T05:57:31Z</time>
      </trkpt>
      <trkpt lat="50.38564" lon="3.41808">
        <ele>34.744873</ele>
        <time>2011-06-26T05:57:32Z</time>
      </trkpt>
      <trkpt lat="50.38568" lon="3.418">
        <ele>34.26416</ele>
        <time>2011-06-26T05:57:34Z</time>
      </trkpt>
      <trkpt lat="50.38575" lon="3.41789">
        <ele>34.26416</ele>
        <time>2011-06-26T05:57:41Z</time>
      </trkpt>
      <trkpt lat="50.38584" lon="3.41775">
        <ele>34.26416</ele>
        <time>2011-06-26T05:57:48Z</time>
      </trkpt>
      <trkpt lat="50.38596" lon="3.41751">
        <ele>37.148071</ele>
        <time>2011-06-26T05:57:54Z</time>
      </trkpt>
      <trkpt lat="50.38601" lon="3.41743">
        <ele>36.66748</ele>
        <time>2011-06-26T05:57:56Z</time>
      </trkpt>
      <trkpt lat="50.38622" lon="3.41741">
        <ele>33.302856</ele>
        <time>2011-06-26T05:58:01Z</time>
      </trkpt>
      <trkpt lat="50.3863" lon="3.41748">
        <ele>32.822265</ele>
        <time>2011-06-26T05:58:03Z</time>
      </trkpt>
      <trkpt lat="50.38664" lon="3.41783">
        <ele>31.860717</ele>
        <time>2011-06-26T05:58:11Z</time>
      </trkpt>
      <trkpt lat="50.387" lon="3.41819">
        <ele>30.418823</ele>
        <time>2011-06-26T05:58:19Z</time>
      </trkpt>
      <trkpt lat="50.38717" lon="3.4185">
        <ele>29.457519</ele>
        <time>2011-06-26T05:58:24Z</time>
      </trkpt>
      <trkpt lat="50.38719" lon="3.41858">
        <ele>29.93811</ele>
        <time>2011-06-26T05:58:25Z</time>
      </trkpt>
      <trkpt lat="50.38723" lon="3.4188">
        <ele>29.93811</ele>
        <time>2011-06-26T05:58:28Z</time>
      </trkpt>
      <trkpt lat="50.38727" lon="3.41903">
        <ele>28.976928</ele>
        <time>2011-06-26T05:58:31Z</time>
      </trkpt>
      <trkpt lat="50.38731" lon="3.41925">
        <ele>27.534912</ele>
        <time>2011-06-26T05:58:34Z</time>
      </trkpt>
      <trkpt lat="50.38737" lon="3.4198">
        <ele>23.689575</ele>
        <time>2011-06-26T05:58:41Z</time>
      </trkpt>
      <trkpt lat="50.38745" lon="3.42046">
        <ele>19.363769</ele>
        <time>2011-06-26T05:58:49Z</time>
      </trkpt>
      <trkpt lat="50.38751" lon="3.42104">
        <ele>16.960449</ele>
        <time>2011-06-26T05:58:56Z</time>
      </trkpt>
      <trkpt lat="50.3876" lon="3.42167">
        <ele>17.921752</ele>
        <time>2011-06-26T05:59:03Z</time>
      </trkpt>
      <trkpt lat="50.38764" lon="3.42204">
        <ele>18.883056</ele>
        <time>2011-06-26T05:59:07Z</time>
      </trkpt>
      <trkpt lat="50.38771" lon="3.42283">
        <ele>18.402343</ele>
        <time>2011-06-26T05:59:15Z</time>
      </trkpt>
      <trkpt lat="50.38775" lon="3.42323">
        <ele>17.921752</ele>
        <time>2011-06-26T05:59:19Z</time>
      </trkpt>
      <trkpt lat="50.38783" lon="3.42382">
        <ele>17.921752</ele>
        <time>2011-06-26T05:59:26Z</time>
      </trkpt>
      <trkpt lat="50.38786" lon="3.42411">
        <ele>18.883056</ele>
        <time>2011-06-26T05:59:30Z</time>
      </trkpt>
      <trkpt lat="50.38796" lon="3.42421">
        <ele>20.324951</ele>
        <time>2011-06-26T05:59:35Z</time>
      </trkpt>
      <trkpt lat="50.38802" lon="3.42419">
        <ele>22.728271</ele>
        <time>2011-06-26T05:59:37Z</time>
      </trkpt>
      <trkpt lat="50.38832" lon="3.42396">
        <ele>29.93811</ele>
        <time>2011-06-26T05:59:45Z</time>
      </trkpt>
      <trkpt lat="50.38837" lon="3.42394">
        <ele>30.418823</ele>
        <time>2011-06-26T05:59:46Z</time>
      </trkpt>
      <trkpt lat="50.3886" lon="3.42373">
        <ele>31.380127</ele>
        <time>2011-06-26T05:59:51Z</time>
      </trkpt>
      <trkpt lat="50.38903" lon="3.42331">
        <ele>35.225463</ele>
        <time>2011-06-26T05:59:59Z</time>
      </trkpt>
      <trkpt lat="50.38941" lon="3.42294">
        <ele>38.590087</ele>
        <time>2011-06-26T06:00:06Z</time>
      </trkpt>
      <trkpt lat="50.38946" lon="3.42288">
        <ele>38.590087</ele>
        <time>2011-06-26T06:00:07Z</time>
      </trkpt>
      <trkpt lat="50.38965" lon="3.42285">
        <ele>37.628662</ele>
        <time>2011-06-26T06:00:11Z</time>
      </trkpt>
      <trkpt lat="50.38969" lon="3.42291">
        <ele>37.148071</ele>
        <time>2011-06-26T06:00:12Z</time>
      </trkpt>
      <trkpt lat="50.38983" lon="3.4233">
        <ele>33.783447</ele>
        <time>2011-06-26T06:00:18Z</time>
      </trkpt>
      <trkpt lat="50.38991" lon="3.42354">
        <ele>31.380127</ele>
        <time>2011-06-26T06:00:21Z</time>
      </trkpt>
      <trkpt lat="50.3901" lon="3.42378">
        <ele>31.860717</ele>
        <time>2011-06-26T06:00:26Z</time>
      </trkpt>
      <trkpt lat="50.39022" lon="3.42374">
        <ele>31.860717</ele>
        <time>2011-06-26T06:00:32Z</time>
      </trkpt>
      <trkpt lat="50.39031" lon="3.4238">
        <ele>29.93811</ele>
        <time>2011-06-26T06:00:36Z</time>
      </trkpt>
      <trkpt lat="50.39043" lon="3.42406">
        <ele>20.324951</ele>
        <time>2011-06-26T06:00:42Z</time>
      </trkpt>
      <trkpt lat="50.39053" lon="3.42432">
        <ele>15.037719</ele>
        <time>2011-06-26T06:00:47Z</time>
      </trkpt>
      <trkpt lat="50.39063" lon="3.42461">
        <ele>10.231201</ele>
        <time>2011-06-26T06:00:52Z</time>
      </trkpt>
      <trkpt lat="50.39068" lon="3.42479">
        <ele>7.347168</ele>
        <time>2011-06-26T06:00:55Z</time>
      </trkpt>
      <trkpt lat="50.39076" lon="3.42508">
        <ele>5.4245605</ele>
        <time>2011-06-26T06:01:00Z</time>
      </trkpt>
      <trkpt lat="50.39077" lon="3.42514">
        <ele>4.4632568</ele>
        <time>2011-06-26T06:01:01Z</time>
      </trkpt>
      <trkpt lat="50.39083" lon="3.42539">
        <ele>2.5406494</ele>
        <time>2011-06-26T06:01:05Z</time>
      </trkpt>
      <trkpt lat="50.39089" lon="3.42561">
        <ele>3.982666</ele>
        <time>2011-06-26T06:01:09Z</time>
      </trkpt>
      <trkpt lat="50.39094" lon="3.42602">
        <ele>5.4245605</ele>
        <time>2011-06-26T06:01:15Z</time>
      </trkpt>
      <trkpt lat="50.39099" lon="3.4264">
        <ele>5.9052734</ele>
        <time>2011-06-26T06:01:21Z</time>
      </trkpt>
      <trkpt lat="50.39104" lon="3.4269">
        <ele>10.231201</ele>
        <time>2011-06-26T06:01:29Z</time>
      </trkpt>
      <trkpt lat="50.39108" lon="3.4273">
        <ele>11.192504</ele>
        <time>2011-06-26T06:01:36Z</time>
      </trkpt>
      <trkpt lat="50.39112" lon="3.42771">
        <ele>12.634399</ele>
        <time>2011-06-26T06:01:43Z</time>
      </trkpt>
      <trkpt lat="50.39113" lon="3.42804">
        <ele>14.557006</ele>
        <time>2011-06-26T06:01:48Z</time>
      </trkpt>
      <trkpt lat="50.39113" lon="3.42848">
        <ele>18.402343</ele>
        <time>2011-06-26T06:01:54Z</time>
      </trkpt>
      <trkpt lat="50.39115" lon="3.42894">
        <ele>24.170288</ele>
        <time>2011-06-26T06:02:00Z</time>
      </trkpt>
      <trkpt lat="50.3912" lon="3.42955">
        <ele>28.976928</ele>
        <time>2011-06-26T06:02:08Z</time>
      </trkpt>
      <trkpt lat="50.39133" lon="3.42986">
        <ele>35.706054</ele>
        <time>2011-06-26T06:02:13Z</time>
      </trkpt>
      <trkpt lat="50.39145" lon="3.42991">
        <ele>38.590087</ele>
        <time>2011-06-26T06:02:16Z</time>
      </trkpt>
      <trkpt lat="50.39149" lon="3.42993">
        <ele>40.032104</ele>
        <time>2011-06-26T06:02:17Z</time>
      </trkpt>
      <trkpt lat="50.39166" lon="3.42984">
        <ele>45.319213</ele>
        <time>2011-06-26T06:02:22Z</time>
      </trkpt>
      <trkpt lat="50.39167" lon="3.42977">
        <ele>45.799926</ele>
        <time>2011-06-26T06:02:23Z</time>
      </trkpt>
      <trkpt lat="50.39177" lon="3.42923">
        <ele>50.125976</ele>
        <time>2011-06-26T06:02:30Z</time>
      </trkpt>
      <trkpt lat="50.39178" lon="3.42873">
        <ele>54.932373</ele>
        <time>2011-06-26T06:02:36Z</time>
      </trkpt>
      <trkpt lat="50.39178" lon="3.42864">
        <ele>55.893798</ele>
        <time>2011-06-26T06:02:37Z</time>
      </trkpt>
      <trkpt lat="50.39176" lon="3.42846">
        <ele>57.335815</ele>
        <time>2011-06-26T06:02:39Z</time>
      </trkpt>
      <trkpt lat="50.39174" lon="3.42819">
        <ele>58.77771</ele>
        <time>2011-06-26T06:02:42Z</time>
      </trkpt>
      <trkpt lat="50.39172" lon="3.42802">
        <ele>60.219726</ele>
        <time>2011-06-26T06:02:44Z</time>
      </trkpt>
      <trkpt lat="50.39169" lon="3.42764">
        <ele>56.855102</ele>
        <time>2011-06-26T06:02:48Z</time>
      </trkpt>
      <trkpt lat="50.39164" lon="3.42715">
        <ele>58.77771</ele>
        <time>2011-06-26T06:02:53Z</time>
      </trkpt>
      <trkpt lat="50.39161" lon="3.42697">
        <ele>60.219726</ele>
        <time>2011-06-26T06:02:55Z</time>
      </trkpt>
      <trkpt lat="50.39153" lon="3.4265">
        <ele>54.932373</ele>
        <time>2011-06-26T06:03:00Z</time>
      </trkpt>
      <trkpt lat="50.39151" lon="3.42642">
        <ele>54.932373</ele>
        <time>2011-06-26T06:03:01Z</time>
      </trkpt>
      <trkpt lat="50.3914" lon="3.426">
        <ele>55.413085</ele>
        <time>2011-06-26T06:03:06Z</time>
      </trkpt>
      <trkpt lat="50.39133" lon="3.42547">
        <ele>45.799926</ele>
        <time>2011-06-26T06:03:12Z</time>
      </trkpt>
      <trkpt lat="50.39135" lon="3.42529">
        <ele>40.512817</ele>
        <time>2011-06-26T06:03:16Z</time>
      </trkpt>
      <trkpt lat="50.39142" lon="3.42534">
        <ele>39.070678</ele>
        <time>2011-06-26T06:03:19Z</time>
      </trkpt>
      <trkpt lat="50.39149" lon="3.42548">
        <ele>37.628662</ele>
        <time>2011-06-26T06:03:21Z</time>
      </trkpt>
      <trkpt lat="50.39167" lon="3.42596">
        <ele>37.628662</ele>
        <time>2011-06-26T06:03:25Z</time>
      </trkpt>
      <trkpt lat="50.39171" lon="3.42608">
        <ele>37.148071</ele>
        <time>2011-06-26T06:03:26Z</time>
      </trkpt>
      <trkpt lat="50.39173" lon="3.42621">
        <ele>37.148071</ele>
        <time>2011-06-26T06:03:30Z</time>
      </trkpt>
      <trkpt lat="50.39168" lon="3.42599">
        <ele>41.954711</ele>
        <time>2011-06-26T06:03:33Z</time>
      </trkpt>
      <trkpt lat="50.39162" lon="3.42572">
        <ele>44.358032</ele>
        <time>2011-06-26T06:03:37Z</time>
      </trkpt>
      <trkpt lat="50.3916" lon="3.42541">
        <ele>43.877319</ele>
        <time>2011-06-26T06:03:42Z</time>
      </trkpt>
      <trkpt lat="50.39157" lon="3.42513">
        <ele>44.358032</ele>
        <time>2011-06-26T06:03:47Z</time>
      </trkpt>
      <trkpt lat="50.39153" lon="3.42495">
        <ele>40.032104</ele>
        <time>2011-06-26T06:03:50Z</time>
      </trkpt>
      <trkpt lat="50.39161" lon="3.42457">
        <ele>35.225463</ele>
        <time>2011-06-26T06:03:55Z</time>
      </trkpt>
      <trkpt lat="50.39163" lon="3.42451">
        <ele>36.186767</ele>
        <time>2011-06-26T06:03:56Z</time>
      </trkpt>
      <trkpt lat="50.39177" lon="3.42418">
        <ele>32.822265</ele>
        <time>2011-06-26T06:04:00Z</time>
      </trkpt>
      <trkpt lat="50.39186" lon="3.42381">
        <ele>28.976928</ele>
        <time>2011-06-26T06:04:04Z</time>
      </trkpt>
      <trkpt lat="50.39179" lon="3.42351">
        <ele>23.689575</ele>
        <time>2011-06-26T06:04:09Z</time>
      </trkpt>
      <trkpt lat="50.39171" lon="3.42341">
        <ele>23.208984</ele>
        <time>2011-06-26T06:04:11Z</time>
      </trkpt>
      <trkpt lat="50.39163" lon="3.42333">
        <ele>22.247558</ele>
        <time>2011-06-26T06:04:13Z</time>
      </trkpt>
      <trkpt lat="50.39149" lon="3.42315">
        <ele>21.286377</ele>
        <time>2011-06-26T06:04:17Z</time>
      </trkpt>
      <trkpt lat="50.39131" lon="3.42282">
        <ele>15.037719</ele>
        <time>2011-06-26T06:04:23Z</time>
      </trkpt>
      <trkpt lat="50.39127" lon="3.42275">
        <ele>14.557006</ele>
        <time>2011-06-26T06:04:24Z</time>
      </trkpt>
      <trkpt lat="50.39118" lon="3.42254">
        <ele>16.960449</ele>
        <time>2011-06-26T06:04:27Z</time>
      </trkpt>
      <trkpt lat="50.39102" lon="3.42226">
        <ele>15.037719</ele>
        <time>2011-06-26T06:04:32Z</time>
      </trkpt>
      <trkpt lat="50.39092" lon="3.42206">
        <ele>11.673217</ele>
        <time>2011-06-26T06:04:36Z</time>
      </trkpt>
      <trkpt lat="50.39082" lon="3.4219">
        <ele>14.557006</ele>
        <time>2011-06-26T06:04:39Z</time>
      </trkpt>
      <trkpt lat="50.39077" lon="3.42171">
        <ele>9.2698975</ele>
        <time>2011-06-26T06:04:43Z</time>
      </trkpt>
      <trkpt lat="50.39084" lon="3.42161">
        <ele>9.7506104</ele>
        <time>2011-06-26T06:04:45Z</time>
      </trkpt>
      <trkpt lat="50.39117" lon="3.42126">
        <ele>7.347168</ele>
        <time>2011-06-26T06:04:52Z</time>
      </trkpt>
      <trkpt lat="50.39152" lon="3.42088">
        <ele>3.982666</ele>
        <time>2011-06-26T06:04:59Z</time>
      </trkpt>
      <trkpt lat="50.39181" lon="3.42059">
        <ele>0.618042</ele>
        <time>2011-06-26T06:05:04Z</time>
      </trkpt>
      <trkpt lat="50.39217" lon="3.42024">
        <ele>-1.304687</ele>
        <time>2011-06-26T06:05:10Z</time>
      </trkpt>
      <trkpt lat="50.3926" lon="3.41981">
        <ele>-1.785278</ele>
        <time>2011-06-26T06:05:17Z</time>
      </trkpt>
      <trkpt lat="50.39305" lon="3.41923">
        <ele>14.076416</ele>
        <time>2011-06-26T06:05:25Z</time>
      </trkpt>
      <trkpt lat="50.39356" lon="3.41866">
        <ele>21.286377</ele>
        <time>2011-06-26T06:05:33Z</time>
      </trkpt>
      <trkpt lat="50.39391" lon="3.4183">
        <ele>23.689575</ele>
        <time>2011-06-26T06:05:39Z</time>
      </trkpt>
      <trkpt lat="50.39423" lon="3.41796">
        <ele>27.534912</ele>
        <time>2011-06-26T06:05:45Z</time>
      </trkpt>
      <trkpt lat="50.39455" lon="3.41762">
        <ele>29.93811</ele>
        <time>2011-06-26T06:05:51Z</time>
      </trkpt>
      <trkpt lat="50.39495" lon="3.41723">
        <ele>24.170288</ele>
        <time>2011-06-26T06:05:58Z</time>
      </trkpt>
      <trkpt lat="50.39529" lon="3.41689">
        <ele>22.728271</ele>
        <time>2011-06-26T06:06:04Z</time>
      </trkpt>
      <trkpt lat="50.39562" lon="3.41658">
        <ele>24.651001</ele>
        <time>2011-06-26T06:06:10Z</time>
      </trkpt>
      <trkpt lat="50.39605" lon="3.41613">
        <ele>17.921752</ele>
        <time>2011-06-26T06:06:17Z</time>
      </trkpt>
      <trkpt lat="50.39653" lon="3.41558">
        <ele>20.324951</ele>
        <time>2011-06-26T06:06:25Z</time>
      </trkpt>
      <trkpt lat="50.39703" lon="3.41508">
        <ele>17.921752</ele>
        <time>2011-06-26T06:06:33Z</time>
      </trkpt>
      <trkpt lat="50.39745" lon="3.41467">
        <ele>15.999023</ele>
        <time>2011-06-26T06:06:40Z</time>
      </trkpt>
      <trkpt lat="50.39779" lon="3.41432">
        <ele>12.153808</ele>
        <time>2011-06-26T06:06:46Z</time>
      </trkpt>
      <trkpt lat="50.39819" lon="3.41386">
        <ele>14.076416</ele>
        <time>2011-06-26T06:06:54Z</time>
      </trkpt>
      <trkpt lat="50.39858" lon="3.41348">
        <ele>15.037719</ele>
        <time>2011-06-26T06:07:01Z</time>
      </trkpt>
      <trkpt lat="50.39897" lon="3.41306">
        <ele>16.960449</ele>
        <time>2011-06-26T06:07:08Z</time>
      </trkpt>
      <trkpt lat="50.39946" lon="3.41253">
        <ele>15.518432</ele>
        <time>2011-06-26T06:07:17Z</time>
      </trkpt>
      <trkpt lat="50.39995" lon="3.412">
        <ele>13.595825</ele>
        <time>2011-06-26T06:07:26Z</time>
      </trkpt>
      <trkpt lat="50.40034" lon="3.41159">
        <ele>10.711792</ele>
        <time>2011-06-26T06:07:33Z</time>
      </trkpt>
      <trkpt lat="50.40072" lon="3.41118">
        <ele>15.999023</ele>
        <time>2011-06-26T06:07:40Z</time>
      </trkpt>
      <trkpt lat="50.4012" lon="3.41069">
        <ele>15.037719</ele>
        <time>2011-06-26T06:07:49Z</time>
      </trkpt>
      <trkpt lat="50.40175" lon="3.41014">
        <ele>13.115112</ele>
        <time>2011-06-26T06:07:59Z</time>
      </trkpt>
      <trkpt lat="50.40218" lon="3.4097">
        <ele>13.115112</ele>
        <time>2011-06-26T06:08:07Z</time>
      </trkpt>
      <trkpt lat="50.40273" lon="3.40912">
        <ele>14.076416</ele>
        <time>2011-06-26T06:08:17Z</time>
      </trkpt>
      <trkpt lat="50.40323" lon="3.40861">
        <ele>14.076416</ele>
        <time>2011-06-26T06:08:26Z</time>
      </trkpt>
      <trkpt lat="50.40328" lon="3.40856">
        <ele>14.076416</ele>
        <time>2011-06-26T06:08:27Z</time>
      </trkpt>
      <trkpt lat="50.40347" lon="3.40857">
        <ele>12.634399</ele>
        <time>2011-06-26T06:08:31Z</time>
      </trkpt>
      <trkpt lat="50.40351" lon="3.40866">
        <ele>11.673217</ele>
        <time>2011-06-26T06:08:32Z</time>
      </trkpt>
      <trkpt lat="50.40372" lon="3.40905">
        <ele>12.153808</ele>
        <time>2011-06-26T06:08:38Z</time>
      </trkpt>
      <trkpt lat="50.40394" lon="3.40932">
        <ele>17.441162</ele>
        <time>2011-06-26T06:08:43Z</time>
      </trkpt>
      <trkpt lat="50.40399" lon="3.40938">
        <ele>18.402343</ele>
        <time>2011-06-26T06:08:44Z</time>
      </trkpt>
      <trkpt lat="50.40409" lon="3.4096">
        <ele>20.805664</ele>
        <time>2011-06-26T06:08:47Z</time>
      </trkpt>
      <trkpt lat="50.40428" lon="3.40984">
        <ele>25.612304</ele>
        <time>2011-06-26T06:08:51Z</time>
      </trkpt>
      <trkpt lat="50.40463" lon="3.41042">
        <ele>19.363769</ele>
        <time>2011-06-26T06:08:59Z</time>
      </trkpt>
      <trkpt lat="50.40484" lon="3.41069">
        <ele>17.441162</ele>
        <time>2011-06-26T06:09:03Z</time>
      </trkpt>
      <trkpt lat="50.40523" lon="3.41117">
        <ele>16.960449</ele>
        <time>2011-06-26T06:09:10Z</time>
      </trkpt>
      <trkpt lat="50.40543" lon="3.41146">
        <ele>15.999023</ele>
        <time>2011-06-26T06:09:14Z</time>
      </trkpt>
      <trkpt lat="50.4056" lon="3.41167">
        <ele>17.441162</ele>
        <time>2011-06-26T06:09:17Z</time>
      </trkpt>
      <trkpt lat="50.40575" lon="3.41186">
        <ele>16.960449</ele>
        <time>2011-06-26T06:09:20Z</time>
      </trkpt>
      <trkpt lat="50.40595" lon="3.41212">
        <ele>17.921752</ele>
        <time>2011-06-26T06:09:24Z</time>
      </trkpt>
      <trkpt lat="50.4062" lon="3.41247">
        <ele>21.286377</ele>
        <time>2011-06-26T06:09:29Z</time>
      </trkpt>
      <trkpt lat="50.40643" lon="3.41278">
        <ele>25.131713</ele>
        <time>2011-06-26T06:09:34Z</time>
      </trkpt>
      <trkpt lat="50.40666" lon="3.41315">
        <ele>24.170288</ele>
        <time>2011-06-26T06:09:39Z</time>
      </trkpt>
      <trkpt lat="50.40692" lon="3.41348">
        <ele>23.208984</ele>
        <time>2011-06-26T06:09:44Z</time>
      </trkpt>
      <trkpt lat="50.40714" lon="3.41377">
        <ele>21.766967</ele>
        <time>2011-06-26T06:09:49Z</time>
      </trkpt>
      <trkpt lat="50.40728" lon="3.41394">
        <ele>19.84436</ele>
        <time>2011-06-26T06:09:52Z</time>
      </trkpt>
      <trkpt lat="50.40756" lon="3.41435">
        <ele>18.402343</ele>
        <time>2011-06-26T06:09:58Z</time>
      </trkpt>
      <trkpt lat="50.40769" lon="3.41456">
        <ele>19.363769</ele>
        <time>2011-06-26T06:10:01Z</time>
      </trkpt>
      <trkpt lat="50.40796" lon="3.41493">
        <ele>21.766967</ele>
        <time>2011-06-26T06:10:07Z</time>
      </trkpt>
      <trkpt lat="50.40801" lon="3.415">
        <ele>21.766967</ele>
        <time>2011-06-26T06:10:08Z</time>
      </trkpt>
      <trkpt lat="50.40831" lon="3.41542">
        <ele>22.247558</ele>
        <time>2011-06-26T06:10:14Z</time>
      </trkpt>
      <trkpt lat="50.40857" lon="3.41579">
        <ele>20.805664</ele>
        <time>2011-06-26T06:10:20Z</time>
      </trkpt>
      <trkpt lat="50.40866" lon="3.4159">
        <ele>22.728271</ele>
        <time>2011-06-26T06:10:22Z</time>
      </trkpt>
      <trkpt lat="50.40894" lon="3.41624">
        <ele>24.651001</ele>
        <time>2011-06-26T06:10:28Z</time>
      </trkpt>
      <trkpt lat="50.40923" lon="3.41666">
        <ele>21.766967</ele>
        <time>2011-06-26T06:10:34Z</time>
      </trkpt>
      <trkpt lat="50.40941" lon="3.41694">
        <ele>20.324951</ele>
        <time>2011-06-26T06:10:38Z</time>
      </trkpt>
      <trkpt lat="50.40946" lon="3.41726">
        <ele>18.883056</ele>
        <time>2011-06-26T06:10:42Z</time>
      </trkpt>
      <trkpt lat="50.40945" lon="3.41741">
        <ele>18.883056</ele>
        <time>2011-06-26T06:10:44Z</time>
      </trkpt>
      <trkpt lat="50.40939" lon="3.41769">
        <ele>20.805664</ele>
        <time>2011-06-26T06:10:49Z</time>
      </trkpt>
      <trkpt lat="50.40935" lon="3.41778">
        <ele>20.324951</ele>
        <time>2011-06-26T06:10:51Z</time>
      </trkpt>
      <trkpt lat="50.40928" lon="3.41802">
        <ele>21.766967</ele>
        <time>2011-06-26T06:10:56Z</time>
      </trkpt>
      <trkpt lat="50.40921" lon="3.41828">
        <ele>18.883056</ele>
        <time>2011-06-26T06:11:00Z</time>
      </trkpt>
      <trkpt lat="50.40913" lon="3.41863">
        <ele>19.84436</ele>
        <time>2011-06-26T06:11:05Z</time>
      </trkpt>
      <trkpt lat="50.4091" lon="3.41878">
        <ele>22.247558</ele>
        <time>2011-06-26T06:11:07Z</time>
      </trkpt>
      <trkpt lat="50.40905" lon="3.41906">
        <ele>27.534912</ele>
        <time>2011-06-26T06:11:11Z</time>
      </trkpt>
      <trkpt lat="50.40896" lon="3.41945">
        <ele>28.976928</ele>
        <time>2011-06-26T06:11:17Z</time>
      </trkpt>
      <trkpt lat="50.40884" lon="3.41978">
        <ele>28.976928</ele>
        <time>2011-06-26T06:11:23Z</time>
      </trkpt>
      <trkpt lat="50.40883" lon="3.41983">
        <ele>28.496215</ele>
        <time>2011-06-26T06:11:24Z</time>
      </trkpt>
      <trkpt lat="50.40884" lon="3.42018">
        <ele>26.573608</ele>
        <time>2011-06-26T06:11:30Z</time>
      </trkpt>
      <trkpt lat="50.40891" lon="3.4205">
        <ele>21.766967</ele>
        <time>2011-06-26T06:11:36Z</time>
      </trkpt>
      <trkpt lat="50.40892" lon="3.42077">
        <ele>22.728271</ele>
        <time>2011-06-26T06:11:40Z</time>
      </trkpt>
      <trkpt lat="50.40895" lon="3.42098">
        <ele>23.689575</ele>
        <time>2011-06-26T06:11:43Z</time>
      </trkpt>
      <trkpt lat="50.40897" lon="3.4212">
        <ele>25.612304</ele>
        <time>2011-06-26T06:11:46Z</time>
      </trkpt>
      <trkpt lat="50.40899" lon="3.42141">
        <ele>28.015502</ele>
        <time>2011-06-26T06:11:49Z</time>
      </trkpt>
      <trkpt lat="50.40904" lon="3.42181">
        <ele>25.612304</ele>
        <time>2011-06-26T06:11:54Z</time>
      </trkpt>
      <trkpt lat="50.40906" lon="3.42191">
        <ele>21.766967</ele>
        <time>2011-06-26T06:11:55Z</time>
      </trkpt>
      <trkpt lat="50.40917" lon="3.4226">
        <ele>8.3085938</ele>
        <time>2011-06-26T06:12:02Z</time>
      </trkpt>
      <trkpt lat="50.40928" lon="3.42302">
        <ele>7.8278809</ele>
        <time>2011-06-26T06:12:07Z</time>
      </trkpt>
      <trkpt lat="50.40936" lon="3.42335">
        <ele>10.231201</ele>
        <time>2011-06-26T06:12:11Z</time>
      </trkpt>
      <trkpt lat="50.40935" lon="3.42386">
        <ele>10.711792</ele>
        <time>2011-06-26T06:12:17Z</time>
      </trkpt>
      <trkpt lat="50.40934" lon="3.42395">
        <ele>11.192504</ele>
        <time>2011-06-26T06:12:18Z</time>
      </trkpt>
      <trkpt lat="50.40932" lon="3.42429">
        <ele>8.3085938</ele>
        <time>2011-06-26T06:12:22Z</time>
      </trkpt>
      <trkpt lat="50.40929" lon="3.42447">
        <ele>7.8278809</ele>
        <time>2011-06-26T06:12:24Z</time>
      </trkpt>
      <trkpt lat="50.40927" lon="3.42465">
        <ele>7.8278809</ele>
        <time>2011-06-26T06:12:26Z</time>
      </trkpt>
      <trkpt lat="50.40924" lon="3.42489">
        <ele>5.4245605</ele>
        <time>2011-06-26T06:12:29Z</time>
      </trkpt>
      <trkpt lat="50.40926" lon="3.42568">
        <ele>4.4632568</ele>
        <time>2011-06-26T06:12:38Z</time>
      </trkpt>
      <trkpt lat="50.40932" lon="3.42617">
        <ele>7.347168</ele>
        <time>2011-06-26T06:12:44Z</time>
      </trkpt>
      <trkpt lat="50.40934" lon="3.4264">
        <ele>10.231201</ele>
        <time>2011-06-26T06:12:47Z</time>
      </trkpt>
      <trkpt lat="50.40929" lon="3.42668">
        <ele>12.634399</ele>
        <time>2011-06-26T06:12:51Z</time>
      </trkpt>
      <trkpt lat="50.40924" lon="3.42681">
        <ele>14.076416</ele>
        <time>2011-06-26T06:12:53Z</time>
      </trkpt>
      <trkpt lat="50.40917" lon="3.42701">
        <ele>14.557006</ele>
        <time>2011-06-26T06:12:56Z</time>
      </trkpt>
      <trkpt lat="50.40897" lon="3.42747">
        <ele>16.479736</ele>
        <time>2011-06-26T06:13:02Z</time>
      </trkpt>
      <trkpt lat="50.40902" lon="3.42779">
        <ele>18.402343</ele>
        <time>2011-06-26T06:13:06Z</time>
      </trkpt>
      <trkpt lat="50.40913" lon="3.42782">
        <ele>19.363769</ele>
        <time>2011-06-26T06:13:08Z</time>
      </trkpt>
      <trkpt lat="50.40927" lon="3.42782">
        <ele>19.84436</ele>
        <time>2011-06-26T06:13:11Z</time>
      </trkpt>
      <trkpt lat="50.40942" lon="3.42783">
        <ele>20.805664</ele>
        <time>2011-06-26T06:13:14Z</time>
      </trkpt>
      <trkpt lat="50.40968" lon="3.42791">
        <ele>20.805664</ele>
        <time>2011-06-26T06:13:19Z</time>
      </trkpt>
      <trkpt lat="50.41005" lon="3.42811">
        <ele>24.170288</ele>
        <time>2011-06-26T06:13:25Z</time>
      </trkpt>
      <trkpt lat="50.41027" lon="3.42826">
        <ele>24.651001</ele>
        <time>2011-06-26T06:13:29Z</time>
      </trkpt>
      <trkpt lat="50.41068" lon="3.42854">
        <ele>27.534912</ele>
        <time>2011-06-26T06:13:36Z</time>
      </trkpt>
      <trkpt lat="50.41105" lon="3.42878">
        <ele>29.93811</ele>
        <time>2011-06-26T06:13:42Z</time>
      </trkpt>
      <trkpt lat="50.41134" lon="3.42898">
        <ele>30.899536</ele>
        <time>2011-06-26T06:13:46Z</time>
      </trkpt>
      <trkpt lat="50.41142" lon="3.42901">
        <ele>30.418823</ele>
        <time>2011-06-26T06:13:47Z</time>
      </trkpt>
      <trkpt lat="50.41172" lon="3.42917">
        <ele>30.418823</ele>
        <time>2011-06-26T06:13:51Z</time>
      </trkpt>
      <trkpt lat="50.41178" lon="3.42923">
        <ele>29.93811</ele>
        <time>2011-06-26T06:13:52Z</time>
      </trkpt>
      <trkpt lat="50.41191" lon="3.42943">
        <ele>28.496215</ele>
        <time>2011-06-26T06:13:56Z</time>
      </trkpt>
      <trkpt lat="50.41184" lon="3.42948">
        <ele>27.054321</ele>
        <time>2011-06-26T06:13:59Z</time>
      </trkpt>
      <trkpt lat="50.41175" lon="3.42962">
        <ele>26.092895</ele>
        <time>2011-06-26T06:14:02Z</time>
      </trkpt>
      <trkpt lat="50.41168" lon="3.43003">
        <ele>18.883056</ele>
        <time>2011-06-26T06:14:08Z</time>
      </trkpt>
      <trkpt lat="50.41169" lon="3.43032">
        <ele>12.153808</ele>
        <time>2011-06-26T06:14:12Z</time>
      </trkpt>
      <trkpt lat="50.41176" lon="3.43097">
        <ele>3.0212402</ele>
        <time>2011-06-26T06:14:20Z</time>
      </trkpt>
      <trkpt lat="50.41182" lon="3.4313">
        <ele>3.0212402</ele>
        <time>2011-06-26T06:14:24Z</time>
      </trkpt>
      <trkpt lat="50.41187" lon="3.43162">
        <ele>1.5793457</ele>
        <time>2011-06-26T06:14:28Z</time>
      </trkpt>
      <trkpt lat="50.41201" lon="3.43202">
        <ele>3.5019531</ele>
        <time>2011-06-26T06:14:33Z</time>
      </trkpt>
      <trkpt lat="50.41225" lon="3.43253">
        <ele>5.4245605</ele>
        <time>2011-06-26T06:14:39Z</time>
      </trkpt>
      <trkpt lat="50.41251" lon="3.43299">
        <ele>7.8278809</ele>
        <time>2011-06-26T06:14:45Z</time>
      </trkpt>
      <trkpt lat="50.41279" lon="3.4334">
        <ele>12.153808</ele>
        <time>2011-06-26T06:14:51Z</time>
      </trkpt>
      <trkpt lat="50.41286" lon="3.43354">
        <ele>12.634399</ele>
        <time>2011-06-26T06:14:53Z</time>
      </trkpt>
      <trkpt lat="50.41311" lon="3.43416">
        <ele>10.711792</ele>
        <time>2011-06-26T06:15:01Z</time>
      </trkpt>
      <trkpt lat="50.41324" lon="3.43444">
        <ele>9.7506104</ele>
        <time>2011-06-26T06:15:05Z</time>
      </trkpt>
      <trkpt lat="50.41341" lon="3.43501">
        <ele>11.673217</ele>
        <time>2011-06-26T06:15:12Z</time>
      </trkpt>
      <trkpt lat="50.41359" lon="3.43554">
        <ele>14.076416</ele>
        <time>2011-06-26T06:15:19Z</time>
      </trkpt>
      <trkpt lat="50.4136" lon="3.43596">
        <ele>12.153808</ele>
        <time>2011-06-26T06:15:24Z</time>
      </trkpt>
      <trkpt lat="50.41353" lon="3.43638">
        <ele>9.2698975</ele>
        <time>2011-06-26T06:15:29Z</time>
      </trkpt>
      <trkpt lat="50.41341" lon="3.43694">
        <ele>13.115112</ele>
        <time>2011-06-26T06:15:35Z</time>
      </trkpt>
      <trkpt lat="50.4134" lon="3.43704">
        <ele>13.595825</ele>
        <time>2011-06-26T06:15:36Z</time>
      </trkpt>
      <trkpt lat="50.41335" lon="3.43722">
        <ele>15.518432</ele>
        <time>2011-06-26T06:15:38Z</time>
      </trkpt>
      <trkpt lat="50.41324" lon="3.4376">
        <ele>17.921752</ele>
        <time>2011-06-26T06:15:42Z</time>
      </trkpt>
      <trkpt lat="50.41327" lon="3.43797">
        <ele>18.883056</ele>
        <time>2011-06-26T06:15:46Z</time>
      </trkpt>
      <trkpt lat="50.4133" lon="3.43816">
        <ele>20.805664</ele>
        <time>2011-06-26T06:15:48Z</time>
      </trkpt>
      <trkpt lat="50.41334" lon="3.43844">
        <ele>20.324951</ele>
        <time>2011-06-26T06:15:51Z</time>
      </trkpt>
      <trkpt lat="50.41338" lon="3.43887">
        <ele>18.402343</ele>
        <time>2011-06-26T06:15:56Z</time>
      </trkpt>
      <trkpt lat="50.41334" lon="3.43919">
        <ele>15.999023</ele>
        <time>2011-06-26T06:16:00Z</time>
      </trkpt>
      <trkpt lat="50.41327" lon="3.43944">
        <ele>20.324951</ele>
        <time>2011-06-26T06:16:03Z</time>
      </trkpt>
      <trkpt lat="50.41321" lon="3.43971">
        <ele>26.092895</ele>
        <time>2011-06-26T06:16:07Z</time>
      </trkpt>
      <trkpt lat="50.41317" lon="3.44017">
        <ele>32.341552</ele>
        <time>2011-06-26T06:16:13Z</time>
      </trkpt>
      <trkpt lat="50.41316" lon="3.44025">
        <ele>33.302856</ele>
        <time>2011-06-26T06:16:14Z</time>
      </trkpt>
      <trkpt lat="50.41311" lon="3.4405">
        <ele>36.66748</ele>
        <time>2011-06-26T06:16:17Z</time>
      </trkpt>
      <trkpt lat="50.41306" lon="3.44066">
        <ele>39.070678</ele>
        <time>2011-06-26T06:16:19Z</time>
      </trkpt>
      <trkpt lat="50.41302" lon="3.44082">
        <ele>40.512817</ele>
        <time>2011-06-26T06:16:21Z</time>
      </trkpt>
      <trkpt lat="50.41296" lon="3.44115">
        <ele>45.319213</ele>
        <time>2011-06-26T06:16:25Z</time>
      </trkpt>
      <trkpt lat="50.41296" lon="3.44131">
        <ele>46.76123</ele>
        <time>2011-06-26T06:16:27Z</time>
      </trkpt>
      <trkpt lat="50.41298" lon="3.44145">
        <ele>47.722534</ele>
        <time>2011-06-26T06:16:29Z</time>
      </trkpt>
      <trkpt lat="50.41312" lon="3.44148">
        <ele>45.799926</ele>
        <time>2011-06-26T06:16:33Z</time>
      </trkpt>
      <trkpt lat="50.41325" lon="3.44151">
        <ele>44.838623</ele>
        <time>2011-06-26T06:16:36Z</time>
      </trkpt>
      <trkpt lat="50.41343" lon="3.44164">
        <ele>43.877319</ele>
        <time>2011-06-26T06:16:41Z</time>
      </trkpt>
      <trkpt lat="50.41344" lon="3.44176">
        <ele>43.877319</ele>
        <time>2011-06-26T06:16:43Z</time>
      </trkpt>
      <trkpt lat="50.41346" lon="3.44189">
        <ele>40.032104</ele>
        <time>2011-06-26T06:16:45Z</time>
      </trkpt>
      <trkpt lat="50.41342" lon="3.44216">
        <ele>42.435424</ele>
        <time>2011-06-26T06:16:49Z</time>
      </trkpt>
      <trkpt lat="50.41335" lon="3.44246">
        <ele>42.916015</ele>
        <time>2011-06-26T06:16:53Z</time>
      </trkpt>
      <trkpt lat="50.41325" lon="3.44269">
        <ele>45.319213</ele>
        <time>2011-06-26T06:16:57Z</time>
      </trkpt>
      <trkpt lat="50.41321" lon="3.44279">
        <ele>45.799926</ele>
        <time>2011-06-26T06:16:59Z</time>
      </trkpt>
      <trkpt lat="50.41317" lon="3.44307">
        <ele>31.860717</ele>
        <time>2011-06-26T06:17:03Z</time>
      </trkpt>
      <trkpt lat="50.41318" lon="3.44314">
        <ele>28.496215</ele>
        <time>2011-06-26T06:17:04Z</time>
      </trkpt>
      <trkpt lat="50.41319" lon="3.44327">
        <ele>26.573608</ele>
        <time>2011-06-26T06:17:06Z</time>
      </trkpt>
      <trkpt lat="50.41333" lon="3.44331">
        <ele>23.689575</ele>
        <time>2011-06-26T06:17:11Z</time>
      </trkpt>
      <trkpt lat="50.41337" lon="3.44333">
        <ele>24.170288</ele>
        <time>2011-06-26T06:17:12Z</time>
      </trkpt>
      <trkpt lat="50.41357" lon="3.44338">
        <ele>27.534912</ele>
        <time>2011-06-26T06:17:17Z</time>
      </trkpt>
      <trkpt lat="50.41375" lon="3.44342">
        <ele>32.822265</ele>
        <time>2011-06-26T06:17:22Z</time>
      </trkpt>
      <trkpt lat="50.41376" lon="3.44342">
        <ele>32.341552</ele>
        <time>2011-06-26T06:17:23Z</time>
      </trkpt>
      <trkpt lat="50.41385" lon="3.44346">
        <ele>29.457519</ele>
        <time>2011-06-26T06:17:29Z</time>
      </trkpt>
      <trkpt lat="50.41397" lon="3.4435">
        <ele>28.976928</ele>
        <time>2011-06-26T06:17:33Z</time>
      </trkpt>
      <trkpt lat="50.41413" lon="3.44357">
        <ele>30.899536</ele>
        <time>2011-06-26T06:17:39Z</time>
      </trkpt>
      <trkpt lat="50.4142" lon="3.44359">
        <ele>30.418823</ele>
        <time>2011-06-26T06:17:41Z</time>
      </trkpt>
      <trkpt lat="50.41436" lon="3.44366">
        <ele>32.341552</ele>
        <time>2011-06-26T06:17:46Z</time>
      </trkpt>
      <trkpt lat="50.4145" lon="3.4437">
        <ele>29.93811</ele>
        <time>2011-06-26T06:17:51Z</time>
      </trkpt>
      <trkpt lat="50.41463" lon="3.44375">
        <ele>31.860717</ele>
        <time>2011-06-26T06:17:56Z</time>
      </trkpt>
      <trkpt lat="50.41466" lon="3.44377">
        <ele>30.899536</ele>
        <time>2011-06-26T06:18:00Z</time>
      </trkpt>
      <trkpt lat="50.41466" lon="3.44377">
        <ele>30.418823</ele>
        <time>2011-06-26T06:18:01Z</time>
      </trkpt>
      <trkpt lat="50.41478" lon="3.44379">
        <ele>21.766967</ele>
        <time>2011-06-26T06:18:42Z</time>
      </trkpt>
      <trkpt lat="50.41477" lon="3.44379">
        <ele>21.286377</ele>
        <time>2011-06-26T06:18:43Z</time>
      </trkpt>
      <trkpt lat="50.41479" lon="3.4438">
        <ele>21.286377</ele>
        <time>2011-06-26T06:18:46Z</time>
      </trkpt>
      <trkpt lat="50.41487" lon="3.44376">
        <ele>24.651001</ele>
        <time>2011-06-26T06:18:51Z</time>
      </trkpt>
      <trkpt lat="50.41491" lon="3.44372">
        <ele>27.054321</ele>
        <time>2011-06-26T06:18:56Z</time>
      </trkpt>
      <trkpt lat="50.41496" lon="3.44365">
        <ele>28.015502</ele>
        <time>2011-06-26T06:19:00Z</time>
      </trkpt>
      <trkpt lat="50.41502" lon="3.44357">
        <ele>28.015502</ele>
        <time>2011-06-26T06:19:03Z</time>
      </trkpt>
      <trkpt lat="50.41512" lon="3.44357">
        <ele>28.015502</ele>
        <time>2011-06-26T06:19:08Z</time>
      </trkpt>
      <trkpt lat="50.41523" lon="3.44359">
        <ele>27.534912</ele>
        <time>2011-06-26T06:19:12Z</time>
      </trkpt>
      <trkpt lat="50.41528" lon="3.4436">
        <ele>27.534912</ele>
        <time>2011-06-26T06:19:14Z</time>
      </trkpt>
      <trkpt lat="50.4154" lon="3.44366">
        <ele>22.728271</ele>
        <time>2011-06-26T06:19:19Z</time>
      </trkpt>
      <trkpt lat="50.41554" lon="3.44368">
        <ele>22.247558</ele>
        <time>2011-06-26T06:19:23Z</time>
      </trkpt>
      <trkpt lat="50.41561" lon="3.4437">
        <ele>20.805664</ele>
        <time>2011-06-26T06:19:25Z</time>
      </trkpt>
      <trkpt lat="50.41583" lon="3.44378">
        <ele>22.728271</ele>
        <time>2011-06-26T06:19:30Z</time>
      </trkpt>
      <trkpt lat="50.41601" lon="3.44379">
        <ele>21.286377</ele>
        <time>2011-06-26T06:19:34Z</time>
      </trkpt>
      <trkpt lat="50.41614" lon="3.44379">
        <ele>22.728271</ele>
        <time>2011-06-26T06:19:37Z</time>
      </trkpt>
      <trkpt lat="50.41648" lon="3.44382">
        <ele>24.651001</ele>
        <time>2011-06-26T06:19:44Z</time>
      </trkpt>
      <trkpt lat="50.41671" lon="3.44385">
        <ele>19.84436</ele>
        <time>2011-06-26T06:19:49Z</time>
      </trkpt>
      <trkpt lat="50.41687" lon="3.44386">
        <ele>19.84436</ele>
        <time>2011-06-26T06:19:52Z</time>
      </trkpt>
      <trkpt lat="50.41706" lon="3.44382">
        <ele>19.84436</ele>
        <time>2011-06-26T06:19:56Z</time>
      </trkpt>
      <trkpt lat="50.4172" lon="3.44381">
        <ele>21.286377</ele>
        <time>2011-06-26T06:19:59Z</time>
      </trkpt>
      <trkpt lat="50.41734" lon="3.44386">
        <ele>20.805664</ele>
        <time>2011-06-26T06:20:02Z</time>
      </trkpt>
      <trkpt lat="50.41743" lon="3.44389">
        <ele>19.84436</ele>
        <time>2011-06-26T06:20:04Z</time>
      </trkpt>
      <trkpt lat="50.41765" lon="3.44399">
        <ele>14.557006</ele>
        <time>2011-06-26T06:20:10Z</time>
      </trkpt>
      <trkpt lat="50.41773" lon="3.44402">
        <ele>13.595825</ele>
        <time>2011-06-26T06:20:12Z</time>
      </trkpt>
      <trkpt lat="50.4179" lon="3.44403">
        <ele>15.037719</ele>
        <time>2011-06-26T06:20:17Z</time>
      </trkpt>
      <trkpt lat="50.41818" lon="3.44399">
        <ele>21.766967</ele>
        <time>2011-06-26T06:20:24Z</time>
      </trkpt>
      <trkpt lat="50.41834" lon="3.444">
        <ele>23.689575</ele>
        <time>2011-06-26T06:20:28Z</time>
      </trkpt>
      <trkpt lat="50.41842" lon="3.44405">
        <ele>23.208984</ele>
        <time>2011-06-26T06:20:30Z</time>
      </trkpt>
      <trkpt lat="50.41861" lon="3.44417">
        <ele>23.689575</ele>
        <time>2011-06-26T06:20:35Z</time>
      </trkpt>
      <trkpt lat="50.41865" lon="3.44416">
        <ele>23.208984</ele>
        <time>2011-06-26T06:20:36Z</time>
      </trkpt>
      <trkpt lat="50.41873" lon="3.44417">
        <ele>17.921752</ele>
        <time>2011-06-26T06:20:38Z</time>
      </trkpt>
      <trkpt lat="50.41886" lon="3.44408">
        <ele>17.441162</ele>
        <time>2011-06-26T06:20:42Z</time>
      </trkpt>
      <trkpt lat="50.4191" lon="3.44374">
        <ele>15.999023</ele>
        <time>2011-06-26T06:20:49Z</time>
      </trkpt>
      <trkpt lat="50.4193" lon="3.44337">
        <ele>17.921752</ele>
        <time>2011-06-26T06:20:56Z</time>
      </trkpt>
      <trkpt lat="50.41946" lon="3.44309">
        <ele>19.363769</ele>
        <time>2011-06-26T06:21:02Z</time>
      </trkpt>
      <trkpt lat="50.41959" lon="3.44287">
        <ele>16.960449</ele>
        <time>2011-06-26T06:21:06Z</time>
      </trkpt>
      <trkpt lat="50.41977" lon="3.4425">
        <ele>18.883056</ele>
        <time>2011-06-26T06:21:12Z</time>
      </trkpt>
      <trkpt lat="50.41993" lon="3.4422">
        <ele>18.883056</ele>
        <time>2011-06-26T06:21:18Z</time>
      </trkpt>
      <trkpt lat="50.41998" lon="3.44213">
        <ele>19.84436</ele>
        <time>2011-06-26T06:21:20Z</time>
      </trkpt>
      <trkpt lat="50.42011" lon="3.44189">
        <ele>21.286377</ele>
        <time>2011-06-26T06:21:25Z</time>
      </trkpt>
      <trkpt lat="50.42022" lon="3.44166">
        <ele>21.286377</ele>
        <time>2011-06-26T06:21:29Z</time>
      </trkpt>
      <trkpt lat="50.42047" lon="3.44117">
        <ele>20.805664</ele>
        <time>2011-06-26T06:21:37Z</time>
      </trkpt>
      <trkpt lat="50.42053" lon="3.44108">
        <ele>23.689575</ele>
        <time>2011-06-26T06:21:39Z</time>
      </trkpt>
      <trkpt lat="50.42063" lon="3.44091">
        <ele>15.999023</ele>
        <time>2011-06-26T06:21:42Z</time>
      </trkpt>
      <trkpt lat="50.4208" lon="3.44061">
        <ele>15.037719</ele>
        <time>2011-06-26T06:21:48Z</time>
      </trkpt>
      <trkpt lat="50.42083" lon="3.44055">
        <ele>15.999023</ele>
        <time>2011-06-26T06:21:49Z</time>
      </trkpt>
      <trkpt lat="50.42095" lon="3.44031">
        <ele>12.153808</ele>
        <time>2011-06-26T06:21:53Z</time>
      </trkpt>
      <trkpt lat="50.42101" lon="3.44022">
        <ele>10.711792</ele>
        <time>2011-06-26T06:21:55Z</time>
      </trkpt>
      <trkpt lat="50.42112" lon="3.44019">
        <ele>6.8664551</ele>
        <time>2011-06-26T06:21:59Z</time>
      </trkpt>
      <trkpt lat="50.4212" lon="3.44026">
        <ele>5.9052734</ele>
        <time>2011-06-26T06:22:02Z</time>
      </trkpt>
      <trkpt lat="50.42136" lon="3.44044">
        <ele>8.7891846</ele>
        <time>2011-06-26T06:22:07Z</time>
      </trkpt>
      <trkpt lat="50.42153" lon="3.44072">
        <ele>5.9052734</ele>
        <time>2011-06-26T06:22:12Z</time>
      </trkpt>
      <trkpt lat="50.42165" lon="3.44086">
        <ele>6.8664551</ele>
        <time>2011-06-26T06:22:15Z</time>
      </trkpt>
      <trkpt lat="50.42183" lon="3.4411">
        <ele>4.4632568</ele>
        <time>2011-06-26T06:22:20Z</time>
      </trkpt>
      <trkpt lat="50.422" lon="3.44126">
        <ele>3.982666</ele>
        <time>2011-06-26T06:22:25Z</time>
      </trkpt>
      <trkpt lat="50.42224" lon="3.44152">
        <ele>9.2698975</ele>
        <time>2011-06-26T06:22:31Z</time>
      </trkpt>
      <trkpt lat="50.42237" lon="3.44164">
        <ele>8.7891846</ele>
        <time>2011-06-26T06:22:34Z</time>
      </trkpt>
      <trkpt lat="50.42251" lon="3.44185">
        <ele>11.673217</ele>
        <time>2011-06-26T06:22:39Z</time>
      </trkpt>
      <trkpt lat="50.42256" lon="3.44196">
        <ele>13.115112</ele>
        <time>2011-06-26T06:22:41Z</time>
      </trkpt>
      <trkpt lat="50.42269" lon="3.44216">
        <ele>13.595825</ele>
        <time>2011-06-26T06:22:45Z</time>
      </trkpt>
      <trkpt lat="50.42276" lon="3.44225">
        <ele>12.153808</ele>
        <time>2011-06-26T06:22:47Z</time>
      </trkpt>
      <trkpt lat="50.4229" lon="3.44244">
        <ele>14.076416</ele>
        <time>2011-06-26T06:22:51Z</time>
      </trkpt>
      <trkpt lat="50.42306" lon="3.44263">
        <ele>15.518432</ele>
        <time>2011-06-26T06:22:55Z</time>
      </trkpt>
      <trkpt lat="50.42323" lon="3.44279">
        <ele>16.960449</ele>
        <time>2011-06-26T06:22:59Z</time>
      </trkpt>
      <trkpt lat="50.4234" lon="3.44297">
        <ele>10.711792</ele>
        <time>2011-06-26T06:23:03Z</time>
      </trkpt>
      <trkpt lat="50.42356" lon="3.44301">
        <ele>9.2698975</ele>
        <time>2011-06-26T06:23:07Z</time>
      </trkpt>
      <trkpt lat="50.42374" lon="3.44299">
        <ele>11.673217</ele>
        <time>2011-06-26T06:23:11Z</time>
      </trkpt>
      <trkpt lat="50.42385" lon="3.44317">
        <ele>13.115112</ele>
        <time>2011-06-26T06:23:15Z</time>
      </trkpt>
      <trkpt lat="50.42393" lon="3.44326">
        <ele>14.076416</ele>
        <time>2011-06-26T06:23:18Z</time>
      </trkpt>
      <trkpt lat="50.42414" lon="3.44352">
        <ele>18.402343</ele>
        <time>2011-06-26T06:23:24Z</time>
      </trkpt>
      <trkpt lat="50.42436" lon="3.44379">
        <ele>15.037719</ele>
        <time>2011-06-26T06:23:29Z</time>
      </trkpt>
      <trkpt lat="50.42471" lon="3.44414">
        <ele>12.634399</ele>
        <time>2011-06-26T06:23:37Z</time>
      </trkpt>
      <trkpt lat="50.4248" lon="3.44423">
        <ele>12.634399</ele>
        <time>2011-06-26T06:23:39Z</time>
      </trkpt>
      <trkpt lat="50.42486" lon="3.44432">
        <ele>12.153808</ele>
        <time>2011-06-26T06:23:42Z</time>
      </trkpt>
      <trkpt lat="50.42491" lon="3.44434">
        <ele>12.634399</ele>
        <time>2011-06-26T06:23:48Z</time>
      </trkpt>
      <trkpt lat="50.42499" lon="3.4444">
        <ele>14.557006</ele>
        <time>2011-06-26T06:23:52Z</time>
      </trkpt>
      <trkpt lat="50.42516" lon="3.44435">
        <ele>16.479736</ele>
        <time>2011-06-26T06:23:56Z</time>
      </trkpt>
      <trkpt lat="50.4252" lon="3.44432">
        <ele>16.479736</ele>
        <time>2011-06-26T06:23:57Z</time>
      </trkpt>
      <trkpt lat="50.42551" lon="3.44397">
        <ele>16.960449</ele>
        <time>2011-06-26T06:24:05Z</time>
      </trkpt>
      <trkpt lat="50.42554" lon="3.44392">
        <ele>16.479736</ele>
        <time>2011-06-26T06:24:06Z</time>
      </trkpt>
      <trkpt lat="50.42569" lon="3.44388">
        <ele>17.441162</ele>
        <time>2011-06-26T06:24:10Z</time>
      </trkpt>
      <trkpt lat="50.42573" lon="3.44385">
        <ele>17.921752</ele>
        <time>2011-06-26T06:24:11Z</time>
      </trkpt>
      <trkpt lat="50.4258" lon="3.44377">
        <ele>18.883056</ele>
        <time>2011-06-26T06:24:13Z</time>
      </trkpt>
      <trkpt lat="50.42612" lon="3.44343">
        <ele>17.921752</ele>
        <time>2011-06-26T06:24:21Z</time>
      </trkpt>
      <trkpt lat="50.42619" lon="3.44335">
        <ele>18.883056</ele>
        <time>2011-06-26T06:24:23Z</time>
      </trkpt>
      <trkpt lat="50.4263" lon="3.44318">
        <ele>19.84436</ele>
        <time>2011-06-26T06:24:27Z</time>
      </trkpt>
      <trkpt lat="50.42641" lon="3.44308">
        <ele>21.286377</ele>
        <time>2011-06-26T06:24:30Z</time>
      </trkpt>
      <trkpt lat="50.42658" lon="3.44294">
        <ele>19.84436</ele>
        <time>2011-06-26T06:24:35Z</time>
      </trkpt>
      <trkpt lat="50.42666" lon="3.44288">
        <ele>19.84436</ele>
        <time>2011-06-26T06:24:37Z</time>
      </trkpt>
      <trkpt lat="50.42687" lon="3.44272">
        <ele>14.557006</ele>
        <time>2011-06-26T06:24:43Z</time>
      </trkpt>
      <trkpt lat="50.42694" lon="3.44266">
        <ele>15.037719</ele>
        <time>2011-06-26T06:24:45Z</time>
      </trkpt>
      <trkpt lat="50.42716" lon="3.44259">
        <ele>16.479736</ele>
        <time>2011-06-26T06:24:51Z</time>
      </trkpt>
      <trkpt lat="50.42725" lon="3.44266">
        <ele>17.441162</ele>
        <time>2011-06-26T06:24:53Z</time>
      </trkpt>
      <trkpt lat="50.42752" lon="3.44292">
        <ele>19.363769</ele>
        <time>2011-06-26T06:24:58Z</time>
      </trkpt>
      <trkpt lat="50.42754" lon="3.44315">
        <ele>21.286377</ele>
        <time>2011-06-26T06:25:02Z</time>
      </trkpt>
      <trkpt lat="50.42757" lon="3.44327">
        <ele>23.208984</ele>
        <time>2011-06-26T06:25:04Z</time>
      </trkpt>
      <trkpt lat="50.42758" lon="3.44339">
        <ele>24.170288</ele>
        <time>2011-06-26T06:25:06Z</time>
      </trkpt>
      <trkpt lat="50.42763" lon="3.44369">
        <ele>16.479736</ele>
        <time>2011-06-26T06:25:10Z</time>
      </trkpt>
      <trkpt lat="50.42767" lon="3.44388">
        <ele>15.999023</ele>
        <time>2011-06-26T06:25:13Z</time>
      </trkpt>
      <trkpt lat="50.42768" lon="3.4441">
        <ele>17.441162</ele>
        <time>2011-06-26T06:25:17Z</time>
      </trkpt>
      <trkpt lat="50.42765" lon="3.44407">
        <ele>21.286377</ele>
        <time>2011-06-26T06:25:21Z</time>
      </trkpt>
      <trkpt lat="50.42766" lon="3.44413">
        <ele>21.286377</ele>
        <time>2011-06-26T06:25:25Z</time>
      </trkpt>
      <trkpt lat="50.42764" lon="3.44414">
        <ele>21.766967</ele>
        <time>2011-06-26T06:25:29Z</time>
      </trkpt>
      <trkpt lat="50.42753" lon="3.44416">
        <ele>22.247558</ele>
        <time>2011-06-26T06:25:36Z</time>
      </trkpt>
      <trkpt lat="50.42734" lon="3.44423">
        <ele>22.728271</ele>
        <time>2011-06-26T06:25:39Z</time>
      </trkpt>
      <trkpt lat="50.42732" lon="3.44431">
        <ele>23.208984</ele>
        <time>2011-06-26T06:25:44Z</time>
      </trkpt>
      <trkpt lat="50.42732" lon="3.44436">
        <ele>23.208984</ele>
        <time>2011-06-26T06:25:46Z</time>
      </trkpt>
      <trkpt lat="50.42719" lon="3.44463">
        <ele>24.170288</ele>
        <time>2011-06-26T06:25:52Z</time>
      </trkpt>
      <trkpt lat="50.42709" lon="3.44484">
        <ele>26.092895</ele>
        <time>2011-06-26T06:25:56Z</time>
      </trkpt>
      <trkpt lat="50.42698" lon="3.44521">
        <ele>22.728271</ele>
        <time>2011-06-26T06:26:02Z</time>
      </trkpt>
      <trkpt lat="50.4268" lon="3.44564">
        <ele>26.573608</ele>
        <time>2011-06-26T06:26:07Z</time>
      </trkpt>
      <trkpt lat="50.42671" lon="3.44596">
        <ele>28.976928</ele>
        <time>2011-06-26T06:26:10Z</time>
      </trkpt>
      <trkpt lat="50.42656" lon="3.4464">
        <ele>26.092895</ele>
        <time>2011-06-26T06:26:14Z</time>
      </trkpt>
      <trkpt lat="50.42641" lon="3.44682">
        <ele>26.573608</ele>
        <time>2011-06-26T06:26:18Z</time>
      </trkpt>
      <trkpt lat="50.42645" lon="3.44699">
        <ele>27.534912</ele>
        <time>2011-06-26T06:26:21Z</time>
      </trkpt>
      <trkpt lat="50.42658" lon="3.44717">
        <ele>27.054321</ele>
        <time>2011-06-26T06:26:25Z</time>
      </trkpt>
      <trkpt lat="50.42672" lon="3.44731">
        <ele>25.612304</ele>
        <time>2011-06-26T06:26:28Z</time>
      </trkpt>
      <trkpt lat="50.42707" lon="3.44766">
        <ele>24.170288</ele>
        <time>2011-06-26T06:26:36Z</time>
      </trkpt>
      <trkpt lat="50.42712" lon="3.44771">
        <ele>23.689575</ele>
        <time>2011-06-26T06:26:37Z</time>
      </trkpt>
      <trkpt lat="50.42743" lon="3.448">
        <ele>23.208984</ele>
        <time>2011-06-26T06:26:43Z</time>
      </trkpt>
      <trkpt lat="50.42751" lon="3.44813">
        <ele>22.728271</ele>
        <time>2011-06-26T06:26:45Z</time>
      </trkpt>
      <trkpt lat="50.42773" lon="3.44839">
        <ele>21.286377</ele>
        <time>2011-06-26T06:26:50Z</time>
      </trkpt>
      <trkpt lat="50.42781" lon="3.44852">
        <ele>22.247558</ele>
        <time>2011-06-26T06:26:52Z</time>
      </trkpt>
      <trkpt lat="50.42789" lon="3.44863">
        <ele>21.766967</ele>
        <time>2011-06-26T06:26:54Z</time>
      </trkpt>
      <trkpt lat="50.428" lon="3.44887">
        <ele>19.84436</ele>
        <time>2011-06-26T06:26:58Z</time>
      </trkpt>
      <trkpt lat="50.42805" lon="3.44916">
        <ele>19.363769</ele>
        <time>2011-06-26T06:27:02Z</time>
      </trkpt>
      <trkpt lat="50.42805" lon="3.44951">
        <ele>19.84436</ele>
        <time>2011-06-26T06:27:07Z</time>
      </trkpt>
      <trkpt lat="50.42806" lon="3.44974">
        <ele>17.921752</ele>
        <time>2011-06-26T06:27:11Z</time>
      </trkpt>
      <trkpt lat="50.42813" lon="3.45006">
        <ele>22.728271</ele>
        <time>2011-06-26T06:27:15Z</time>
      </trkpt>
      <trkpt lat="50.42812" lon="3.45035">
        <ele>27.054321</ele>
        <time>2011-06-26T06:27:21Z</time>
      </trkpt>
      <trkpt lat="50.428" lon="3.45057">
        <ele>25.131713</ele>
        <time>2011-06-26T06:27:26Z</time>
      </trkpt>
      <trkpt lat="50.42789" lon="3.45079">
        <ele>27.534912</ele>
        <time>2011-06-26T06:27:30Z</time>
      </trkpt>
      <trkpt lat="50.42779" lon="3.45101">
        <ele>31.860717</ele>
        <time>2011-06-26T06:27:34Z</time>
      </trkpt>
      <trkpt lat="50.42773" lon="3.45113">
        <ele>35.225463</ele>
        <time>2011-06-26T06:27:36Z</time>
      </trkpt>
      <trkpt lat="50.42763" lon="3.45141">
        <ele>34.744873</ele>
        <time>2011-06-26T06:27:41Z</time>
      </trkpt>
      <trkpt lat="50.42758" lon="3.45153">
        <ele>35.706054</ele>
        <time>2011-06-26T06:27:43Z</time>
      </trkpt>
      <trkpt lat="50.4275" lon="3.45177">
        <ele>36.186767</ele>
        <time>2011-06-26T06:27:47Z</time>
      </trkpt>
      <trkpt lat="50.42734" lon="3.45213">
        <ele>37.628662</ele>
        <time>2011-06-26T06:27:53Z</time>
      </trkpt>
      <trkpt lat="50.42724" lon="3.45238">
        <ele>37.148071</ele>
        <time>2011-06-26T06:27:58Z</time>
      </trkpt>
      <trkpt lat="50.42712" lon="3.45267">
        <ele>37.628662</ele>
        <time>2011-06-26T06:28:04Z</time>
      </trkpt>
      <trkpt lat="50.42709" lon="3.45272">
        <ele>38.590087</ele>
        <time>2011-06-26T06:28:05Z</time>
      </trkpt>
      <trkpt lat="50.42699" lon="3.45301">
        <ele>39.070678</ele>
        <time>2011-06-26T06:28:10Z</time>
      </trkpt>
      <trkpt lat="50.42681" lon="3.45344">
        <ele>40.512817</ele>
        <time>2011-06-26T06:28:16Z</time>
      </trkpt>
      <trkpt lat="50.42665" lon="3.45378">
        <ele>37.628662</ele>
        <time>2011-06-26T06:28:21Z</time>
      </trkpt>
      <trkpt lat="50.42648" lon="3.45419">
        <ele>39.551269</ele>
        <time>2011-06-26T06:28:26Z</time>
      </trkpt>
      <trkpt lat="50.42635" lon="3.45447">
        <ele>41.473999</ele>
        <time>2011-06-26T06:28:30Z</time>
      </trkpt>
      <trkpt lat="50.42621" lon="3.45476">
        <ele>44.358032</ele>
        <time>2011-06-26T06:28:34Z</time>
      </trkpt>
      <trkpt lat="50.4261" lon="3.45503">
        <ele>46.76123</ele>
        <time>2011-06-26T06:28:38Z</time>
      </trkpt>
      <trkpt lat="50.42604" lon="3.45516">
        <ele>48.203369</ele>
        <time>2011-06-26T06:28:40Z</time>
      </trkpt>
      <trkpt lat="50.42599" lon="3.45527">
        <ele>50.125976</ele>
        <time>2011-06-26T06:28:42Z</time>
      </trkpt>
      <trkpt lat="50.42589" lon="3.45555">
        <ele>48.203369</ele>
        <time>2011-06-26T06:28:47Z</time>
      </trkpt>
      <trkpt lat="50.42583" lon="3.45575">
        <ele>49.645263</ele>
        <time>2011-06-26T06:28:51Z</time>
      </trkpt>
      <trkpt lat="50.42574" lon="3.45596">
        <ele>51.087158</ele>
        <time>2011-06-26T06:28:54Z</time>
      </trkpt>
      <trkpt lat="50.4256" lon="3.45627">
        <ele>52.529174</ele>
        <time>2011-06-26T06:28:59Z</time>
      </trkpt>
      <trkpt lat="50.42539" lon="3.4567">
        <ele>51.087158</ele>
        <time>2011-06-26T06:29:05Z</time>
      </trkpt>
      <trkpt lat="50.42535" lon="3.45676">
        <ele>51.087158</ele>
        <time>2011-06-26T06:29:06Z</time>
      </trkpt>
      <trkpt lat="50.4253" lon="3.45689">
        <ele>51.087158</ele>
        <time>2011-06-26T06:29:08Z</time>
      </trkpt>
      <trkpt lat="50.42519" lon="3.4572">
        <ele>53.971191</ele>
        <time>2011-06-26T06:29:13Z</time>
      </trkpt>
      <trkpt lat="50.42504" lon="3.45755">
        <ele>50.606567</ele>
        <time>2011-06-26T06:29:19Z</time>
      </trkpt>
      <trkpt lat="50.42498" lon="3.45772">
        <ele>48.203369</ele>
        <time>2011-06-26T06:29:22Z</time>
      </trkpt>
      <trkpt lat="50.42485" lon="3.45804">
        <ele>50.125976</ele>
        <time>2011-06-26T06:29:28Z</time>
      </trkpt>
      <trkpt lat="50.42483" lon="3.45809">
        <ele>51.567871</ele>
        <time>2011-06-26T06:29:29Z</time>
      </trkpt>
      <trkpt lat="50.42477" lon="3.45825">
        <ele>53.490478</ele>
        <time>2011-06-26T06:29:32Z</time>
      </trkpt>
      <trkpt lat="50.42468" lon="3.45833">
        <ele>52.048584</ele>
        <time>2011-06-26T06:29:37Z</time>
      </trkpt>
      <trkpt lat="50.42461" lon="3.45835">
        <ele>47.722534</ele>
        <time>2011-06-26T06:29:42Z</time>
      </trkpt>
      <trkpt lat="50.42455" lon="3.4585">
        <ele>47.722534</ele>
        <time>2011-06-26T06:29:46Z</time>
      </trkpt>
      <trkpt lat="50.42447" lon="3.45873">
        <ele>42.435424</ele>
        <time>2011-06-26T06:29:51Z</time>
      </trkpt>
      <trkpt lat="50.42446" lon="3.45878">
        <ele>40.993408</ele>
        <time>2011-06-26T06:29:52Z</time>
      </trkpt>
      <trkpt lat="50.4244" lon="3.45899">
        <ele>43.877319</ele>
        <time>2011-06-26T06:29:57Z</time>
      </trkpt>
      <trkpt lat="50.42432" lon="3.45919">
        <ele>45.319213</ele>
        <time>2011-06-26T06:30:02Z</time>
      </trkpt>
      <trkpt lat="50.42428" lon="3.45936">
        <ele>45.799926</ele>
        <time>2011-06-26T06:30:07Z</time>
      </trkpt>
      <trkpt lat="50.42423" lon="3.45953">
        <ele>47.241821</ele>
        <time>2011-06-26T06:30:13Z</time>
      </trkpt>
      <trkpt lat="50.42416" lon="3.45967">
        <ele>49.16455</ele>
        <time>2011-06-26T06:30:18Z</time>
      </trkpt>
      <trkpt lat="50.42413" lon="3.45982">
        <ele>53.490478</ele>
        <time>2011-06-26T06:30:23Z</time>
      </trkpt>
      <trkpt lat="50.4241" lon="3.4599">
        <ele>53.490478</ele>
        <time>2011-06-26T06:30:25Z</time>
      </trkpt>
      <trkpt lat="50.42407" lon="3.46004">
        <ele>53.009765</ele>
        <time>2011-06-26T06:30:30Z</time>
      </trkpt>
      <trkpt lat="50.42408" lon="3.45999">
        <ele>51.567871</ele>
        <time>2011-06-26T06:30:35Z</time>
      </trkpt>
      <trkpt lat="50.42407" lon="3.45999">
        <ele>49.16455</ele>
        <time>2011-06-26T06:30:39Z</time>
      </trkpt>
      <trkpt lat="50.42398" lon="3.46018">
        <ele>51.087158</ele>
        <time>2011-06-26T06:30:45Z</time>
      </trkpt>
      <trkpt lat="50.42395" lon="3.46039">
        <ele>49.645263</ele>
        <time>2011-06-26T06:30:49Z</time>
      </trkpt>
      <trkpt lat="50.424" lon="3.46048">
        <ele>50.125976</ele>
        <time>2011-06-26T06:30:52Z</time>
      </trkpt>
      <trkpt lat="50.42418" lon="3.46062">
        <ele>55.413085</ele>
        <time>2011-06-26T06:30:56Z</time>
      </trkpt>
      <trkpt lat="50.42451" lon="3.46089">
        <ele>58.297119</ele>
        <time>2011-06-26T06:31:00Z</time>
      </trkpt>
      <trkpt lat="50.42482" lon="3.4611">
        <ele>56.855102</ele>
        <time>2011-06-26T06:31:05Z</time>
      </trkpt>
      <trkpt lat="50.42487" lon="3.46117">
        <ele>52.048584</ele>
        <time>2011-06-26T06:31:08Z</time>
      </trkpt>
      <trkpt lat="50.42479" lon="3.46129">
        <ele>45.319213</ele>
        <time>2011-06-26T06:31:12Z</time>
      </trkpt>
      <trkpt lat="50.42461" lon="3.46143">
        <ele>41.954711</ele>
        <time>2011-06-26T06:31:17Z</time>
      </trkpt>
      <trkpt lat="50.42447" lon="3.46156">
        <ele>38.590087</ele>
        <time>2011-06-26T06:31:21Z</time>
      </trkpt>
      <trkpt lat="50.42439" lon="3.46162">
        <ele>39.070678</ele>
        <time>2011-06-26T06:31:23Z</time>
      </trkpt>
      <trkpt lat="50.42423" lon="3.46174">
        <ele>35.706054</ele>
        <time>2011-06-26T06:31:27Z</time>
      </trkpt>
      <trkpt lat="50.4241" lon="3.46187">
        <ele>33.302856</ele>
        <time>2011-06-26T06:31:31Z</time>
      </trkpt>
      <trkpt lat="50.42399" lon="3.46195">
        <ele>31.860717</ele>
        <time>2011-06-26T06:31:34Z</time>
      </trkpt>
      <trkpt lat="50.42374" lon="3.46216">
        <ele>31.380127</ele>
        <time>2011-06-26T06:31:41Z</time>
      </trkpt>
      <trkpt lat="50.42367" lon="3.46223">
        <ele>30.418823</ele>
        <time>2011-06-26T06:31:43Z</time>
      </trkpt>
      <trkpt lat="50.4235" lon="3.46241">
        <ele>34.26416</ele>
        <time>2011-06-26T06:31:49Z</time>
      </trkpt>
      <trkpt lat="50.42347" lon="3.46243">
        <ele>34.26416</ele>
        <time>2011-06-26T06:31:50Z</time>
      </trkpt>
      <trkpt lat="50.42328" lon="3.46258">
        <ele>35.706054</ele>
        <time>2011-06-26T06:31:55Z</time>
      </trkpt>
      <trkpt lat="50.4232" lon="3.46264">
        <ele>35.225463</ele>
        <time>2011-06-26T06:31:57Z</time>
      </trkpt>
      <trkpt lat="50.4231" lon="3.46278">
        <ele>35.706054</ele>
        <time>2011-06-26T06:32:00Z</time>
      </trkpt>
      <trkpt lat="50.42319" lon="3.46286">
        <ele>37.148071</ele>
        <time>2011-06-26T06:32:04Z</time>
      </trkpt>
      <trkpt lat="50.42347" lon="3.46296">
        <ele>39.070678</ele>
        <time>2011-06-26T06:32:09Z</time>
      </trkpt>
      <trkpt lat="50.42382" lon="3.46314">
        <ele>41.954711</ele>
        <time>2011-06-26T06:32:14Z</time>
      </trkpt>
      <trkpt lat="50.42403" lon="3.46327">
        <ele>42.435424</ele>
        <time>2011-06-26T06:32:17Z</time>
      </trkpt>
      <trkpt lat="50.4243" lon="3.46347">
        <ele>48.203369</ele>
        <time>2011-06-26T06:32:21Z</time>
      </trkpt>
      <trkpt lat="50.4245" lon="3.46353">
        <ele>49.16455</ele>
        <time>2011-06-26T06:32:23Z</time>
      </trkpt>
      <trkpt lat="50.42474" lon="3.46365">
        <ele>45.799926</ele>
        <time>2011-06-26T06:32:26Z</time>
      </trkpt>
      <trkpt lat="50.42493" lon="3.46377">
        <ele>42.435424</ele>
        <time>2011-06-26T06:32:29Z</time>
      </trkpt>
      <trkpt lat="50.42519" lon="3.46394">
        <ele>35.225463</ele>
        <time>2011-06-26T06:32:34Z</time>
      </trkpt>
      <trkpt lat="50.42522" lon="3.46424">
        <ele>29.457519</ele>
        <time>2011-06-26T06:32:38Z</time>
      </trkpt>
      <trkpt lat="50.42516" lon="3.46449">
        <ele>26.092895</ele>
        <time>2011-06-26T06:32:41Z</time>
      </trkpt>
      <trkpt lat="50.42511" lon="3.46467">
        <ele>25.131713</ele>
        <time>2011-06-26T06:32:43Z</time>
      </trkpt>
      <trkpt lat="50.42495" lon="3.46525">
        <ele>25.612304</ele>
        <time>2011-06-26T06:32:49Z</time>
      </trkpt>
      <trkpt lat="50.42484" lon="3.46569">
        <ele>26.092895</ele>
        <time>2011-06-26T06:32:54Z</time>
      </trkpt>
      <trkpt lat="50.42473" lon="3.46625">
        <ele>21.286377</ele>
        <time>2011-06-26T06:33:00Z</time>
      </trkpt>
      <trkpt lat="50.4247" lon="3.46644">
        <ele>23.689575</ele>
        <time>2011-06-26T06:33:02Z</time>
      </trkpt>
      <trkpt lat="50.42459" lon="3.46692">
        <ele>23.208984</ele>
        <time>2011-06-26T06:33:07Z</time>
      </trkpt>
      <trkpt lat="50.42453" lon="3.46722">
        <ele>24.651001</ele>
        <time>2011-06-26T06:33:10Z</time>
      </trkpt>
      <trkpt lat="50.42443" lon="3.46772">
        <ele>26.092895</ele>
        <time>2011-06-26T06:33:15Z</time>
      </trkpt>
      <trkpt lat="50.42441" lon="3.46783">
        <ele>27.054321</ele>
        <time>2011-06-26T06:33:16Z</time>
      </trkpt>
      <trkpt lat="50.42431" lon="3.46815">
        <ele>28.976928</ele>
        <time>2011-06-26T06:33:19Z</time>
      </trkpt>
      <trkpt lat="50.42416" lon="3.46883">
        <ele>38.109375</ele>
        <time>2011-06-26T06:33:26Z</time>
      </trkpt>
      <trkpt lat="50.42414" lon="3.46901">
        <ele>38.590087</ele>
        <time>2011-06-26T06:33:28Z</time>
      </trkpt>
      <trkpt lat="50.42407" lon="3.46923">
        <ele>38.590087</ele>
        <time>2011-06-26T06:33:31Z</time>
      </trkpt>
      <trkpt lat="50.42401" lon="3.46943">
        <ele>41.473999</ele>
        <time>2011-06-26T06:33:35Z</time>
      </trkpt>
      <trkpt lat="50.42398" lon="3.46969">
        <ele>45.799926</ele>
        <time>2011-06-26T06:33:41Z</time>
      </trkpt>
      <trkpt lat="50.42395" lon="3.46991">
        <ele>43.396606</ele>
        <time>2011-06-26T06:33:46Z</time>
      </trkpt>
      <trkpt lat="50.42389" lon="3.47018">
        <ele>42.916015</ele>
        <time>2011-06-26T06:33:51Z</time>
      </trkpt>
      <trkpt lat="50.42381" lon="3.47053">
        <ele>41.954711</ele>
        <time>2011-06-26T06:33:56Z</time>
      </trkpt>
      <trkpt lat="50.42379" lon="3.4706">
        <ele>41.954711</ele>
        <time>2011-06-26T06:33:57Z</time>
      </trkpt>
      <trkpt lat="50.42373" lon="3.47092">
        <ele>39.070678</ele>
        <time>2011-06-26T06:34:01Z</time>
      </trkpt>
      <trkpt lat="50.42369" lon="3.47108">
        <ele>40.032104</ele>
        <time>2011-06-26T06:34:03Z</time>
      </trkpt>
      <trkpt lat="50.42366" lon="3.47133">
        <ele>42.916015</ele>
        <time>2011-06-26T06:34:06Z</time>
      </trkpt>
      <trkpt lat="50.42357" lon="3.47166">
        <ele>40.032104</ele>
        <time>2011-06-26T06:34:10Z</time>
      </trkpt>
      <trkpt lat="50.42342" lon="3.4721">
        <ele>41.473999</ele>
        <time>2011-06-26T06:34:15Z</time>
      </trkpt>
      <trkpt lat="50.42333" lon="3.4724">
        <ele>49.16455</ele>
        <time>2011-06-26T06:34:18Z</time>
      </trkpt>
      <trkpt lat="50.42321" lon="3.47284">
        <ele>57.816528</ele>
        <time>2011-06-26T06:34:23Z</time>
      </trkpt>
      <trkpt lat="50.42309" lon="3.47326">
        <ele>64.065063</ele>
        <time>2011-06-26T06:34:29Z</time>
      </trkpt>
      <trkpt lat="50.42306" lon="3.47344">
        <ele>66.468261</ele>
        <time>2011-06-26T06:34:32Z</time>
      </trkpt>
      <trkpt lat="50.42303" lon="3.47361">
        <ele>67.910278</ele>
        <time>2011-06-26T06:34:35Z</time>
      </trkpt>
      <trkpt lat="50.42301" lon="3.47389">
        <ele>70.794189</ele>
        <time>2011-06-26T06:34:41Z</time>
      </trkpt>
      <trkpt lat="50.42291" lon="3.47422">
        <ele>70.313476</ele>
        <time>2011-06-26T06:34:47Z</time>
      </trkpt>
      <trkpt lat="50.42289" lon="3.47434">
        <ele>64.545654</ele>
        <time>2011-06-26T06:34:49Z</time>
      </trkpt>
      <trkpt lat="50.4229" lon="3.47458">
        <ele>56.855102</ele>
        <time>2011-06-26T06:34:54Z</time>
      </trkpt>
      <trkpt lat="50.42293" lon="3.4747">
        <ele>55.413085</ele>
        <time>2011-06-26T06:34:56Z</time>
      </trkpt>
      <trkpt lat="50.42301" lon="3.47523">
        <ele>39.070678</ele>
        <time>2011-06-26T06:35:02Z</time>
      </trkpt>
      <trkpt lat="50.42302" lon="3.47538">
        <ele>37.148071</ele>
        <time>2011-06-26T06:35:04Z</time>
      </trkpt>
      <trkpt lat="50.42308" lon="3.47557">
        <ele>34.744873</ele>
        <time>2011-06-26T06:35:09Z</time>
      </trkpt>
      <trkpt lat="50.42311" lon="3.47577">
        <ele>27.534912</ele>
        <time>2011-06-26T06:35:14Z</time>
      </trkpt>
      <trkpt lat="50.42314" lon="3.47594">
        <ele>25.131713</ele>
        <time>2011-06-26T06:35:18Z</time>
      </trkpt>
      <trkpt lat="50.42323" lon="3.47622">
        <ele>24.170288</ele>
        <time>2011-06-26T06:35:23Z</time>
      </trkpt>
      <trkpt lat="50.42337" lon="3.47644">
        <ele>26.092895</ele>
        <time>2011-06-26T06:35:28Z</time>
      </trkpt>
      <trkpt lat="50.42354" lon="3.47661">
        <ele>29.93811</ele>
        <time>2011-06-26T06:35:32Z</time>
      </trkpt>
      <trkpt lat="50.42367" lon="3.47673">
        <ele>30.418823</ele>
        <time>2011-06-26T06:35:35Z</time>
      </trkpt>
      <trkpt lat="50.42384" lon="3.47694">
        <ele>30.418823</ele>
        <time>2011-06-26T06:35:40Z</time>
      </trkpt>
      <trkpt lat="50.42389" lon="3.47706">
        <ele>30.899536</ele>
        <time>2011-06-26T06:35:42Z</time>
      </trkpt>
      <trkpt lat="50.42408" lon="3.47735">
        <ele>32.822265</ele>
        <time>2011-06-26T06:35:48Z</time>
      </trkpt>
      <trkpt lat="50.4243" lon="3.47772">
        <ele>37.628662</ele>
        <time>2011-06-26T06:35:54Z</time>
      </trkpt>
      <trkpt lat="50.4245" lon="3.47791">
        <ele>41.473999</ele>
        <time>2011-06-26T06:35:58Z</time>
      </trkpt>
      <trkpt lat="50.42472" lon="3.47811">
        <ele>38.590087</ele>
        <time>2011-06-26T06:36:02Z</time>
      </trkpt>
      <trkpt lat="50.42484" lon="3.4782">
        <ele>38.590087</ele>
        <time>2011-06-26T06:36:04Z</time>
      </trkpt>
      <trkpt lat="50.42493" lon="3.47829">
        <ele>33.302856</ele>
        <time>2011-06-26T06:36:06Z</time>
      </trkpt>
      <trkpt lat="50.42508" lon="3.47852">
        <ele>31.380127</ele>
        <time>2011-06-26T06:36:10Z</time>
      </trkpt>
      <trkpt lat="50.42525" lon="3.47871">
        <ele>30.418823</ele>
        <time>2011-06-26T06:36:15Z</time>
      </trkpt>
      <trkpt lat="50.4253" lon="3.47873">
        <ele>30.418823</ele>
        <time>2011-06-26T06:36:16Z</time>
      </trkpt>
      <trkpt lat="50.42545" lon="3.47883">
        <ele>28.976928</ele>
        <time>2011-06-26T06:36:19Z</time>
      </trkpt>
      <trkpt lat="50.42564" lon="3.47892">
        <ele>26.573608</ele>
        <time>2011-06-26T06:36:23Z</time>
      </trkpt>
      <trkpt lat="50.42573" lon="3.47915">
        <ele>21.766967</ele>
        <time>2011-06-26T06:36:27Z</time>
      </trkpt>
      <trkpt lat="50.42566" lon="3.47932">
        <ele>21.286377</ele>
        <time>2011-06-26T06:36:30Z</time>
      </trkpt>
      <trkpt lat="50.42564" lon="3.47944">
        <ele>22.728271</ele>
        <time>2011-06-26T06:36:32Z</time>
      </trkpt>
      <trkpt lat="50.4256" lon="3.47967">
        <ele>28.496215</ele>
        <time>2011-06-26T06:36:35Z</time>
      </trkpt>
      <trkpt lat="50.42561" lon="3.48006">
        <ele>28.496215</ele>
        <time>2011-06-26T06:36:40Z</time>
      </trkpt>
      <trkpt lat="50.42561" lon="3.48021">
        <ele>28.496215</ele>
        <time>2011-06-26T06:36:44Z</time>
      </trkpt>
      <trkpt lat="50.42562" lon="3.48026">
        <ele>26.573608</ele>
        <time>2011-06-26T06:36:46Z</time>
      </trkpt>
      <trkpt lat="50.42551" lon="3.48036">
        <ele>21.286377</ele>
        <time>2011-06-26T06:36:51Z</time>
      </trkpt>
      <trkpt lat="50.42546" lon="3.48053">
        <ele>17.921752</ele>
        <time>2011-06-26T06:36:55Z</time>
      </trkpt>
      <trkpt lat="50.42543" lon="3.48058">
        <ele>17.921752</ele>
        <time>2011-06-26T06:36:56Z</time>
      </trkpt>
      <trkpt lat="50.42536" lon="3.48081">
        <ele>17.441162</ele>
        <time>2011-06-26T06:37:02Z</time>
      </trkpt>
      <trkpt lat="50.4253" lon="3.48093">
        <ele>18.883056</ele>
        <time>2011-06-26T06:37:07Z</time>
      </trkpt>
      <trkpt lat="50.42529" lon="3.48095">
        <ele>19.84436</ele>
        <time>2011-06-26T06:37:08Z</time>
      </trkpt>
      <trkpt lat="50.42525" lon="3.48101">
        <ele>24.651001</ele>
        <time>2011-06-26T06:37:16Z</time>
      </trkpt>
      <trkpt lat="50.42524" lon="3.48102">
        <ele>25.131713</ele>
        <time>2011-06-26T06:37:18Z</time>
      </trkpt>
      <trkpt lat="50.42527" lon="3.48102">
        <ele>15.518432</ele>
        <time>2011-06-26T06:37:57Z</time>
      </trkpt>
      <trkpt lat="50.42527" lon="3.48103">
        <ele>15.518432</ele>
        <time>2011-06-26T06:37:58Z</time>
      </trkpt>
      <trkpt lat="50.42533" lon="3.48107">
        <ele>26.092895</ele>
        <time>2011-06-26T06:40:33Z</time>
      </trkpt>
      <trkpt lat="50.42534" lon="3.48107">
        <ele>26.573608</ele>
        <time>2011-06-26T06:40:34Z</time>
      </trkpt>
      <trkpt lat="50.42528" lon="3.48106">
        <ele>22.247558</ele>
        <time>2011-06-26T06:40:58Z</time>
      </trkpt>
      <trkpt lat="50.42529" lon="3.48103">
        <ele>29.457519</ele>
        <time>2011-06-26T06:41:10Z</time>
      </trkpt>
      <trkpt lat="50.42533" lon="3.48102">
        <ele>34.744873</ele>
        <time>2011-06-26T06:41:18Z</time>
      </trkpt>
      <trkpt lat="50.42518" lon="3.48117">
        <ele>26.573608</ele>
        <time>2011-06-26T06:43:35Z</time>
      </trkpt>
      <trkpt lat="50.42512" lon="3.48141">
        <ele>25.612304</ele>
        <time>2011-06-26T06:43:40Z</time>
      </trkpt>
      <trkpt lat="50.42505" lon="3.48164">
        <ele>28.496215</ele>
        <time>2011-06-26T06:43:45Z</time>
      </trkpt>
      <trkpt lat="50.42508" lon="3.48182">
        <ele>31.380127</ele>
        <time>2011-06-26T06:43:50Z</time>
      </trkpt>
      <trkpt lat="50.42521" lon="3.48182">
        <ele>31.860717</ele>
        <time>2011-06-26T06:43:53Z</time>
      </trkpt>
      <trkpt lat="50.42535" lon="3.48194">
        <ele>29.93811</ele>
        <time>2011-06-26T06:43:56Z</time>
      </trkpt>
      <trkpt lat="50.42541" lon="3.48219">
        <ele>29.457519</ele>
        <time>2011-06-26T06:44:00Z</time>
      </trkpt>
      <trkpt lat="50.42543" lon="3.48232">
        <ele>28.496215</ele>
        <time>2011-06-26T06:44:02Z</time>
      </trkpt>
      <trkpt lat="50.42544" lon="3.48265">
        <ele>28.496215</ele>
        <time>2011-06-26T06:44:07Z</time>
      </trkpt>
      <trkpt lat="50.42542" lon="3.48297">
        <ele>29.457519</ele>
        <time>2011-06-26T06:44:12Z</time>
      </trkpt>
      <trkpt lat="50.42536" lon="3.48325">
        <ele>26.573608</ele>
        <time>2011-06-26T06:44:16Z</time>
      </trkpt>
      <trkpt lat="50.42529" lon="3.48351">
        <ele>27.534912</ele>
        <time>2011-06-26T06:44:20Z</time>
      </trkpt>
      <trkpt lat="50.42526" lon="3.48362">
        <ele>29.457519</ele>
        <time>2011-06-26T06:44:22Z</time>
      </trkpt>
      <trkpt lat="50.42522" lon="3.48376">
        <ele>31.380127</ele>
        <time>2011-06-26T06:44:24Z</time>
      </trkpt>
      <trkpt lat="50.42518" lon="3.48391">
        <ele>34.26416</ele>
        <time>2011-06-26T06:44:26Z</time>
      </trkpt>
      <trkpt lat="50.42514" lon="3.48406">
        <ele>35.225463</ele>
        <time>2011-06-26T06:44:28Z</time>
      </trkpt>
      <trkpt lat="50.42511" lon="3.48446">
        <ele>36.186767</ele>
        <time>2011-06-26T06:44:33Z</time>
      </trkpt>
      <trkpt lat="50.4251" lon="3.48462">
        <ele>40.032104</ele>
        <time>2011-06-26T06:44:35Z</time>
      </trkpt>
      <trkpt lat="50.42506" lon="3.48487">
        <ele>43.396606</ele>
        <time>2011-06-26T06:44:38Z</time>
      </trkpt>
      <trkpt lat="50.425" lon="3.4851">
        <ele>46.280639</ele>
        <time>2011-06-26T06:44:41Z</time>
      </trkpt>
      <trkpt lat="50.42487" lon="3.48549">
        <ele>50.125976</ele>
        <time>2011-06-26T06:44:46Z</time>
      </trkpt>
      <trkpt lat="50.42483" lon="3.48563">
        <ele>51.087158</ele>
        <time>2011-06-26T06:44:48Z</time>
      </trkpt>
      <trkpt lat="50.42467" lon="3.48605">
        <ele>53.490478</ele>
        <time>2011-06-26T06:44:54Z</time>
      </trkpt>
      <trkpt lat="50.42464" lon="3.48611">
        <ele>53.971191</ele>
        <time>2011-06-26T06:44:55Z</time>
      </trkpt>
      <trkpt lat="50.42461" lon="3.48646">
        <ele>53.009765</ele>
        <time>2011-06-26T06:44:59Z</time>
      </trkpt>
      <trkpt lat="50.42474" lon="3.48701">
        <ele>42.435424</ele>
        <time>2011-06-26T06:45:05Z</time>
      </trkpt>
      <trkpt lat="50.42483" lon="3.48738">
        <ele>39.551269</ele>
        <time>2011-06-26T06:45:09Z</time>
      </trkpt>
      <trkpt lat="50.42484" lon="3.48778">
        <ele>32.341552</ele>
        <time>2011-06-26T06:45:13Z</time>
      </trkpt>
      <trkpt lat="50.42482" lon="3.48801">
        <ele>34.26416</ele>
        <time>2011-06-26T06:45:16Z</time>
      </trkpt>
      <trkpt lat="50.42464" lon="3.48836">
        <ele>43.877319</ele>
        <time>2011-06-26T06:45:21Z</time>
      </trkpt>
      <trkpt lat="50.42458" lon="3.48851">
        <ele>42.435424</ele>
        <time>2011-06-26T06:45:23Z</time>
      </trkpt>
      <trkpt lat="50.42447" lon="3.48874">
        <ele>41.954711</ele>
        <time>2011-06-26T06:45:26Z</time>
      </trkpt>
      <trkpt lat="50.4243" lon="3.48915">
        <ele>40.993408</ele>
        <time>2011-06-26T06:45:31Z</time>
      </trkpt>
      <trkpt lat="50.42406" lon="3.48952">
        <ele>46.76123</ele>
        <time>2011-06-26T06:45:37Z</time>
      </trkpt>
      <trkpt lat="50.42398" lon="3.48965">
        <ele>49.16455</ele>
        <time>2011-06-26T06:45:39Z</time>
      </trkpt>
      <trkpt lat="50.42381" lon="3.48996">
        <ele>47.722534</ele>
        <time>2011-06-26T06:45:43Z</time>
      </trkpt>
      <trkpt lat="50.42364" lon="3.49023">
        <ele>41.954711</ele>
        <time>2011-06-26T06:45:47Z</time>
      </trkpt>
      <trkpt lat="50.42338" lon="3.49053">
        <ele>42.435424</ele>
        <time>2011-06-26T06:45:53Z</time>
      </trkpt>
      <trkpt lat="50.42326" lon="3.49069">
        <ele>40.993408</ele>
        <time>2011-06-26T06:45:56Z</time>
      </trkpt>
      <trkpt lat="50.42318" lon="3.49082">
        <ele>42.916015</ele>
        <time>2011-06-26T06:45:58Z</time>
      </trkpt>
      <trkpt lat="50.42293" lon="3.49129">
        <ele>40.993408</ele>
        <time>2011-06-26T06:46:05Z</time>
      </trkpt>
      <trkpt lat="50.4228" lon="3.49159">
        <ele>45.799926</ele>
        <time>2011-06-26T06:46:09Z</time>
      </trkpt>
      <trkpt lat="50.42261" lon="3.49202">
        <ele>46.280639</ele>
        <time>2011-06-26T06:46:15Z</time>
      </trkpt>
      <trkpt lat="50.42258" lon="3.49209">
        <ele>46.76123</ele>
        <time>2011-06-26T06:46:16Z</time>
      </trkpt>
      <trkpt lat="50.42246" lon="3.4923">
        <ele>47.722534</ele>
        <time>2011-06-26T06:46:19Z</time>
      </trkpt>
      <trkpt lat="50.42255" lon="3.49257">
        <ele>48.203369</ele>
        <time>2011-06-26T06:46:23Z</time>
      </trkpt>
      <trkpt lat="50.42275" lon="3.49278">
        <ele>44.358032</ele>
        <time>2011-06-26T06:46:27Z</time>
      </trkpt>
      <trkpt lat="50.42297" lon="3.49311">
        <ele>40.512817</ele>
        <time>2011-06-26T06:46:32Z</time>
      </trkpt>
      <trkpt lat="50.42311" lon="3.49329">
        <ele>38.590087</ele>
        <time>2011-06-26T06:46:35Z</time>
      </trkpt>
      <trkpt lat="50.42319" lon="3.49346">
        <ele>35.706054</ele>
        <time>2011-06-26T06:46:38Z</time>
      </trkpt>
      <trkpt lat="50.42316" lon="3.49372">
        <ele>32.822265</ele>
        <time>2011-06-26T06:46:42Z</time>
      </trkpt>
      <trkpt lat="50.42312" lon="3.49399">
        <ele>33.783447</ele>
        <time>2011-06-26T06:46:45Z</time>
      </trkpt>
      <trkpt lat="50.42305" lon="3.49452">
        <ele>33.783447</ele>
        <time>2011-06-26T06:46:51Z</time>
      </trkpt>
      <trkpt lat="50.42298" lon="3.49498">
        <ele>36.186767</ele>
        <time>2011-06-26T06:46:56Z</time>
      </trkpt>
      <trkpt lat="50.4229" lon="3.49547">
        <ele>40.993408</ele>
        <time>2011-06-26T06:47:01Z</time>
      </trkpt>
      <trkpt lat="50.42277" lon="3.49598">
        <ele>44.838623</ele>
        <time>2011-06-26T06:47:07Z</time>
      </trkpt>
      <trkpt lat="50.42268" lon="3.49635">
        <ele>47.241821</ele>
        <time>2011-06-26T06:47:11Z</time>
      </trkpt>
      <trkpt lat="50.42265" lon="3.49676">
        <ele>46.280639</ele>
        <time>2011-06-26T06:47:16Z</time>
      </trkpt>
      <trkpt lat="50.4227" lon="3.49738">
        <ele>43.396606</ele>
        <time>2011-06-26T06:47:23Z</time>
      </trkpt>
      <trkpt lat="50.4227" lon="3.49766">
        <ele>39.070678</ele>
        <time>2011-06-26T06:47:26Z</time>
      </trkpt>
      <trkpt lat="50.42276" lon="3.49812">
        <ele>41.473999</ele>
        <time>2011-06-26T06:47:31Z</time>
      </trkpt>
      <trkpt lat="50.42277" lon="3.49821">
        <ele>41.473999</ele>
        <time>2011-06-26T06:47:32Z</time>
      </trkpt>
      <trkpt lat="50.42291" lon="3.49826">
        <ele>39.551269</ele>
        <time>2011-06-26T06:47:35Z</time>
      </trkpt>
      <trkpt lat="50.42309" lon="3.49818">
        <ele>36.186767</ele>
        <time>2011-06-26T06:47:39Z</time>
      </trkpt>
      <trkpt lat="50.42315" lon="3.49816">
        <ele>35.706054</ele>
        <time>2011-06-26T06:47:40Z</time>
      </trkpt>
      <trkpt lat="50.42361" lon="3.49796">
        <ele>31.860717</ele>
        <time>2011-06-26T06:47:48Z</time>
      </trkpt>
      <trkpt lat="50.42402" lon="3.49779">
        <ele>28.976928</ele>
        <time>2011-06-26T06:47:55Z</time>
      </trkpt>
      <trkpt lat="50.42438" lon="3.49765">
        <ele>27.534912</ele>
        <time>2011-06-26T06:48:01Z</time>
      </trkpt>
      <trkpt lat="50.4245" lon="3.4976">
        <ele>27.534912</ele>
        <time>2011-06-26T06:48:03Z</time>
      </trkpt>
      <trkpt lat="50.42463" lon="3.49756">
        <ele>27.054321</ele>
        <time>2011-06-26T06:48:05Z</time>
      </trkpt>
      <trkpt lat="50.4248" lon="3.49747">
        <ele>26.573608</ele>
        <time>2011-06-26T06:48:08Z</time>
      </trkpt>
      <trkpt lat="50.42513" lon="3.49733">
        <ele>28.015502</ele>
        <time>2011-06-26T06:48:14Z</time>
      </trkpt>
      <trkpt lat="50.42543" lon="3.49719">
        <ele>28.976928</ele>
        <time>2011-06-26T06:48:19Z</time>
      </trkpt>
      <trkpt lat="50.42549" lon="3.49716">
        <ele>29.457519</ele>
        <time>2011-06-26T06:48:20Z</time>
      </trkpt>
      <trkpt lat="50.42589" lon="3.49697">
        <ele>31.860717</ele>
        <time>2011-06-26T06:48:27Z</time>
      </trkpt>
      <trkpt lat="50.42619" lon="3.49684">
        <ele>31.860717</ele>
        <time>2011-06-26T06:48:32Z</time>
      </trkpt>
      <trkpt lat="50.42654" lon="3.49671">
        <ele>31.380127</ele>
        <time>2011-06-26T06:48:38Z</time>
      </trkpt>
      <trkpt lat="50.42685" lon="3.49656">
        <ele>28.496215</ele>
        <time>2011-06-26T06:48:43Z</time>
      </trkpt>
      <trkpt lat="50.42691" lon="3.49652">
        <ele>28.496215</ele>
        <time>2011-06-26T06:48:44Z</time>
      </trkpt>
      <trkpt lat="50.42724" lon="3.49634">
        <ele>28.015502</ele>
        <time>2011-06-26T06:48:49Z</time>
      </trkpt>
      <trkpt lat="50.42753" lon="3.49621">
        <ele>28.015502</ele>
        <time>2011-06-26T06:48:54Z</time>
      </trkpt>
      <trkpt lat="50.42775" lon="3.49628">
        <ele>29.457519</ele>
        <time>2011-06-26T06:48:58Z</time>
      </trkpt>
      <trkpt lat="50.4278" lon="3.49652">
        <ele>28.496215</ele>
        <time>2011-06-26T06:49:01Z</time>
      </trkpt>
      <trkpt lat="50.4279" lon="3.49723">
        <ele>27.534912</ele>
        <time>2011-06-26T06:49:09Z</time>
      </trkpt>
      <trkpt lat="50.42802" lon="3.49803">
        <ele>27.534912</ele>
        <time>2011-06-26T06:49:18Z</time>
      </trkpt>
      <trkpt lat="50.42814" lon="3.49875">
        <ele>28.015502</ele>
        <time>2011-06-26T06:49:26Z</time>
      </trkpt>
      <trkpt lat="50.42826" lon="3.49955">
        <ele>28.015502</ele>
        <time>2011-06-26T06:49:35Z</time>
      </trkpt>
      <trkpt lat="50.42837" lon="3.50021">
        <ele>28.496215</ele>
        <time>2011-06-26T06:49:42Z</time>
      </trkpt>
      <trkpt lat="50.42846" lon="3.50087">
        <ele>28.496215</ele>
        <time>2011-06-26T06:49:49Z</time>
      </trkpt>
      <trkpt lat="50.42851" lon="3.50124">
        <ele>28.015502</ele>
        <time>2011-06-26T06:49:54Z</time>
      </trkpt>
      <trkpt lat="50.4286" lon="3.50145">
        <ele>30.418823</ele>
        <time>2011-06-26T06:49:59Z</time>
      </trkpt>
      <trkpt lat="50.42869" lon="3.50139">
        <ele>29.93811</ele>
        <time>2011-06-26T06:50:01Z</time>
      </trkpt>
      <trkpt lat="50.42887" lon="3.50127">
        <ele>31.380127</ele>
        <time>2011-06-26T06:50:05Z</time>
      </trkpt>
      <trkpt lat="50.42903" lon="3.5012">
        <ele>31.380127</ele>
        <time>2011-06-26T06:50:10Z</time>
      </trkpt>
      <trkpt lat="50.42915" lon="3.50114">
        <ele>32.822265</ele>
        <time>2011-06-26T06:50:15Z</time>
      </trkpt>
      <trkpt lat="50.42918" lon="3.50113">
        <ele>31.860717</ele>
        <time>2011-06-26T06:50:16Z</time>
      </trkpt>
      <trkpt lat="50.42935" lon="3.50108">
        <ele>34.26416</ele>
        <time>2011-06-26T06:50:22Z</time>
      </trkpt>
      <trkpt lat="50.42953" lon="3.501">
        <ele>33.783447</ele>
        <time>2011-06-26T06:50:27Z</time>
      </trkpt>
      <trkpt lat="50.42976" lon="3.50088">
        <ele>29.93811</ele>
        <time>2011-06-26T06:50:33Z</time>
      </trkpt>
      <trkpt lat="50.42988" lon="3.50085">
        <ele>28.496215</ele>
        <time>2011-06-26T06:50:36Z</time>
      </trkpt>
      <trkpt lat="50.43005" lon="3.50077">
        <ele>30.418823</ele>
        <time>2011-06-26T06:50:40Z</time>
      </trkpt>
      <trkpt lat="50.43023" lon="3.50074">
        <ele>32.822265</ele>
        <time>2011-06-26T06:50:46Z</time>
      </trkpt>
      <trkpt lat="50.43037" lon="3.50069">
        <ele>35.225463</ele>
        <time>2011-06-26T06:50:51Z</time>
      </trkpt>
      <trkpt lat="50.43045" lon="3.50065">
        <ele>36.66748</ele>
        <time>2011-06-26T06:50:54Z</time>
      </trkpt>
      <trkpt lat="50.43058" lon="3.5006">
        <ele>35.225463</ele>
        <time>2011-06-26T06:51:00Z</time>
      </trkpt>
      <trkpt lat="50.43061" lon="3.50059">
        <ele>35.225463</ele>
        <time>2011-06-26T06:51:01Z</time>
      </trkpt>
      <trkpt lat="50.43082" lon="3.50049">
        <ele>36.186767</ele>
        <time>2011-06-26T06:51:07Z</time>
      </trkpt>
      <trkpt lat="50.43106" lon="3.50039">
        <ele>35.706054</ele>
        <time>2011-06-26T06:51:13Z</time>
      </trkpt>
      <trkpt lat="50.43115" lon="3.50037">
        <ele>35.706054</ele>
        <time>2011-06-26T06:51:15Z</time>
      </trkpt>
      <trkpt lat="50.43129" lon="3.50038">
        <ele>35.225463</ele>
        <time>2011-06-26T06:51:18Z</time>
      </trkpt>
      <trkpt lat="50.43156" lon="3.50029">
        <ele>32.822265</ele>
        <time>2011-06-26T06:51:24Z</time>
      </trkpt>
      <trkpt lat="50.43189" lon="3.50018">
        <ele>30.899536</ele>
        <time>2011-06-26T06:51:30Z</time>
      </trkpt>
      <trkpt lat="50.43216" lon="3.50014">
        <ele>30.418823</ele>
        <time>2011-06-26T06:51:35Z</time>
      </trkpt>
      <trkpt lat="50.43232" lon="3.5002">
        <ele>27.054321</ele>
        <time>2011-06-26T06:51:38Z</time>
      </trkpt>
      <trkpt lat="50.43236" lon="3.50043">
        <ele>26.092895</ele>
        <time>2011-06-26T06:51:42Z</time>
      </trkpt>
      <trkpt lat="50.43237" lon="3.50057">
        <ele>25.612304</ele>
        <time>2011-06-26T06:51:44Z</time>
      </trkpt>
      <trkpt lat="50.43239" lon="3.50071">
        <ele>25.131713</ele>
        <time>2011-06-26T06:51:46Z</time>
      </trkpt>
      <trkpt lat="50.43239" lon="3.50119">
        <ele>26.092895</ele>
        <time>2011-06-26T06:51:53Z</time>
      </trkpt>
      <trkpt lat="50.4324" lon="3.50126">
        <ele>26.573608</ele>
        <time>2011-06-26T06:51:54Z</time>
      </trkpt>
      <trkpt lat="50.43249" lon="3.50155">
        <ele>27.534912</ele>
        <time>2011-06-26T06:51:58Z</time>
      </trkpt>
      <trkpt lat="50.43267" lon="3.50178">
        <ele>31.860717</ele>
        <time>2011-06-26T06:52:03Z</time>
      </trkpt>
      <trkpt lat="50.43286" lon="3.50198">
        <ele>36.186767</ele>
        <time>2011-06-26T06:52:08Z</time>
      </trkpt>
      <trkpt lat="50.4332" lon="3.50213">
        <ele>41.954711</ele>
        <time>2011-06-26T06:52:15Z</time>
      </trkpt>
      <trkpt lat="50.4334" lon="3.50223">
        <ele>42.916015</ele>
        <time>2011-06-26T06:52:19Z</time>
      </trkpt>
      <trkpt lat="50.43383" lon="3.5024">
        <ele>43.877319</ele>
        <time>2011-06-26T06:52:26Z</time>
      </trkpt>
      <trkpt lat="50.43418" lon="3.5026">
        <ele>40.032104</ele>
        <time>2011-06-26T06:52:32Z</time>
      </trkpt>
      <trkpt lat="50.43474" lon="3.50288">
        <ele>37.628662</ele>
        <time>2011-06-26T06:52:41Z</time>
      </trkpt>
      <trkpt lat="50.43529" lon="3.50314">
        <ele>36.186767</ele>
        <time>2011-06-26T06:52:50Z</time>
      </trkpt>
      <trkpt lat="50.43584" lon="3.50338">
        <ele>34.26416</ele>
        <time>2011-06-26T06:52:59Z</time>
      </trkpt>
      <trkpt lat="50.43643" lon="3.50366">
        <ele>33.302856</ele>
        <time>2011-06-26T06:53:09Z</time>
      </trkpt>
      <trkpt lat="50.43705" lon="3.50392">
        <ele>33.302856</ele>
        <time>2011-06-26T06:53:19Z</time>
      </trkpt>
      <trkpt lat="50.43723" lon="3.504">
        <ele>33.302856</ele>
        <time>2011-06-26T06:53:22Z</time>
      </trkpt>
      <trkpt lat="50.4373" lon="3.50418">
        <ele>33.783447</ele>
        <time>2011-06-26T06:53:26Z</time>
      </trkpt>
      <trkpt lat="50.43717" lon="3.50429">
        <ele>33.783447</ele>
        <time>2011-06-26T06:53:29Z</time>
      </trkpt>
      <trkpt lat="50.43707" lon="3.50435">
        <ele>32.822265</ele>
        <time>2011-06-26T06:53:31Z</time>
      </trkpt>
      <trkpt lat="50.43671" lon="3.50471">
        <ele>31.860717</ele>
        <time>2011-06-26T06:53:38Z</time>
      </trkpt>
      <trkpt lat="50.43656" lon="3.50491">
        <ele>28.976928</ele>
        <time>2011-06-26T06:53:41Z</time>
      </trkpt>
      <trkpt lat="50.43645" lon="3.50514">
        <ele>28.015502</ele>
        <time>2011-06-26T06:53:44Z</time>
      </trkpt>
      <trkpt lat="50.43631" lon="3.50551">
        <ele>29.457519</ele>
        <time>2011-06-26T06:53:48Z</time>
      </trkpt>
      <trkpt lat="50.43615" lon="3.50587">
        <ele>30.418823</ele>
        <time>2011-06-26T06:53:53Z</time>
      </trkpt>
      <trkpt lat="50.43607" lon="3.50626">
        <ele>30.418823</ele>
        <time>2011-06-26T06:53:58Z</time>
      </trkpt>
      <trkpt lat="50.43617" lon="3.50636">
        <ele>35.225463</ele>
        <time>2011-06-26T06:54:01Z</time>
      </trkpt>
      <trkpt lat="50.43625" lon="3.50642">
        <ele>36.66748</ele>
        <time>2011-06-26T06:54:03Z</time>
      </trkpt>
      <trkpt lat="50.43655" lon="3.50663">
        <ele>41.473999</ele>
        <time>2011-06-26T06:54:09Z</time>
      </trkpt>
      <trkpt lat="50.43678" lon="3.50674">
        <ele>42.916015</ele>
        <time>2011-06-26T06:54:13Z</time>
      </trkpt>
      <trkpt lat="50.437" lon="3.50701">
        <ele>39.070678</ele>
        <time>2011-06-26T06:54:17Z</time>
      </trkpt>
      <trkpt lat="50.43707" lon="3.50717">
        <ele>36.186767</ele>
        <time>2011-06-26T06:54:19Z</time>
      </trkpt>
      <trkpt lat="50.43735" lon="3.50785">
        <ele>36.66748</ele>
        <time>2011-06-26T06:54:27Z</time>
      </trkpt>
      <trkpt lat="50.43756" lon="3.50842">
        <ele>39.070678</ele>
        <time>2011-06-26T06:54:34Z</time>
      </trkpt>
      <trkpt lat="50.43774" lon="3.5089">
        <ele>42.435424</ele>
        <time>2011-06-26T06:54:40Z</time>
      </trkpt>
      <trkpt lat="50.43798" lon="3.50954">
        <ele>40.512817</ele>
        <time>2011-06-26T06:54:48Z</time>
      </trkpt>
      <trkpt lat="50.43811" lon="3.50995">
        <ele>40.032104</ele>
        <time>2011-06-26T06:54:53Z</time>
      </trkpt>
      <trkpt lat="50.43817" lon="3.5103">
        <ele>40.032104</ele>
        <time>2011-06-26T06:54:57Z</time>
      </trkpt>
      <trkpt lat="50.43825" lon="3.51074">
        <ele>39.070678</ele>
        <time>2011-06-26T06:55:02Z</time>
      </trkpt>
      <trkpt lat="50.43835" lon="3.51119">
        <ele>41.473999</ele>
        <time>2011-06-26T06:55:07Z</time>
      </trkpt>
      <trkpt lat="50.43846" lon="3.51154">
        <ele>42.916015</ele>
        <time>2011-06-26T06:55:12Z</time>
      </trkpt>
      <trkpt lat="50.4385" lon="3.51169">
        <ele>44.358032</ele>
        <time>2011-06-26T06:55:14Z</time>
      </trkpt>
      <trkpt lat="50.43862" lon="3.51206">
        <ele>48.68396</ele>
        <time>2011-06-26T06:55:19Z</time>
      </trkpt>
      <trkpt lat="50.43869" lon="3.51232">
        <ele>48.203369</ele>
        <time>2011-06-26T06:55:23Z</time>
      </trkpt>
      <trkpt lat="50.43878" lon="3.5126">
        <ele>45.319213</ele>
        <time>2011-06-26T06:55:29Z</time>
      </trkpt>
      <trkpt lat="50.43884" lon="3.51277">
        <ele>49.16455</ele>
        <time>2011-06-26T06:55:34Z</time>
      </trkpt>
      <trkpt lat="50.43893" lon="3.51295">
        <ele>51.567871</ele>
        <time>2011-06-26T06:55:39Z</time>
      </trkpt>
      <trkpt lat="50.43903" lon="3.51331">
        <ele>54.451782</ele>
        <time>2011-06-26T06:55:45Z</time>
      </trkpt>
      <trkpt lat="50.43909" lon="3.5135">
        <ele>56.374511</ele>
        <time>2011-06-26T06:55:48Z</time>
      </trkpt>
      <trkpt lat="50.43921" lon="3.51381">
        <ele>57.335815</ele>
        <time>2011-06-26T06:55:53Z</time>
      </trkpt>
      <trkpt lat="50.43925" lon="3.51394">
        <ele>56.374511</ele>
        <time>2011-06-26T06:55:55Z</time>
      </trkpt>
      <trkpt lat="50.43932" lon="3.51418">
        <ele>55.893798</ele>
        <time>2011-06-26T06:55:58Z</time>
      </trkpt>
      <trkpt lat="50.43953" lon="3.51461">
        <ele>53.971191</ele>
        <time>2011-06-26T06:56:03Z</time>
      </trkpt>
      <trkpt lat="50.43972" lon="3.51496">
        <ele>55.413085</ele>
        <time>2011-06-26T06:56:08Z</time>
      </trkpt>
      <trkpt lat="50.43981" lon="3.51539">
        <ele>53.009765</ele>
        <time>2011-06-26T06:56:13Z</time>
      </trkpt>
      <trkpt lat="50.43984" lon="3.51556">
        <ele>52.048584</ele>
        <time>2011-06-26T06:56:15Z</time>
      </trkpt>
      <trkpt lat="50.43988" lon="3.51599">
        <ele>50.125976</ele>
        <time>2011-06-26T06:56:21Z</time>
      </trkpt>
      <trkpt lat="50.43987" lon="3.51613">
        <ele>51.567871</ele>
        <time>2011-06-26T06:56:23Z</time>
      </trkpt>
      <trkpt lat="50.43988" lon="3.51636">
        <ele>53.490478</ele>
        <time>2011-06-26T06:56:26Z</time>
      </trkpt>
      <trkpt lat="50.43992" lon="3.51654">
        <ele>53.490478</ele>
        <time>2011-06-26T06:56:28Z</time>
      </trkpt>
      <trkpt lat="50.44001" lon="3.51695">
        <ele>56.374511</ele>
        <time>2011-06-26T06:56:33Z</time>
      </trkpt>
      <trkpt lat="50.44007" lon="3.51726">
        <ele>56.855102</ele>
        <time>2011-06-26T06:56:37Z</time>
      </trkpt>
      <trkpt lat="50.44012" lon="3.51742">
        <ele>57.816528</ele>
        <time>2011-06-26T06:56:39Z</time>
      </trkpt>
      <trkpt lat="50.44024" lon="3.51774">
        <ele>60.219726</ele>
        <time>2011-06-26T06:56:43Z</time>
      </trkpt>
      <trkpt lat="50.44038" lon="3.51826">
        <ele>60.700317</ele>
        <time>2011-06-26T06:56:49Z</time>
      </trkpt>
      <trkpt lat="50.44043" lon="3.51851">
        <ele>59.258422</ele>
        <time>2011-06-26T06:56:52Z</time>
      </trkpt>
      <trkpt lat="50.44044" lon="3.51892">
        <ele>55.893798</ele>
        <time>2011-06-26T06:56:57Z</time>
      </trkpt>
      <trkpt lat="50.44052" lon="3.51923">
        <ele>57.816528</ele>
        <time>2011-06-26T06:57:01Z</time>
      </trkpt>
      <trkpt lat="50.44062" lon="3.51962">
        <ele>56.855102</ele>
        <time>2011-06-26T06:57:06Z</time>
      </trkpt>
      <trkpt lat="50.4407" lon="3.51991">
        <ele>54.932373</ele>
        <time>2011-06-26T06:57:10Z</time>
      </trkpt>
      <trkpt lat="50.44073" lon="3.52002">
        <ele>56.374511</ele>
        <time>2011-06-26T06:57:12Z</time>
      </trkpt>
      <trkpt lat="50.44079" lon="3.52026">
        <ele>56.855102</ele>
        <time>2011-06-26T06:57:17Z</time>
      </trkpt>
      <trkpt lat="50.44089" lon="3.52057">
        <ele>62.142334</ele>
        <time>2011-06-26T06:57:23Z</time>
      </trkpt>
      <trkpt lat="50.44094" lon="3.52078">
        <ele>61.18103</ele>
        <time>2011-06-26T06:57:27Z</time>
      </trkpt>
      <trkpt lat="50.44085" lon="3.52102">
        <ele>58.297119</ele>
        <time>2011-06-26T06:57:32Z</time>
      </trkpt>
      <trkpt lat="50.44071" lon="3.52128">
        <ele>59.258422</ele>
        <time>2011-06-26T06:57:37Z</time>
      </trkpt>
      <trkpt lat="50.44068" lon="3.52133">
        <ele>59.258422</ele>
        <time>2011-06-26T06:57:38Z</time>
      </trkpt>
      <trkpt lat="50.44059" lon="3.52148">
        <ele>59.739135</ele>
        <time>2011-06-26T06:57:41Z</time>
      </trkpt>
      <trkpt lat="50.44045" lon="3.52167">
        <ele>57.816528</ele>
        <time>2011-06-26T06:57:45Z</time>
      </trkpt>
      <trkpt lat="50.44042" lon="3.52172">
        <ele>57.335815</ele>
        <time>2011-06-26T06:57:46Z</time>
      </trkpt>
      <trkpt lat="50.44024" lon="3.522">
        <ele>54.932373</ele>
        <time>2011-06-26T06:57:51Z</time>
      </trkpt>
      <trkpt lat="50.44008" lon="3.52222">
        <ele>53.490478</ele>
        <time>2011-06-26T06:57:55Z</time>
      </trkpt>
      <trkpt lat="50.43998" lon="3.52241">
        <ele>53.009765</ele>
        <time>2011-06-26T06:57:58Z</time>
      </trkpt>
      <trkpt lat="50.43987" lon="3.52257">
        <ele>52.529174</ele>
        <time>2011-06-26T06:58:01Z</time>
      </trkpt>
      <trkpt lat="50.43976" lon="3.52272">
        <ele>51.087158</ele>
        <time>2011-06-26T06:58:04Z</time>
      </trkpt>
      <trkpt lat="50.4396" lon="3.52296">
        <ele>51.087158</ele>
        <time>2011-06-26T06:58:09Z</time>
      </trkpt>
      <trkpt lat="50.43944" lon="3.52323">
        <ele>47.722534</ele>
        <time>2011-06-26T06:58:14Z</time>
      </trkpt>
      <trkpt lat="50.43941" lon="3.52328">
        <ele>47.241821</ele>
        <time>2011-06-26T06:58:15Z</time>
      </trkpt>
      <trkpt lat="50.43931" lon="3.52339">
        <ele>46.280639</ele>
        <time>2011-06-26T06:58:17Z</time>
      </trkpt>
      <trkpt lat="50.43908" lon="3.52369">
        <ele>45.319213</ele>
        <time>2011-06-26T06:58:23Z</time>
      </trkpt>
      <trkpt lat="50.43904" lon="3.52374">
        <ele>45.319213</ele>
        <time>2011-06-26T06:58:24Z</time>
      </trkpt>
      <trkpt lat="50.43888" lon="3.52396">
        <ele>44.838623</ele>
        <time>2011-06-26T06:58:29Z</time>
      </trkpt>
      <trkpt lat="50.43874" lon="3.52417">
        <ele>42.435424</ele>
        <time>2011-06-26T06:58:33Z</time>
      </trkpt>
      <trkpt lat="50.43868" lon="3.52428">
        <ele>41.954711</ele>
        <time>2011-06-26T06:58:35Z</time>
      </trkpt>
      <trkpt lat="50.43855" lon="3.52447">
        <ele>41.954711</ele>
        <time>2011-06-26T06:58:39Z</time>
      </trkpt>
      <trkpt lat="50.43843" lon="3.52468">
        <ele>42.916015</ele>
        <time>2011-06-26T06:58:43Z</time>
      </trkpt>
      <trkpt lat="50.43832" lon="3.52482">
        <ele>44.358032</ele>
        <time>2011-06-26T06:58:46Z</time>
      </trkpt>
      <trkpt lat="50.43817" lon="3.52505">
        <ele>48.68396</ele>
        <time>2011-06-26T06:58:51Z</time>
      </trkpt>
      <trkpt lat="50.43804" lon="3.52525">
        <ele>52.048584</ele>
        <time>2011-06-26T06:58:58Z</time>
      </trkpt>
      <trkpt lat="50.43793" lon="3.52538">
        <ele>52.048584</ele>
        <time>2011-06-26T06:59:03Z</time>
      </trkpt>
      <trkpt lat="50.4379" lon="3.52543">
        <ele>51.567871</ele>
        <time>2011-06-26T06:59:05Z</time>
      </trkpt>
      <trkpt lat="50.4378" lon="3.52554">
        <ele>47.241821</ele>
        <time>2011-06-26T06:59:10Z</time>
      </trkpt>
      <trkpt lat="50.43775" lon="3.52563">
        <ele>46.280639</ele>
        <time>2011-06-26T06:59:15Z</time>
      </trkpt>
      <trkpt lat="50.43763" lon="3.52579">
        <ele>44.358032</ele>
        <time>2011-06-26T06:59:20Z</time>
      </trkpt>
      <trkpt lat="50.43753" lon="3.52592">
        <ele>43.877319</ele>
        <time>2011-06-26T06:59:23Z</time>
      </trkpt>
      <trkpt lat="50.43737" lon="3.52614">
        <ele>41.473999</ele>
        <time>2011-06-26T06:59:28Z</time>
      </trkpt>
      <trkpt lat="50.43721" lon="3.52635">
        <ele>39.551269</ele>
        <time>2011-06-26T06:59:33Z</time>
      </trkpt>
      <trkpt lat="50.43718" lon="3.52641">
        <ele>39.551269</ele>
        <time>2011-06-26T06:59:34Z</time>
      </trkpt>
      <trkpt lat="50.43707" lon="3.52659">
        <ele>40.032104</ele>
        <time>2011-06-26T06:59:38Z</time>
      </trkpt>
      <trkpt lat="50.43696" lon="3.52671">
        <ele>40.993408</ele>
        <time>2011-06-26T06:59:43Z</time>
      </trkpt>
      <trkpt lat="50.43685" lon="3.52683">
        <ele>39.551269</ele>
        <time>2011-06-26T06:59:48Z</time>
      </trkpt>
      <trkpt lat="50.43668" lon="3.52706">
        <ele>38.590087</ele>
        <time>2011-06-26T06:59:53Z</time>
      </trkpt>
      <trkpt lat="50.4365" lon="3.52729">
        <ele>41.473999</ele>
        <time>2011-06-26T06:59:58Z</time>
      </trkpt>
      <trkpt lat="50.43647" lon="3.52732">
        <ele>40.993408</ele>
        <time>2011-06-26T06:59:59Z</time>
      </trkpt>
      <trkpt lat="50.4364" lon="3.52742">
        <ele>42.916015</ele>
        <time>2011-06-26T07:00:02Z</time>
      </trkpt>
      <trkpt lat="50.43629" lon="3.52754">
        <ele>41.954711</ele>
        <time>2011-06-26T07:00:08Z</time>
      </trkpt>
      <trkpt lat="50.43624" lon="3.52761">
        <ele>42.916015</ele>
        <time>2011-06-26T07:00:10Z</time>
      </trkpt>
      <trkpt lat="50.43615" lon="3.52774">
        <ele>45.319213</ele>
        <time>2011-06-26T07:00:16Z</time>
      </trkpt>
      <trkpt lat="50.43602" lon="3.52791">
        <ele>43.396606</ele>
        <time>2011-06-26T07:00:24Z</time>
      </trkpt>
      <trkpt lat="50.436" lon="3.52793">
        <ele>42.916015</ele>
        <time>2011-06-26T07:00:25Z</time>
      </trkpt>
      <trkpt lat="50.43589" lon="3.52811">
        <ele>40.512817</ele>
        <time>2011-06-26T07:00:31Z</time>
      </trkpt>
      <trkpt lat="50.43577" lon="3.5283">
        <ele>39.070678</ele>
        <time>2011-06-26T07:00:36Z</time>
      </trkpt>
      <trkpt lat="50.43567" lon="3.52846">
        <ele>35.706054</ele>
        <time>2011-06-26T07:00:40Z</time>
      </trkpt>
      <trkpt lat="50.43553" lon="3.52861">
        <ele>33.783447</ele>
        <time>2011-06-26T07:00:44Z</time>
      </trkpt>
      <trkpt lat="50.43538" lon="3.52879">
        <ele>35.706054</ele>
        <time>2011-06-26T07:00:49Z</time>
      </trkpt>
      <trkpt lat="50.43528" lon="3.52892">
        <ele>38.109375</ele>
        <time>2011-06-26T07:00:54Z</time>
      </trkpt>
      <trkpt lat="50.43514" lon="3.52912">
        <ele>37.148071</ele>
        <time>2011-06-26T07:00:59Z</time>
      </trkpt>
      <trkpt lat="50.4351" lon="3.5292">
        <ele>37.628662</ele>
        <time>2011-06-26T07:01:01Z</time>
      </trkpt>
      <trkpt lat="50.43493" lon="3.52943">
        <ele>36.66748</ele>
        <time>2011-06-26T07:01:06Z</time>
      </trkpt>
      <trkpt lat="50.43483" lon="3.52957">
        <ele>35.225463</ele>
        <time>2011-06-26T07:01:09Z</time>
      </trkpt>
      <trkpt lat="50.43465" lon="3.52981">
        <ele>33.783447</ele>
        <time>2011-06-26T07:01:14Z</time>
      </trkpt>
      <trkpt lat="50.43457" lon="3.52991">
        <ele>31.860717</ele>
        <time>2011-06-26T07:01:16Z</time>
      </trkpt>
      <trkpt lat="50.43435" lon="3.53023">
        <ele>33.302856</ele>
        <time>2011-06-26T07:01:22Z</time>
      </trkpt>
      <trkpt lat="50.43433" lon="3.53027">
        <ele>35.225463</ele>
        <time>2011-06-26T07:01:23Z</time>
      </trkpt>
      <trkpt lat="50.43426" lon="3.53038">
        <ele>40.032104</ele>
        <time>2011-06-26T07:01:29Z</time>
      </trkpt>
      <trkpt lat="50.43416" lon="3.53049">
        <ele>40.512817</ele>
        <time>2011-06-26T07:01:33Z</time>
      </trkpt>
      <trkpt lat="50.43398" lon="3.53072">
        <ele>39.551269</ele>
        <time>2011-06-26T07:01:39Z</time>
      </trkpt>
      <trkpt lat="50.43391" lon="3.5308">
        <ele>38.590087</ele>
        <time>2011-06-26T07:01:41Z</time>
      </trkpt>
      <trkpt lat="50.43376" lon="3.53076">
        <ele>35.225463</ele>
        <time>2011-06-26T07:01:45Z</time>
      </trkpt>
      <trkpt lat="50.43373" lon="3.53072">
        <ele>34.744873</ele>
        <time>2011-06-26T07:01:46Z</time>
      </trkpt>
      <trkpt lat="50.43341" lon="3.53026">
        <ele>33.302856</ele>
        <time>2011-06-26T07:01:55Z</time>
      </trkpt>
      <trkpt lat="50.43318" lon="3.52994">
        <ele>33.783447</ele>
        <time>2011-06-26T07:02:01Z</time>
      </trkpt>
      <trkpt lat="50.4331" lon="3.52985">
        <ele>32.822265</ele>
        <time>2011-06-26T07:02:03Z</time>
      </trkpt>
      <trkpt lat="50.43302" lon="3.52976">
        <ele>33.302856</ele>
        <time>2011-06-26T07:02:05Z</time>
      </trkpt>
      <trkpt lat="50.43292" lon="3.52959">
        <ele>34.744873</ele>
        <time>2011-06-26T07:02:08Z</time>
      </trkpt>
      <trkpt lat="50.43267" lon="3.52925">
        <ele>31.380127</ele>
        <time>2011-06-26T07:02:15Z</time>
      </trkpt>
      <trkpt lat="50.43258" lon="3.5291">
        <ele>32.341552</ele>
        <time>2011-06-26T07:02:18Z</time>
      </trkpt>
      <trkpt lat="50.43234" lon="3.52876">
        <ele>31.860717</ele>
        <time>2011-06-26T07:02:25Z</time>
      </trkpt>
      <trkpt lat="50.43223" lon="3.52861">
        <ele>31.380127</ele>
        <time>2011-06-26T07:02:28Z</time>
      </trkpt>
      <trkpt lat="50.43197" lon="3.52822">
        <ele>29.457519</ele>
        <time>2011-06-26T07:02:35Z</time>
      </trkpt>
      <trkpt lat="50.4317" lon="3.5278">
        <ele>29.457519</ele>
        <time>2011-06-26T07:02:42Z</time>
      </trkpt>
      <trkpt lat="50.43143" lon="3.52743">
        <ele>29.93811</ele>
        <time>2011-06-26T07:02:49Z</time>
      </trkpt>
      <trkpt lat="50.43127" lon="3.52721">
        <ele>31.860717</ele>
        <time>2011-06-26T07:02:53Z</time>
      </trkpt>
      <trkpt lat="50.43107" lon="3.52693">
        <ele>32.341552</ele>
        <time>2011-06-26T07:02:58Z</time>
      </trkpt>
      <trkpt lat="50.43085" lon="3.52659">
        <ele>30.899536</ele>
        <time>2011-06-26T07:03:04Z</time>
      </trkpt>
      <trkpt lat="50.43063" lon="3.52631">
        <ele>30.899536</ele>
        <time>2011-06-26T07:03:09Z</time>
      </trkpt>
      <trkpt lat="50.43043" lon="3.526">
        <ele>28.976928</ele>
        <time>2011-06-26T07:03:14Z</time>
      </trkpt>
      <trkpt lat="50.4302" lon="3.5257">
        <ele>29.457519</ele>
        <time>2011-06-26T07:03:19Z</time>
      </trkpt>
      <trkpt lat="50.43004" lon="3.52544">
        <ele>30.899536</ele>
        <time>2011-06-26T07:03:23Z</time>
      </trkpt>
      <trkpt lat="50.42976" lon="3.52504">
        <ele>31.860717</ele>
        <time>2011-06-26T07:03:30Z</time>
      </trkpt>
      <trkpt lat="50.42972" lon="3.52499">
        <ele>32.341552</ele>
        <time>2011-06-26T07:03:31Z</time>
      </trkpt>
      <trkpt lat="50.42937" lon="3.52455">
        <ele>26.092895</ele>
        <time>2011-06-26T07:03:38Z</time>
      </trkpt>
      <trkpt lat="50.42908" lon="3.52407">
        <ele>28.015502</ele>
        <time>2011-06-26T07:03:45Z</time>
      </trkpt>
      <trkpt lat="50.42883" lon="3.52368">
        <ele>28.976928</ele>
        <time>2011-06-26T07:03:51Z</time>
      </trkpt>
      <trkpt lat="50.42855" lon="3.52327">
        <ele>30.899536</ele>
        <time>2011-06-26T07:03:57Z</time>
      </trkpt>
      <trkpt lat="50.42831" lon="3.52292">
        <ele>28.976928</ele>
        <time>2011-06-26T07:04:02Z</time>
      </trkpt>
      <trkpt lat="50.42797" lon="3.52237">
        <ele>26.573608</ele>
        <time>2011-06-26T07:04:09Z</time>
      </trkpt>
      <trkpt lat="50.4276" lon="3.52189">
        <ele>25.612304</ele>
        <time>2011-06-26T07:04:16Z</time>
      </trkpt>
      <trkpt lat="50.42728" lon="3.52141">
        <ele>22.247558</ele>
        <time>2011-06-26T07:04:23Z</time>
      </trkpt>
      <trkpt lat="50.42715" lon="3.52122">
        <ele>22.728271</ele>
        <time>2011-06-26T07:04:26Z</time>
      </trkpt>
      <trkpt lat="50.42693" lon="3.52093">
        <ele>22.728271</ele>
        <time>2011-06-26T07:04:31Z</time>
      </trkpt>
      <trkpt lat="50.42687" lon="3.52067">
        <ele>23.689575</ele>
        <time>2011-06-26T07:04:35Z</time>
      </trkpt>
      <trkpt lat="50.42687" lon="3.52061">
        <ele>23.689575</ele>
        <time>2011-06-26T07:04:36Z</time>
      </trkpt>
      <trkpt lat="50.42689" lon="3.5203">
        <ele>23.689575</ele>
        <time>2011-06-26T07:04:41Z</time>
      </trkpt>
      <trkpt lat="50.42688" lon="3.52016">
        <ele>24.651001</ele>
        <time>2011-06-26T07:04:43Z</time>
      </trkpt>
      <trkpt lat="50.42688" lon="3.52003">
        <ele>25.131713</ele>
        <time>2011-06-26T07:04:45Z</time>
      </trkpt>
      <trkpt lat="50.42688" lon="3.5197">
        <ele>24.170288</ele>
        <time>2011-06-26T07:04:49Z</time>
      </trkpt>
      <trkpt lat="50.42687" lon="3.51938">
        <ele>26.573608</ele>
        <time>2011-06-26T07:04:53Z</time>
      </trkpt>
      <trkpt lat="50.42686" lon="3.51923">
        <ele>27.534912</ele>
        <time>2011-06-26T07:04:55Z</time>
      </trkpt>
      <trkpt lat="50.42686" lon="3.51866">
        <ele>28.496215</ele>
        <time>2011-06-26T07:05:02Z</time>
      </trkpt>
      <trkpt lat="50.42686" lon="3.51857">
        <ele>28.496215</ele>
        <time>2011-06-26T07:05:03Z</time>
      </trkpt>
      <trkpt lat="50.42685" lon="3.51842">
        <ele>28.015502</ele>
        <time>2011-06-26T07:05:05Z</time>
      </trkpt>
      <trkpt lat="50.42684" lon="3.51805">
        <ele>26.573608</ele>
        <time>2011-06-26T07:05:10Z</time>
      </trkpt>
      <trkpt lat="50.42684" lon="3.51796">
        <ele>26.092895</ele>
        <time>2011-06-26T07:05:11Z</time>
      </trkpt>
      <trkpt lat="50.42686" lon="3.51772">
        <ele>25.131713</ele>
        <time>2011-06-26T07:05:14Z</time>
      </trkpt>
      <trkpt lat="50.42687" lon="3.51742">
        <ele>27.054321</ele>
        <time>2011-06-26T07:05:18Z</time>
      </trkpt>
      <trkpt lat="50.42686" lon="3.51693">
        <ele>29.457519</ele>
        <time>2011-06-26T07:05:24Z</time>
      </trkpt>
      <trkpt lat="50.42683" lon="3.51654">
        <ele>28.015502</ele>
        <time>2011-06-26T07:05:28Z</time>
      </trkpt>
      <trkpt lat="50.42679" lon="3.51622">
        <ele>29.457519</ele>
        <time>2011-06-26T07:05:32Z</time>
      </trkpt>
      <trkpt lat="50.42677" lon="3.51605">
        <ele>29.93811</ele>
        <time>2011-06-26T07:05:34Z</time>
      </trkpt>
      <trkpt lat="50.42668" lon="3.51557">
        <ele>31.380127</ele>
        <time>2011-06-26T07:05:40Z</time>
      </trkpt>
      <trkpt lat="50.42663" lon="3.51525">
        <ele>31.860717</ele>
        <time>2011-06-26T07:05:44Z</time>
      </trkpt>
      <trkpt lat="50.42661" lon="3.51497">
        <ele>29.93811</ele>
        <time>2011-06-26T07:05:48Z</time>
      </trkpt>
      <trkpt lat="50.42659" lon="3.51481">
        <ele>29.457519</ele>
        <time>2011-06-26T07:05:50Z</time>
      </trkpt>
      <trkpt lat="50.42656" lon="3.51466">
        <ele>28.496215</ele>
        <time>2011-06-26T07:05:52Z</time>
      </trkpt>
      <trkpt lat="50.42653" lon="3.51452">
        <ele>28.496215</ele>
        <time>2011-06-26T07:05:54Z</time>
      </trkpt>
      <trkpt lat="50.42648" lon="3.5143">
        <ele>26.573608</ele>
        <time>2011-06-26T07:05:57Z</time>
      </trkpt>
      <trkpt lat="50.42644" lon="3.51416">
        <ele>27.054321</ele>
        <time>2011-06-26T07:05:59Z</time>
      </trkpt>
      <trkpt lat="50.42636" lon="3.51376">
        <ele>26.092895</ele>
        <time>2011-06-26T07:06:04Z</time>
      </trkpt>
      <trkpt lat="50.42627" lon="3.51334">
        <ele>27.054321</ele>
        <time>2011-06-26T07:06:09Z</time>
      </trkpt>
      <trkpt lat="50.42624" lon="3.51307">
        <ele>26.573608</ele>
        <time>2011-06-26T07:06:12Z</time>
      </trkpt>
      <trkpt lat="50.42623" lon="3.51246">
        <ele>27.054321</ele>
        <time>2011-06-26T07:06:19Z</time>
      </trkpt>
      <trkpt lat="50.42624" lon="3.51228">
        <ele>26.573608</ele>
        <time>2011-06-26T07:06:21Z</time>
      </trkpt>
      <trkpt lat="50.42624" lon="3.51198">
        <ele>27.054321</ele>
        <time>2011-06-26T07:06:24Z</time>
      </trkpt>
      <trkpt lat="50.42626" lon="3.51164">
        <ele>26.573608</ele>
        <time>2011-06-26T07:06:28Z</time>
      </trkpt>
      <trkpt lat="50.42632" lon="3.51106">
        <ele>25.131713</ele>
        <time>2011-06-26T07:06:34Z</time>
      </trkpt>
      <trkpt lat="50.42626" lon="3.51069">
        <ele>25.131713</ele>
        <time>2011-06-26T07:06:39Z</time>
      </trkpt>
      <trkpt lat="50.42614" lon="3.51073">
        <ele>24.170288</ele>
        <time>2011-06-26T07:06:42Z</time>
      </trkpt>
      <trkpt lat="50.42597" lon="3.51084">
        <ele>21.766967</ele>
        <time>2011-06-26T07:06:46Z</time>
      </trkpt>
      <trkpt lat="50.42588" lon="3.51088">
        <ele>18.402343</ele>
        <time>2011-06-26T07:06:48Z</time>
      </trkpt>
      <trkpt lat="50.42568" lon="3.51095">
        <ele>14.557006</ele>
        <time>2011-06-26T07:06:52Z</time>
      </trkpt>
      <trkpt lat="50.42547" lon="3.51102">
        <ele>10.711792</ele>
        <time>2011-06-26T07:06:56Z</time>
      </trkpt>
      <trkpt lat="50.42536" lon="3.51108">
        <ele>8.7891846</ele>
        <time>2011-06-26T07:06:58Z</time>
      </trkpt>
      <trkpt lat="50.42509" lon="3.51117">
        <ele>9.2698975</ele>
        <time>2011-06-26T07:07:03Z</time>
      </trkpt>
      <trkpt lat="50.42498" lon="3.51123">
        <ele>8.7891846</ele>
        <time>2011-06-26T07:07:05Z</time>
      </trkpt>
      <trkpt lat="50.42487" lon="3.51128">
        <ele>8.3085938</ele>
        <time>2011-06-26T07:07:07Z</time>
      </trkpt>
      <trkpt lat="50.42478" lon="3.51131">
        <ele>8.3085938</ele>
        <time>2011-06-26T07:07:09Z</time>
      </trkpt>
      <trkpt lat="50.42457" lon="3.5114">
        <ele>5.9052734</ele>
        <time>2011-06-26T07:07:13Z</time>
      </trkpt>
      <trkpt lat="50.42428" lon="3.51151">
        <ele>3.0212402</ele>
        <time>2011-06-26T07:07:19Z</time>
      </trkpt>
      <trkpt lat="50.42414" lon="3.51157">
        <ele>2.0600586</ele>
        <time>2011-06-26T07:07:23Z</time>
      </trkpt>
      <trkpt lat="50.42384" lon="3.5117">
        <ele>5.4245605</ele>
        <time>2011-06-26T07:07:30Z</time>
      </trkpt>
      <trkpt lat="50.42352" lon="3.51184">
        <ele>3.982666</ele>
        <time>2011-06-26T07:07:36Z</time>
      </trkpt>
      <trkpt lat="50.42342" lon="3.51187">
        <ele>3.5019531</ele>
        <time>2011-06-26T07:07:38Z</time>
      </trkpt>
      <trkpt lat="50.4232" lon="3.51195">
        <ele>2.5406494</ele>
        <time>2011-06-26T07:07:42Z</time>
      </trkpt>
      <trkpt lat="50.42297" lon="3.51208">
        <ele>2.5406494</ele>
        <time>2011-06-26T07:07:46Z</time>
      </trkpt>
      <trkpt lat="50.42251" lon="3.51228">
        <ele>3.5019531</ele>
        <time>2011-06-26T07:07:53Z</time>
      </trkpt>
      <trkpt lat="50.42219" lon="3.51243">
        <ele>1.5793457</ele>
        <time>2011-06-26T07:07:58Z</time>
      </trkpt>
      <trkpt lat="50.42195" lon="3.51251">
        <ele>0.618042</ele>
        <time>2011-06-26T07:08:02Z</time>
      </trkpt>
      <trkpt lat="50.4215" lon="3.51272">
        <ele>-1.785278</ele>
        <time>2011-06-26T07:08:09Z</time>
      </trkpt>
      <trkpt lat="50.42124" lon="3.51282">
        <ele>-4.188598</ele>
        <time>2011-06-26T07:08:13Z</time>
      </trkpt>
      <trkpt lat="50.42076" lon="3.51301">
        <ele>-9.956543</ele>
        <time>2011-06-26T07:08:20Z</time>
      </trkpt>
      <trkpt lat="50.42049" lon="3.51312">
        <ele>-9.956543</ele>
        <time>2011-06-26T07:08:25Z</time>
      </trkpt>
      <trkpt lat="50.42013" lon="3.51328">
        <ele>-10.43725</ele>
        <time>2011-06-26T07:08:32Z</time>
      </trkpt>
      <trkpt lat="50.41981" lon="3.51341">
        <ele>-9.47583</ele>
        <time>2011-06-26T07:08:38Z</time>
      </trkpt>
      <trkpt lat="50.41948" lon="3.51354">
        <ele>-10.43725</ele>
        <time>2011-06-26T07:08:44Z</time>
      </trkpt>
      <trkpt lat="50.41937" lon="3.51358">
        <ele>-9.47583</ele>
        <time>2011-06-26T07:08:46Z</time>
      </trkpt>
      <trkpt lat="50.41906" lon="3.5137">
        <ele>-5.149902</ele>
        <time>2011-06-26T07:08:52Z</time>
      </trkpt>
      <trkpt lat="50.4188" lon="3.51382">
        <ele>-2.746704</ele>
        <time>2011-06-26T07:08:57Z</time>
      </trkpt>
      <trkpt lat="50.41864" lon="3.51389">
        <ele>-2.265991</ele>
        <time>2011-06-26T07:09:00Z</time>
      </trkpt>
      <trkpt lat="50.41838" lon="3.51399">
        <ele>-1.304687</ele>
        <time>2011-06-26T07:09:05Z</time>
      </trkpt>
      <trkpt lat="50.41819" lon="3.51409">
        <ele>0.618042</ele>
        <time>2011-06-26T07:09:09Z</time>
      </trkpt>
      <trkpt lat="50.41808" lon="3.51417">
        <ele>9.7506104</ele>
        <time>2011-06-26T07:09:14Z</time>
      </trkpt>
      <trkpt lat="50.41798" lon="3.51421">
        <ele>10.231201</ele>
        <time>2011-06-26T07:09:19Z</time>
      </trkpt>
      <trkpt lat="50.41793" lon="3.51422">
        <ele>9.7506104</ele>
        <time>2011-06-26T07:09:21Z</time>
      </trkpt>
      <trkpt lat="50.41777" lon="3.51428">
        <ele>9.7506104</ele>
        <time>2011-06-26T07:09:26Z</time>
      </trkpt>
      <trkpt lat="50.4176" lon="3.51436">
        <ele>11.192504</ele>
        <time>2011-06-26T07:09:32Z</time>
      </trkpt>
      <trkpt lat="50.41746" lon="3.51439">
        <ele>6.8664551</ele>
        <time>2011-06-26T07:09:37Z</time>
      </trkpt>
      <trkpt lat="50.41742" lon="3.51441">
        <ele>7.347168</ele>
        <time>2011-06-26T07:09:39Z</time>
      </trkpt>
      <trkpt lat="50.41743" lon="3.51456">
        <ele>16.960449</ele>
        <time>2011-06-26T07:09:43Z</time>
      </trkpt>
      <trkpt lat="50.41754" lon="3.51485">
        <ele>23.689575</ele>
        <time>2011-06-26T07:09:48Z</time>
      </trkpt>
      <trkpt lat="50.41771" lon="3.51532">
        <ele>29.457519</ele>
        <time>2011-06-26T07:09:54Z</time>
      </trkpt>
      <trkpt lat="50.41788" lon="3.51586">
        <ele>35.706054</ele>
        <time>2011-06-26T07:10:01Z</time>
      </trkpt>
      <trkpt lat="50.418" lon="3.51628">
        <ele>39.070678</ele>
        <time>2011-06-26T07:10:06Z</time>
      </trkpt>
      <trkpt lat="50.41814" lon="3.51678">
        <ele>41.473999</ele>
        <time>2011-06-26T07:10:12Z</time>
      </trkpt>
      <trkpt lat="50.41817" lon="3.51696">
        <ele>42.916015</ele>
        <time>2011-06-26T07:10:14Z</time>
      </trkpt>
      <trkpt lat="50.4183" lon="3.51758">
        <ele>44.838623</ele>
        <time>2011-06-26T07:10:21Z</time>
      </trkpt>
      <trkpt lat="50.41844" lon="3.51805">
        <ele>46.76123</ele>
        <time>2011-06-26T07:10:27Z</time>
      </trkpt>
      <trkpt lat="50.41856" lon="3.51875">
        <ele>44.358032</ele>
        <time>2011-06-26T07:10:35Z</time>
      </trkpt>
      <trkpt lat="50.41857" lon="3.51884">
        <ele>44.358032</ele>
        <time>2011-06-26T07:10:36Z</time>
      </trkpt>
      <trkpt lat="50.4187" lon="3.51936">
        <ele>42.435424</ele>
        <time>2011-06-26T07:10:42Z</time>
      </trkpt>
      <trkpt lat="50.41887" lon="3.51994">
        <ele>42.916015</ele>
        <time>2011-06-26T07:10:49Z</time>
      </trkpt>
      <trkpt lat="50.419" lon="3.52038">
        <ele>45.319213</ele>
        <time>2011-06-26T07:10:55Z</time>
      </trkpt>
      <trkpt lat="50.41908" lon="3.52066">
        <ele>46.76123</ele>
        <time>2011-06-26T07:11:00Z</time>
      </trkpt>
      <trkpt lat="50.41911" lon="3.52083">
        <ele>49.645263</ele>
        <time>2011-06-26T07:11:03Z</time>
      </trkpt>
      <trkpt lat="50.41923" lon="3.52124">
        <ele>51.087158</ele>
        <time>2011-06-26T07:11:11Z</time>
      </trkpt>
      <trkpt lat="50.4193" lon="3.5215">
        <ele>53.971191</ele>
        <time>2011-06-26T07:11:16Z</time>
      </trkpt>
      <trkpt lat="50.41934" lon="3.52172">
        <ele>50.125976</ele>
        <time>2011-06-26T07:11:21Z</time>
      </trkpt>
      <trkpt lat="50.41935" lon="3.52178">
        <ele>47.722534</ele>
        <time>2011-06-26T07:11:23Z</time>
      </trkpt>
      <trkpt lat="50.41936" lon="3.52189">
        <ele>50.125976</ele>
        <time>2011-06-26T07:11:26Z</time>
      </trkpt>
      <trkpt lat="50.41941" lon="3.52214">
        <ele>53.971191</ele>
        <time>2011-06-26T07:11:33Z</time>
      </trkpt>
      <trkpt lat="50.41946" lon="3.52234">
        <ele>53.490478</ele>
        <time>2011-06-26T07:11:38Z</time>
      </trkpt>
      <trkpt lat="50.41953" lon="3.52262">
        <ele>49.16455</ele>
        <time>2011-06-26T07:11:44Z</time>
      </trkpt>
      <trkpt lat="50.41958" lon="3.52286">
        <ele>48.68396</ele>
        <time>2011-06-26T07:11:48Z</time>
      </trkpt>
      <trkpt lat="50.41968" lon="3.52328">
        <ele>50.125976</ele>
        <time>2011-06-26T07:11:54Z</time>
      </trkpt>
      <trkpt lat="50.41972" lon="3.52344">
        <ele>52.048584</ele>
        <time>2011-06-26T07:11:56Z</time>
      </trkpt>
      <trkpt lat="50.41986" lon="3.52404">
        <ele>55.413085</ele>
        <time>2011-06-26T07:12:03Z</time>
      </trkpt>
      <trkpt lat="50.41991" lon="3.52422">
        <ele>56.374511</ele>
        <time>2011-06-26T07:12:05Z</time>
      </trkpt>
      <trkpt lat="50.42005" lon="3.52476">
        <ele>61.18103</ele>
        <time>2011-06-26T07:12:11Z</time>
      </trkpt>
      <trkpt lat="50.42018" lon="3.5253">
        <ele>60.700317</ele>
        <time>2011-06-26T07:12:17Z</time>
      </trkpt>
      <trkpt lat="50.42026" lon="3.52575">
        <ele>56.374511</ele>
        <time>2011-06-26T07:12:22Z</time>
      </trkpt>
      <trkpt lat="50.42031" lon="3.52612">
        <ele>53.490478</ele>
        <time>2011-06-26T07:12:26Z</time>
      </trkpt>
      <trkpt lat="50.42035" lon="3.52665">
        <ele>53.009765</ele>
        <time>2011-06-26T07:12:32Z</time>
      </trkpt>
      <trkpt lat="50.42036" lon="3.52674">
        <ele>53.009765</ele>
        <time>2011-06-26T07:12:33Z</time>
      </trkpt>
      <trkpt lat="50.4204" lon="3.527">
        <ele>53.009765</ele>
        <time>2011-06-26T07:12:36Z</time>
      </trkpt>
      <trkpt lat="50.42043" lon="3.52746">
        <ele>51.567871</ele>
        <time>2011-06-26T07:12:41Z</time>
      </trkpt>
      <trkpt lat="50.42043" lon="3.52754">
        <ele>51.087158</ele>
        <time>2011-06-26T07:12:42Z</time>
      </trkpt>
      <trkpt lat="50.42046" lon="3.52791">
        <ele>50.606567</ele>
        <time>2011-06-26T07:12:47Z</time>
      </trkpt>
      <trkpt lat="50.42047" lon="3.52835">
        <ele>52.529174</ele>
        <time>2011-06-26T07:12:52Z</time>
      </trkpt>
      <trkpt lat="50.42047" lon="3.52852">
        <ele>51.567871</ele>
        <time>2011-06-26T07:12:54Z</time>
      </trkpt>
      <trkpt lat="50.42046" lon="3.52886">
        <ele>49.16455</ele>
        <time>2011-06-26T07:12:58Z</time>
      </trkpt>
      <trkpt lat="50.42043" lon="3.52926">
        <ele>47.241821</ele>
        <time>2011-06-26T07:13:03Z</time>
      </trkpt>
      <trkpt lat="50.42044" lon="3.52944">
        <ele>48.203369</ele>
        <time>2011-06-26T07:13:06Z</time>
      </trkpt>
      <trkpt lat="50.42044" lon="3.52977">
        <ele>52.529174</ele>
        <time>2011-06-26T07:13:11Z</time>
      </trkpt>
      <trkpt lat="50.42041" lon="3.53011">
        <ele>51.567871</ele>
        <time>2011-06-26T07:13:16Z</time>
      </trkpt>
      <trkpt lat="50.42038" lon="3.53038">
        <ele>52.048584</ele>
        <time>2011-06-26T07:13:20Z</time>
      </trkpt>
      <trkpt lat="50.42035" lon="3.5305">
        <ele>51.087158</ele>
        <time>2011-06-26T07:13:22Z</time>
      </trkpt>
      <trkpt lat="50.42034" lon="3.53061">
        <ele>52.048584</ele>
        <time>2011-06-26T07:13:24Z</time>
      </trkpt>
      <trkpt lat="50.4203" lon="3.53099">
        <ele>48.68396</ele>
        <time>2011-06-26T07:13:30Z</time>
      </trkpt>
      <trkpt lat="50.42029" lon="3.53105">
        <ele>48.68396</ele>
        <time>2011-06-26T07:13:31Z</time>
      </trkpt>
      <trkpt lat="50.42025" lon="3.53135">
        <ele>53.490478</ele>
        <time>2011-06-26T07:13:37Z</time>
      </trkpt>
      <trkpt lat="50.42016" lon="3.53173">
        <ele>53.490478</ele>
        <time>2011-06-26T07:13:43Z</time>
      </trkpt>
      <trkpt lat="50.42008" lon="3.53209">
        <ele>50.606567</ele>
        <time>2011-06-26T07:13:48Z</time>
      </trkpt>
      <trkpt lat="50.42006" lon="3.53218">
        <ele>49.645263</ele>
        <time>2011-06-26T07:13:49Z</time>
      </trkpt>
      <trkpt lat="50.41999" lon="3.53251">
        <ele>43.396606</ele>
        <time>2011-06-26T07:13:53Z</time>
      </trkpt>
      <trkpt lat="50.41998" lon="3.53265">
        <ele>41.954711</ele>
        <time>2011-06-26T07:13:55Z</time>
      </trkpt>
      <trkpt lat="50.41995" lon="3.53287">
        <ele>38.590087</ele>
        <time>2011-06-26T07:13:58Z</time>
      </trkpt>
      <trkpt lat="50.4199" lon="3.53316">
        <ele>35.706054</ele>
        <time>2011-06-26T07:14:02Z</time>
      </trkpt>
      <trkpt lat="50.41983" lon="3.53355">
        <ele>33.783447</ele>
        <time>2011-06-26T07:14:07Z</time>
      </trkpt>
      <trkpt lat="50.41976" lon="3.534">
        <ele>36.186767</ele>
        <time>2011-06-26T07:14:13Z</time>
      </trkpt>
      <trkpt lat="50.41973" lon="3.53419">
        <ele>33.783447</ele>
        <time>2011-06-26T07:14:16Z</time>
      </trkpt>
      <trkpt lat="50.41964" lon="3.53428">
        <ele>29.93811</ele>
        <time>2011-06-26T07:14:22Z</time>
      </trkpt>
      <trkpt lat="50.41959" lon="3.5343">
        <ele>28.015502</ele>
        <time>2011-06-26T07:14:24Z</time>
      </trkpt>
      <trkpt lat="50.41957" lon="3.5343">
        <ele>27.534912</ele>
        <time>2011-06-26T07:14:26Z</time>
      </trkpt>
      <trkpt lat="50.41955" lon="3.53432">
        <ele>27.534912</ele>
        <time>2011-06-26T07:14:28Z</time>
      </trkpt>
      <trkpt lat="50.41952" lon="3.53434">
        <ele>24.170288</ele>
        <time>2011-06-26T07:14:31Z</time>
      </trkpt>
      <trkpt lat="50.41949" lon="3.53434">
        <ele>23.689575</ele>
        <time>2011-06-26T07:14:34Z</time>
      </trkpt>
      <trkpt lat="50.41943" lon="3.53435">
        <ele>27.054321</ele>
        <time>2011-06-26T07:14:43Z</time>
      </trkpt>
      <trkpt lat="50.41942" lon="3.53435">
        <ele>28.976928</ele>
        <time>2011-06-26T07:14:46Z</time>
      </trkpt>
      <trkpt lat="50.41932" lon="3.53446">
        <ele>44.358032</ele>
        <time>2011-06-26T07:15:47Z</time>
      </trkpt>
      <trkpt lat="50.41932" lon="3.53463">
        <ele>43.877319</ele>
        <time>2011-06-26T07:15:51Z</time>
      </trkpt>
      <trkpt lat="50.4193" lon="3.5348">
        <ele>44.838623</ele>
        <time>2011-06-26T07:15:55Z</time>
      </trkpt>
      <trkpt lat="50.41929" lon="3.53491">
        <ele>44.358032</ele>
        <time>2011-06-26T07:15:57Z</time>
      </trkpt>
      <trkpt lat="50.41924" lon="3.53516">
        <ele>44.838623</ele>
        <time>2011-06-26T07:16:02Z</time>
      </trkpt>
      <trkpt lat="50.41918" lon="3.53546">
        <ele>48.68396</ele>
        <time>2011-06-26T07:16:07Z</time>
      </trkpt>
      <trkpt lat="50.4191" lon="3.53585">
        <ele>50.606567</ele>
        <time>2011-06-26T07:16:13Z</time>
      </trkpt>
      <trkpt lat="50.41907" lon="3.53605">
        <ele>49.16455</ele>
        <time>2011-06-26T07:16:16Z</time>
      </trkpt>
      <trkpt lat="50.41903" lon="3.53619">
        <ele>50.606567</ele>
        <time>2011-06-26T07:16:18Z</time>
      </trkpt>
      <trkpt lat="50.41894" lon="3.53658">
        <ele>53.009765</ele>
        <time>2011-06-26T07:16:24Z</time>
      </trkpt>
      <trkpt lat="50.41891" lon="3.53666">
        <ele>53.971191</ele>
        <time>2011-06-26T07:16:25Z</time>
      </trkpt>
      <trkpt lat="50.41886" lon="3.53696">
        <ele>53.009765</ele>
        <time>2011-06-26T07:16:29Z</time>
      </trkpt>
      <trkpt lat="50.41881" lon="3.53729">
        <ele>54.932373</ele>
        <time>2011-06-26T07:16:33Z</time>
      </trkpt>
      <trkpt lat="50.41876" lon="3.53748">
        <ele>56.374511</ele>
        <time>2011-06-26T07:16:35Z</time>
      </trkpt>
      <trkpt lat="50.41867" lon="3.53784">
        <ele>59.258422</ele>
        <time>2011-06-26T07:16:39Z</time>
      </trkpt>
      <trkpt lat="50.41861" lon="3.53812">
        <ele>54.451782</ele>
        <time>2011-06-26T07:16:42Z</time>
      </trkpt>
      <trkpt lat="50.41852" lon="3.53837">
        <ele>50.606567</ele>
        <time>2011-06-26T07:16:45Z</time>
      </trkpt>
      <trkpt lat="50.41841" lon="3.53868">
        <ele>46.76123</ele>
        <time>2011-06-26T07:16:49Z</time>
      </trkpt>
      <trkpt lat="50.41819" lon="3.53924">
        <ele>40.032104</ele>
        <time>2011-06-26T07:16:56Z</time>
      </trkpt>
      <trkpt lat="50.41804" lon="3.53956">
        <ele>38.590087</ele>
        <time>2011-06-26T07:17:00Z</time>
      </trkpt>
      <trkpt lat="50.41796" lon="3.53985">
        <ele>37.148071</ele>
        <time>2011-06-26T07:17:04Z</time>
      </trkpt>
      <trkpt lat="50.41782" lon="3.54023">
        <ele>35.706054</ele>
        <time>2011-06-26T07:17:09Z</time>
      </trkpt>
      <trkpt lat="50.41768" lon="3.54065">
        <ele>36.186767</ele>
        <time>2011-06-26T07:17:15Z</time>
      </trkpt>
      <trkpt lat="50.41762" lon="3.54081">
        <ele>35.706054</ele>
        <time>2011-06-26T07:17:17Z</time>
      </trkpt>
      <trkpt lat="50.41754" lon="3.54098">
        <ele>34.744873</ele>
        <time>2011-06-26T07:17:19Z</time>
      </trkpt>
      <trkpt lat="50.41747" lon="3.54115">
        <ele>37.148071</ele>
        <time>2011-06-26T07:17:21Z</time>
      </trkpt>
      <trkpt lat="50.4174" lon="3.5413">
        <ele>36.186767</ele>
        <time>2011-06-26T07:17:23Z</time>
      </trkpt>
      <trkpt lat="50.41733" lon="3.54159">
        <ele>37.148071</ele>
        <time>2011-06-26T07:17:27Z</time>
      </trkpt>
      <trkpt lat="50.41727" lon="3.54181">
        <ele>37.628662</ele>
        <time>2011-06-26T07:17:30Z</time>
      </trkpt>
      <trkpt lat="50.41715" lon="3.54216">
        <ele>39.551269</ele>
        <time>2011-06-26T07:17:35Z</time>
      </trkpt>
      <trkpt lat="50.4171" lon="3.54231">
        <ele>39.551269</ele>
        <time>2011-06-26T07:17:38Z</time>
      </trkpt>
      <trkpt lat="50.41705" lon="3.54247">
        <ele>37.628662</ele>
        <time>2011-06-26T07:17:42Z</time>
      </trkpt>
      <trkpt lat="50.41697" lon="3.54267">
        <ele>36.66748</ele>
        <time>2011-06-26T07:17:47Z</time>
      </trkpt>
      <trkpt lat="50.41685" lon="3.54272">
        <ele>37.148071</ele>
        <time>2011-06-26T07:17:51Z</time>
      </trkpt>
      <trkpt lat="50.4168" lon="3.54274">
        <ele>36.66748</ele>
        <time>2011-06-26T07:17:52Z</time>
      </trkpt>
      <trkpt lat="50.41664" lon="3.54278">
        <ele>35.706054</ele>
        <time>2011-06-26T07:17:55Z</time>
      </trkpt>
      <trkpt lat="50.41646" lon="3.54279">
        <ele>33.302856</ele>
        <time>2011-06-26T07:17:59Z</time>
      </trkpt>
      <trkpt lat="50.41626" lon="3.54266">
        <ele>32.341552</ele>
        <time>2011-06-26T07:18:04Z</time>
      </trkpt>
      <trkpt lat="50.41617" lon="3.54255">
        <ele>32.341552</ele>
        <time>2011-06-26T07:18:07Z</time>
      </trkpt>
      <trkpt lat="50.41613" lon="3.54249">
        <ele>32.822265</ele>
        <time>2011-06-26T07:18:09Z</time>
      </trkpt>
      <trkpt lat="50.41603" lon="3.54254">
        <ele>33.783447</ele>
        <time>2011-06-26T07:18:13Z</time>
      </trkpt>
      <trkpt lat="50.41607" lon="3.54264">
        <ele>33.783447</ele>
        <time>2011-06-26T07:18:15Z</time>
      </trkpt>
      <trkpt lat="50.41622" lon="3.54282">
        <ele>33.783447</ele>
        <time>2011-06-26T07:18:18Z</time>
      </trkpt>
      <trkpt lat="50.4167" lon="3.54317">
        <ele>34.26416</ele>
        <time>2011-06-26T07:18:25Z</time>
      </trkpt>
      <trkpt lat="50.41677" lon="3.5432">
        <ele>34.26416</ele>
        <time>2011-06-26T07:18:26Z</time>
      </trkpt>
      <trkpt lat="50.41703" lon="3.54322">
        <ele>34.26416</ele>
        <time>2011-06-26T07:18:30Z</time>
      </trkpt>
      <trkpt lat="50.41719" lon="3.54314">
        <ele>33.302856</ele>
        <time>2011-06-26T07:18:33Z</time>
      </trkpt>
      <trkpt lat="50.41738" lon="3.54321">
        <ele>33.783447</ele>
        <time>2011-06-26T07:18:37Z</time>
      </trkpt>
      <trkpt lat="50.41764" lon="3.5435">
        <ele>35.225463</ele>
        <time>2011-06-26T07:18:43Z</time>
      </trkpt>
      <trkpt lat="50.41804" lon="3.54394">
        <ele>35.706054</ele>
        <time>2011-06-26T07:18:51Z</time>
      </trkpt>
      <trkpt lat="50.41832" lon="3.54428">
        <ele>37.148071</ele>
        <time>2011-06-26T07:18:57Z</time>
      </trkpt>
      <trkpt lat="50.41837" lon="3.54448">
        <ele>37.628662</ele>
        <time>2011-06-26T07:19:00Z</time>
      </trkpt>
      <trkpt lat="50.41828" lon="3.54467">
        <ele>39.070678</ele>
        <time>2011-06-26T07:19:03Z</time>
      </trkpt>
      <trkpt lat="50.41788" lon="3.54527">
        <ele>40.512817</ele>
        <time>2011-06-26T07:19:13Z</time>
      </trkpt>
      <trkpt lat="50.41785" lon="3.54533">
        <ele>40.032104</ele>
        <time>2011-06-26T07:19:14Z</time>
      </trkpt>
      <trkpt lat="50.41776" lon="3.54552">
        <ele>39.070678</ele>
        <time>2011-06-26T07:19:17Z</time>
      </trkpt>
      <trkpt lat="50.41766" lon="3.54574">
        <ele>39.070678</ele>
        <time>2011-06-26T07:19:21Z</time>
      </trkpt>
      <trkpt lat="50.41767" lon="3.54586">
        <ele>42.435424</ele>
        <time>2011-06-26T07:19:25Z</time>
      </trkpt>
      <trkpt lat="50.41767" lon="3.54596">
        <ele>41.473999</ele>
        <time>2011-06-26T07:19:27Z</time>
      </trkpt>
      <trkpt lat="50.41764" lon="3.54625">
        <ele>41.954711</ele>
        <time>2011-06-26T07:19:33Z</time>
      </trkpt>
      <trkpt lat="50.41757" lon="3.54652">
        <ele>40.032104</ele>
        <time>2011-06-26T07:19:38Z</time>
      </trkpt>
      <trkpt lat="50.41753" lon="3.54672">
        <ele>38.109375</ele>
        <time>2011-06-26T07:19:42Z</time>
      </trkpt>
      <trkpt lat="50.4175" lon="3.54693">
        <ele>38.590087</ele>
        <time>2011-06-26T07:19:46Z</time>
      </trkpt>
      <trkpt lat="50.41747" lon="3.54716">
        <ele>41.954711</ele>
        <time>2011-06-26T07:19:50Z</time>
      </trkpt>
      <trkpt lat="50.41743" lon="3.54739">
        <ele>44.358032</ele>
        <time>2011-06-26T07:19:54Z</time>
      </trkpt>
      <trkpt lat="50.41741" lon="3.54761">
        <ele>48.203369</ele>
        <time>2011-06-26T07:19:58Z</time>
      </trkpt>
      <trkpt lat="50.41739" lon="3.5479">
        <ele>53.490478</ele>
        <time>2011-06-26T07:20:03Z</time>
      </trkpt>
      <trkpt lat="50.4174" lon="3.54819">
        <ele>54.932373</ele>
        <time>2011-06-26T07:20:08Z</time>
      </trkpt>
      <trkpt lat="50.41745" lon="3.54853">
        <ele>54.932373</ele>
        <time>2011-06-26T07:20:13Z</time>
      </trkpt>
      <trkpt lat="50.41745" lon="3.5486">
        <ele>54.451782</ele>
        <time>2011-06-26T07:20:14Z</time>
      </trkpt>
      <trkpt lat="50.41748" lon="3.54873">
        <ele>56.855102</ele>
        <time>2011-06-26T07:20:16Z</time>
      </trkpt>
      <trkpt lat="50.41755" lon="3.54895">
        <ele>59.739135</ele>
        <time>2011-06-26T07:20:20Z</time>
      </trkpt>
      <trkpt lat="50.41782" lon="3.54936">
        <ele>63.103637</ele>
        <time>2011-06-26T07:20:28Z</time>
      </trkpt>
      <trkpt lat="50.41792" lon="3.54951">
        <ele>63.103637</ele>
        <time>2011-06-26T07:20:31Z</time>
      </trkpt>
      <trkpt lat="50.41804" lon="3.5497">
        <ele>65.50708</ele>
        <time>2011-06-26T07:20:34Z</time>
      </trkpt>
      <trkpt lat="50.41833" lon="3.55024">
        <ele>64.065063</ele>
        <time>2011-06-26T07:20:39Z</time>
      </trkpt>
      <trkpt lat="50.41839" lon="3.55034">
        <ele>64.065063</ele>
        <time>2011-06-26T07:20:40Z</time>
      </trkpt>
      <trkpt lat="50.41864" lon="3.55098">
        <ele>60.219726</ele>
        <time>2011-06-26T07:20:45Z</time>
      </trkpt>
      <trkpt lat="50.4187" lon="3.55109">
        <ele>56.374511</ele>
        <time>2011-06-26T07:20:46Z</time>
      </trkpt>
      <trkpt lat="50.41866" lon="3.55132">
        <ele>39.070678</ele>
        <time>2011-06-26T07:20:50Z</time>
      </trkpt>
      <trkpt lat="50.41859" lon="3.55124">
        <ele>40.512817</ele>
        <time>2011-06-26T07:20:52Z</time>
      </trkpt>
      <trkpt lat="50.41846" lon="3.55103">
        <ele>35.706054</ele>
        <time>2011-06-26T07:20:57Z</time>
      </trkpt>
      <trkpt lat="50.41835" lon="3.55095">
        <ele>31.380127</ele>
        <time>2011-06-26T07:21:00Z</time>
      </trkpt>
      <trkpt lat="50.41812" lon="3.55086">
        <ele>25.612304</ele>
        <time>2011-06-26T07:21:06Z</time>
      </trkpt>
      <trkpt lat="50.41794" lon="3.55084">
        <ele>23.689575</ele>
        <time>2011-06-26T07:21:12Z</time>
      </trkpt>
      <trkpt lat="50.41788" lon="3.55087">
        <ele>21.286377</ele>
        <time>2011-06-26T07:21:18Z</time>
      </trkpt>
      <trkpt lat="50.41783" lon="3.55087">
        <ele>22.728271</ele>
        <time>2011-06-26T07:21:30Z</time>
      </trkpt>
      <trkpt lat="50.41774" lon="3.55088">
        <ele>19.363769</ele>
        <time>2011-06-26T07:21:34Z</time>
      </trkpt>
      <trkpt lat="50.41755" lon="3.55089">
        <ele>16.479736</ele>
        <time>2011-06-26T07:21:39Z</time>
      </trkpt>
      <trkpt lat="50.41734" lon="3.55083">
        <ele>15.518432</ele>
        <time>2011-06-26T07:21:44Z</time>
      </trkpt>
      <trkpt lat="50.4172" lon="3.55071">
        <ele>15.999023</ele>
        <time>2011-06-26T07:21:48Z</time>
      </trkpt>
      <trkpt lat="50.41714" lon="3.55063">
        <ele>15.999023</ele>
        <time>2011-06-26T07:21:50Z</time>
      </trkpt>
      <trkpt lat="50.41711" lon="3.55059">
        <ele>16.479736</ele>
        <time>2011-06-26T07:21:51Z</time>
      </trkpt>
      <trkpt lat="50.41698" lon="3.55043">
        <ele>15.518432</ele>
        <time>2011-06-26T07:21:55Z</time>
      </trkpt>
      <trkpt lat="50.41665" lon="3.55016">
        <ele>17.441162</ele>
        <time>2011-06-26T07:22:03Z</time>
      </trkpt>
      <trkpt lat="50.41636" lon="3.54974">
        <ele>17.921752</ele>
        <time>2011-06-26T07:22:11Z</time>
      </trkpt>
      <trkpt lat="50.41623" lon="3.54952">
        <ele>18.883056</ele>
        <time>2011-06-26T07:22:15Z</time>
      </trkpt>
      <trkpt lat="50.41605" lon="3.54936">
        <ele>18.883056</ele>
        <time>2011-06-26T07:22:19Z</time>
      </trkpt>
      <trkpt lat="50.4158" lon="3.54935">
        <ele>18.883056</ele>
        <time>2011-06-26T07:22:24Z</time>
      </trkpt>
      <trkpt lat="50.41546" lon="3.54947">
        <ele>18.402343</ele>
        <time>2011-06-26T07:22:30Z</time>
      </trkpt>
      <trkpt lat="50.41518" lon="3.54945">
        <ele>22.728271</ele>
        <time>2011-06-26T07:22:36Z</time>
      </trkpt>
      <trkpt lat="50.41483" lon="3.54931">
        <ele>17.441162</ele>
        <time>2011-06-26T07:22:44Z</time>
      </trkpt>
      <trkpt lat="50.41467" lon="3.54924">
        <ele>16.479736</ele>
        <time>2011-06-26T07:22:48Z</time>
      </trkpt>
      <trkpt lat="50.41453" lon="3.54902">
        <ele>16.479736</ele>
        <time>2011-06-26T07:22:53Z</time>
      </trkpt>
      <trkpt lat="50.41452" lon="3.54839">
        <ele>16.479736</ele>
        <time>2011-06-26T07:23:01Z</time>
      </trkpt>
      <trkpt lat="50.41452" lon="3.5483">
        <ele>16.479736</ele>
        <time>2011-06-26T07:23:02Z</time>
      </trkpt>
      <trkpt lat="50.41448" lon="3.54784">
        <ele>16.960449</ele>
        <time>2011-06-26T07:23:08Z</time>
      </trkpt>
      <trkpt lat="50.41435" lon="3.54717">
        <ele>20.324951</ele>
        <time>2011-06-26T07:23:18Z</time>
      </trkpt>
      <trkpt lat="50.41426" lon="3.54663">
        <ele>21.766967</ele>
        <time>2011-06-26T07:23:26Z</time>
      </trkpt>
      <trkpt lat="50.41418" lon="3.54604">
        <ele>22.247558</ele>
        <time>2011-06-26T07:23:34Z</time>
      </trkpt>
      <trkpt lat="50.41416" lon="3.54589">
        <ele>22.247558</ele>
        <time>2011-06-26T07:23:36Z</time>
      </trkpt>
      <trkpt lat="50.41416" lon="3.54556">
        <ele>23.689575</ele>
        <time>2011-06-26T07:23:41Z</time>
      </trkpt>
      <trkpt lat="50.41416" lon="3.54529">
        <ele>26.092895</ele>
        <time>2011-06-26T07:23:48Z</time>
      </trkpt>
      <trkpt lat="50.41414" lon="3.54509">
        <ele>27.534912</ele>
        <time>2011-06-26T07:23:53Z</time>
      </trkpt>
      <trkpt lat="50.41412" lon="3.54494">
        <ele>28.496215</ele>
        <time>2011-06-26T07:23:57Z</time>
      </trkpt>
      <trkpt lat="50.41409" lon="3.5447">
        <ele>30.418823</ele>
        <time>2011-06-26T07:24:05Z</time>
      </trkpt>
      <trkpt lat="50.41408" lon="3.54452">
        <ele>31.860717</ele>
        <time>2011-06-26T07:24:12Z</time>
      </trkpt>
      <trkpt lat="50.41408" lon="3.54432">
        <ele>32.341552</ele>
        <time>2011-06-26T07:24:19Z</time>
      </trkpt>
      <trkpt lat="50.41407" lon="3.5441">
        <ele>33.783447</ele>
        <time>2011-06-26T07:24:24Z</time>
      </trkpt>
      <trkpt lat="50.41406" lon="3.54383">
        <ele>35.706054</ele>
        <time>2011-06-26T07:24:31Z</time>
      </trkpt>
      <trkpt lat="50.41398" lon="3.54367">
        <ele>36.186767</ele>
        <time>2011-06-26T07:24:36Z</time>
      </trkpt>
      <trkpt lat="50.41384" lon="3.54364">
        <ele>35.225463</ele>
        <time>2011-06-26T07:24:40Z</time>
      </trkpt>
      <trkpt lat="50.4137" lon="3.54374">
        <ele>33.302856</ele>
        <time>2011-06-26T07:24:44Z</time>
      </trkpt>
      <trkpt lat="50.41358" lon="3.54404">
        <ele>31.380127</ele>
        <time>2011-06-26T07:24:49Z</time>
      </trkpt>
      <trkpt lat="50.41342" lon="3.54446">
        <ele>28.976928</ele>
        <time>2011-06-26T07:24:55Z</time>
      </trkpt>
      <trkpt lat="50.41338" lon="3.54467">
        <ele>31.380127</ele>
        <time>2011-06-26T07:24:58Z</time>
      </trkpt>
      <trkpt lat="50.41332" lon="3.54479">
        <ele>31.380127</ele>
        <time>2011-06-26T07:25:01Z</time>
      </trkpt>
      <trkpt lat="50.41319" lon="3.54502">
        <ele>30.418823</ele>
        <time>2011-06-26T07:25:04Z</time>
      </trkpt>
      <trkpt lat="50.41308" lon="3.54522">
        <ele>30.418823</ele>
        <time>2011-06-26T07:25:06Z</time>
      </trkpt>
      <trkpt lat="50.41286" lon="3.54543">
        <ele>28.976928</ele>
        <time>2011-06-26T07:25:10Z</time>
      </trkpt>
      <trkpt lat="50.4128" lon="3.54549">
        <ele>27.534912</ele>
        <time>2011-06-26T07:25:12Z</time>
      </trkpt>
      <trkpt lat="50.41265" lon="3.54566">
        <ele>26.573608</ele>
        <time>2011-06-26T07:25:15Z</time>
      </trkpt>
      <trkpt lat="50.41255" lon="3.54568">
        <ele>25.612304</ele>
        <time>2011-06-26T07:25:19Z</time>
      </trkpt>
      <trkpt lat="50.41251" lon="3.54561">
        <ele>25.131713</ele>
        <time>2011-06-26T07:25:22Z</time>
      </trkpt>
      <trkpt lat="50.41233" lon="3.54545">
        <ele>26.092895</ele>
        <time>2011-06-26T07:25:27Z</time>
      </trkpt>
      <trkpt lat="50.41221" lon="3.54523">
        <ele>29.457519</ele>
        <time>2011-06-26T07:25:31Z</time>
      </trkpt>
      <trkpt lat="50.41212" lon="3.54498">
        <ele>31.860717</ele>
        <time>2011-06-26T07:25:35Z</time>
      </trkpt>
      <trkpt lat="50.41201" lon="3.54458">
        <ele>31.380127</ele>
        <time>2011-06-26T07:25:41Z</time>
      </trkpt>
      <trkpt lat="50.41199" lon="3.54452">
        <ele>30.899536</ele>
        <time>2011-06-26T07:25:42Z</time>
      </trkpt>
      <trkpt lat="50.41191" lon="3.54429">
        <ele>29.93811</ele>
        <time>2011-06-26T07:25:47Z</time>
      </trkpt>
      <trkpt lat="50.41186" lon="3.54421">
        <ele>32.341552</ele>
        <time>2011-06-26T07:25:49Z</time>
      </trkpt>
      <trkpt lat="50.41183" lon="3.54414">
        <ele>34.744873</ele>
        <time>2011-06-26T07:25:51Z</time>
      </trkpt>
      <trkpt lat="50.41188" lon="3.54378">
        <ele>40.512817</ele>
        <time>2011-06-26T07:25:57Z</time>
      </trkpt>
      <trkpt lat="50.41195" lon="3.54364">
        <ele>41.954711</ele>
        <time>2011-06-26T07:25:59Z</time>
      </trkpt>
      <trkpt lat="50.41212" lon="3.5434">
        <ele>44.838623</ele>
        <time>2011-06-26T07:26:03Z</time>
      </trkpt>
      <trkpt lat="50.41239" lon="3.54308">
        <ele>42.435424</ele>
        <time>2011-06-26T07:26:09Z</time>
      </trkpt>
      <trkpt lat="50.41268" lon="3.5427">
        <ele>38.590087</ele>
        <time>2011-06-26T07:26:16Z</time>
      </trkpt>
      <trkpt lat="50.41288" lon="3.54252">
        <ele>37.148071</ele>
        <time>2011-06-26T07:26:21Z</time>
      </trkpt>
      <trkpt lat="50.41322" lon="3.54209">
        <ele>34.26416</ele>
        <time>2011-06-26T07:26:29Z</time>
      </trkpt>
      <trkpt lat="50.41358" lon="3.54169">
        <ele>32.341552</ele>
        <time>2011-06-26T07:26:36Z</time>
      </trkpt>
      <trkpt lat="50.41397" lon="3.54125">
        <ele>31.860717</ele>
        <time>2011-06-26T07:26:44Z</time>
      </trkpt>
      <trkpt lat="50.41429" lon="3.54087">
        <ele>30.899536</ele>
        <time>2011-06-26T07:26:51Z</time>
      </trkpt>
      <trkpt lat="50.41434" lon="3.54082">
        <ele>30.899536</ele>
        <time>2011-06-26T07:26:52Z</time>
      </trkpt>
      <trkpt lat="50.41452" lon="3.54057">
        <ele>31.860717</ele>
        <time>2011-06-26T07:26:57Z</time>
      </trkpt>
      <trkpt lat="50.41459" lon="3.54049">
        <ele>33.302856</ele>
        <time>2011-06-26T07:27:01Z</time>
      </trkpt>
      <trkpt lat="50.41466" lon="3.54041">
        <ele>36.186767</ele>
        <time>2011-06-26T07:27:07Z</time>
      </trkpt>
      <trkpt lat="50.41469" lon="3.54024">
        <ele>35.706054</ele>
        <time>2011-06-26T07:27:12Z</time>
      </trkpt>
      <trkpt lat="50.41473" lon="3.53991">
        <ele>34.744873</ele>
        <time>2011-06-26T07:27:18Z</time>
      </trkpt>
      <trkpt lat="50.41482" lon="3.53944">
        <ele>34.26416</ele>
        <time>2011-06-26T07:27:25Z</time>
      </trkpt>
      <trkpt lat="50.41491" lon="3.53893">
        <ele>33.783447</ele>
        <time>2011-06-26T07:27:32Z</time>
      </trkpt>
      <trkpt lat="50.41499" lon="3.53847">
        <ele>33.783447</ele>
        <time>2011-06-26T07:27:38Z</time>
      </trkpt>
      <trkpt lat="50.41495" lon="3.5381">
        <ele>34.26416</ele>
        <time>2011-06-26T07:27:43Z</time>
      </trkpt>
      <trkpt lat="50.41483" lon="3.53802">
        <ele>32.822265</ele>
        <time>2011-06-26T07:27:46Z</time>
      </trkpt>
      <trkpt lat="50.41478" lon="3.538">
        <ele>31.860717</ele>
        <time>2011-06-26T07:27:47Z</time>
      </trkpt>
      <trkpt lat="50.41467" lon="3.53797">
        <ele>30.899536</ele>
        <time>2011-06-26T07:27:49Z</time>
      </trkpt>
      <trkpt lat="50.41447" lon="3.53788">
        <ele>28.015502</ele>
        <time>2011-06-26T07:27:53Z</time>
      </trkpt>
      <trkpt lat="50.41425" lon="3.53778">
        <ele>26.092895</ele>
        <time>2011-06-26T07:27:57Z</time>
      </trkpt>
      <trkpt lat="50.41385" lon="3.53763">
        <ele>24.651001</ele>
        <time>2011-06-26T07:28:04Z</time>
      </trkpt>
      <trkpt lat="50.41369" lon="3.53745">
        <ele>24.170288</ele>
        <time>2011-06-26T07:28:08Z</time>
      </trkpt>
      <trkpt lat="50.4137" lon="3.53736">
        <ele>23.689575</ele>
        <time>2011-06-26T07:28:09Z</time>
      </trkpt>
      <trkpt lat="50.41374" lon="3.53711">
        <ele>24.170288</ele>
        <time>2011-06-26T07:28:12Z</time>
      </trkpt>
      <trkpt lat="50.41377" lon="3.53678">
        <ele>25.612304</ele>
        <time>2011-06-26T07:28:16Z</time>
      </trkpt>
      <trkpt lat="50.4138" lon="3.5366">
        <ele>26.092895</ele>
        <time>2011-06-26T07:28:18Z</time>
      </trkpt>
      <trkpt lat="50.41381" lon="3.53643">
        <ele>27.054321</ele>
        <time>2011-06-26T07:28:20Z</time>
      </trkpt>
      <trkpt lat="50.41382" lon="3.53617">
        <ele>28.015502</ele>
        <time>2011-06-26T07:28:23Z</time>
      </trkpt>
      <trkpt lat="50.41388" lon="3.53585">
        <ele>28.976928</ele>
        <time>2011-06-26T07:28:28Z</time>
      </trkpt>
      <trkpt lat="50.41396" lon="3.53539">
        <ele>28.976928</ele>
        <time>2011-06-26T07:28:34Z</time>
      </trkpt>
      <trkpt lat="50.41406" lon="3.53499">
        <ele>31.860717</ele>
        <time>2011-06-26T07:28:39Z</time>
      </trkpt>
      <trkpt lat="50.41419" lon="3.53486">
        <ele>32.822265</ele>
        <time>2011-06-26T07:28:43Z</time>
      </trkpt>
      <trkpt lat="50.41429" lon="3.53481">
        <ele>32.822265</ele>
        <time>2011-06-26T07:28:46Z</time>
      </trkpt>
      <trkpt lat="50.41422" lon="3.53462">
        <ele>36.66748</ele>
        <time>2011-06-26T07:28:50Z</time>
      </trkpt>
      <trkpt lat="50.41422" lon="3.5345">
        <ele>37.148071</ele>
        <time>2011-06-26T07:28:52Z</time>
      </trkpt>
      <trkpt lat="50.41426" lon="3.53423">
        <ele>37.148071</ele>
        <time>2011-06-26T07:28:57Z</time>
      </trkpt>
      <trkpt lat="50.41431" lon="3.53392">
        <ele>34.744873</ele>
        <time>2011-06-26T07:29:02Z</time>
      </trkpt>
      <trkpt lat="50.41441" lon="3.5335">
        <ele>31.860717</ele>
        <time>2011-06-26T07:29:08Z</time>
      </trkpt>
      <trkpt lat="50.41442" lon="3.53342">
        <ele>31.860717</ele>
        <time>2011-06-26T07:29:09Z</time>
      </trkpt>
      <trkpt lat="50.41453" lon="3.53289">
        <ele>35.706054</ele>
        <time>2011-06-26T07:29:16Z</time>
      </trkpt>
      <trkpt lat="50.41458" lon="3.53265">
        <ele>36.66748</ele>
        <time>2011-06-26T07:29:19Z</time>
      </trkpt>
      <trkpt lat="50.4147" lon="3.53235">
        <ele>38.109375</ele>
        <time>2011-06-26T07:29:24Z</time>
      </trkpt>
      <trkpt lat="50.41477" lon="3.53217">
        <ele>40.032104</ele>
        <time>2011-06-26T07:29:28Z</time>
      </trkpt>
      <trkpt lat="50.41487" lon="3.5318">
        <ele>40.993408</ele>
        <time>2011-06-26T07:29:34Z</time>
      </trkpt>
      <trkpt lat="50.41496" lon="3.53153">
        <ele>40.032104</ele>
        <time>2011-06-26T07:29:38Z</time>
      </trkpt>
      <trkpt lat="50.41507" lon="3.53109">
        <ele>40.032104</ele>
        <time>2011-06-26T07:29:44Z</time>
      </trkpt>
      <trkpt lat="50.41515" lon="3.53073">
        <ele>40.032104</ele>
        <time>2011-06-26T07:29:49Z</time>
      </trkpt>
      <trkpt lat="50.41523" lon="3.53028">
        <ele>40.512817</ele>
        <time>2011-06-26T07:29:54Z</time>
      </trkpt>
      <trkpt lat="50.41532" lon="3.52981">
        <ele>41.473999</ele>
        <time>2011-06-26T07:29:59Z</time>
      </trkpt>
      <trkpt lat="50.41539" lon="3.52945">
        <ele>40.993408</ele>
        <time>2011-06-26T07:30:03Z</time>
      </trkpt>
      <trkpt lat="50.41543" lon="3.52908">
        <ele>40.512817</ele>
        <time>2011-06-26T07:30:08Z</time>
      </trkpt>
      <trkpt lat="50.41533" lon="3.52875">
        <ele>38.590087</ele>
        <time>2011-06-26T07:30:13Z</time>
      </trkpt>
      <trkpt lat="50.4153" lon="3.52886">
        <ele>39.551269</ele>
        <time>2011-06-26T07:30:15Z</time>
      </trkpt>
      <trkpt lat="50.41516" lon="3.52937">
        <ele>36.66748</ele>
        <time>2011-06-26T07:30:21Z</time>
      </trkpt>
      <trkpt lat="50.4151" lon="3.5298">
        <ele>36.186767</ele>
        <time>2011-06-26T07:30:26Z</time>
      </trkpt>
      <trkpt lat="50.41496" lon="3.5303">
        <ele>39.070678</ele>
        <time>2011-06-26T07:30:32Z</time>
      </trkpt>
      <trkpt lat="50.41494" lon="3.53039">
        <ele>40.032104</ele>
        <time>2011-06-26T07:30:33Z</time>
      </trkpt>
      <trkpt lat="50.41489" lon="3.53055">
        <ele>42.435424</ele>
        <time>2011-06-26T07:30:35Z</time>
      </trkpt>
      <trkpt lat="50.4148" lon="3.53117">
        <ele>38.590087</ele>
        <time>2011-06-26T07:30:41Z</time>
      </trkpt>
      <trkpt lat="50.41472" lon="3.53146">
        <ele>39.070678</ele>
        <time>2011-06-26T07:30:44Z</time>
      </trkpt>
      <trkpt lat="50.41463" lon="3.53183">
        <ele>40.512817</ele>
        <time>2011-06-26T07:30:48Z</time>
      </trkpt>
      <trkpt lat="50.41445" lon="3.53232">
        <ele>41.954711</ele>
        <time>2011-06-26T07:30:53Z</time>
      </trkpt>
      <trkpt lat="50.41427" lon="3.53288">
        <ele>42.916015</ele>
        <time>2011-06-26T07:30:59Z</time>
      </trkpt>
      <trkpt lat="50.41419" lon="3.53314">
        <ele>42.916015</ele>
        <time>2011-06-26T07:31:02Z</time>
      </trkpt>
      <trkpt lat="50.41412" lon="3.53349">
        <ele>40.993408</ele>
        <time>2011-06-26T07:31:06Z</time>
      </trkpt>
      <trkpt lat="50.41405" lon="3.53364">
        <ele>40.032104</ele>
        <time>2011-06-26T07:31:10Z</time>
      </trkpt>
      <trkpt lat="50.41402" lon="3.53359">
        <ele>39.551269</ele>
        <time>2011-06-26T07:31:11Z</time>
      </trkpt>
      <trkpt lat="50.41391" lon="3.53341">
        <ele>37.628662</ele>
        <time>2011-06-26T07:31:14Z</time>
      </trkpt>
      <trkpt lat="50.41365" lon="3.53328">
        <ele>32.341552</ele>
        <time>2011-06-26T07:31:18Z</time>
      </trkpt>
      <trkpt lat="50.4133" lon="3.53304">
        <ele>27.534912</ele>
        <time>2011-06-26T07:31:24Z</time>
      </trkpt>
      <trkpt lat="50.41302" lon="3.53281">
        <ele>24.651001</ele>
        <time>2011-06-26T07:31:29Z</time>
      </trkpt>
      <trkpt lat="50.4128" lon="3.53265">
        <ele>23.208984</ele>
        <time>2011-06-26T07:31:33Z</time>
      </trkpt>
      <trkpt lat="50.41266" lon="3.53248">
        <ele>23.689575</ele>
        <time>2011-06-26T07:31:36Z</time>
      </trkpt>
      <trkpt lat="50.4124" lon="3.53215">
        <ele>24.651001</ele>
        <time>2011-06-26T07:31:42Z</time>
      </trkpt>
      <trkpt lat="50.41214" lon="3.53191">
        <ele>21.766967</ele>
        <time>2011-06-26T07:31:48Z</time>
      </trkpt>
      <trkpt lat="50.4121" lon="3.53188">
        <ele>22.247558</ele>
        <time>2011-06-26T07:31:49Z</time>
      </trkpt>
      <trkpt lat="50.41199" lon="3.53176">
        <ele>24.651001</ele>
        <time>2011-06-26T07:31:53Z</time>
      </trkpt>
      <trkpt lat="50.412" lon="3.53166">
        <ele>27.054321</ele>
        <time>2011-06-26T07:31:58Z</time>
      </trkpt>
      <trkpt lat="50.41199" lon="3.53165">
        <ele>27.534912</ele>
        <time>2011-06-26T07:32:02Z</time>
      </trkpt>
      <trkpt lat="50.41203" lon="3.53148">
        <ele>49.645263</ele>
        <time>2011-06-26T07:32:59Z</time>
      </trkpt>
      <trkpt lat="50.41203" lon="3.53144">
        <ele>49.16455</ele>
        <time>2011-06-26T07:33:00Z</time>
      </trkpt>
      <trkpt lat="50.41203" lon="3.53132">
        <ele>44.838623</ele>
        <time>2011-06-26T07:33:02Z</time>
      </trkpt>
      <trkpt lat="50.41208" lon="3.53089">
        <ele>42.435424</ele>
        <time>2011-06-26T07:33:09Z</time>
      </trkpt>
      <trkpt lat="50.41212" lon="3.53054">
        <ele>41.473999</ele>
        <time>2011-06-26T07:33:14Z</time>
      </trkpt>
      <trkpt lat="50.41216" lon="3.53018">
        <ele>41.473999</ele>
        <time>2011-06-26T07:33:19Z</time>
      </trkpt>
      <trkpt lat="50.4122" lon="3.53014">
        <ele>37.148071</ele>
        <time>2011-06-26T07:33:23Z</time>
      </trkpt>
      <trkpt lat="50.41223" lon="3.53016">
        <ele>37.148071</ele>
        <time>2011-06-26T07:33:24Z</time>
      </trkpt>
      <trkpt lat="50.41248" lon="3.53024">
        <ele>36.186767</ele>
        <time>2011-06-26T07:33:30Z</time>
      </trkpt>
      <trkpt lat="50.41263" lon="3.53005">
        <ele>36.66748</ele>
        <time>2011-06-26T07:33:34Z</time>
      </trkpt>
      <trkpt lat="50.41291" lon="3.52957">
        <ele>33.783447</ele>
        <time>2011-06-26T07:33:42Z</time>
      </trkpt>
      <trkpt lat="50.41315" lon="3.52916">
        <ele>28.496215</ele>
        <time>2011-06-26T07:33:49Z</time>
      </trkpt>
      <trkpt lat="50.41334" lon="3.52876">
        <ele>31.380127</ele>
        <time>2011-06-26T07:33:55Z</time>
      </trkpt>
      <trkpt lat="50.41345" lon="3.52848">
        <ele>31.860717</ele>
        <time>2011-06-26T07:33:59Z</time>
      </trkpt>
      <trkpt lat="50.41347" lon="3.52841">
        <ele>33.783447</ele>
        <time>2011-06-26T07:34:00Z</time>
      </trkpt>
      <trkpt lat="50.41363" lon="3.52805">
        <ele>36.186767</ele>
        <time>2011-06-26T07:34:06Z</time>
      </trkpt>
      <trkpt lat="50.41372" lon="3.5278">
        <ele>37.148071</ele>
        <time>2011-06-26T07:34:11Z</time>
      </trkpt>
      <trkpt lat="50.4138" lon="3.52757">
        <ele>36.186767</ele>
        <time>2011-06-26T07:34:16Z</time>
      </trkpt>
      <trkpt lat="50.4139" lon="3.52729">
        <ele>38.109375</ele>
        <time>2011-06-26T07:34:22Z</time>
      </trkpt>
      <trkpt lat="50.41399" lon="3.52708">
        <ele>39.551269</ele>
        <time>2011-06-26T07:34:27Z</time>
      </trkpt>
      <trkpt lat="50.41396" lon="3.52699">
        <ele>36.186767</ele>
        <time>2011-06-26T07:34:31Z</time>
      </trkpt>
      <trkpt lat="50.41394" lon="3.52694">
        <ele>34.744873</ele>
        <time>2011-06-26T07:34:33Z</time>
      </trkpt>
      <trkpt lat="50.41395" lon="3.52677">
        <ele>34.744873</ele>
        <time>2011-06-26T07:34:38Z</time>
      </trkpt>
      <trkpt lat="50.41401" lon="3.52656">
        <ele>34.26416</ele>
        <time>2011-06-26T07:34:44Z</time>
      </trkpt>
      <trkpt lat="50.4141" lon="3.52635">
        <ele>41.473999</ele>
        <time>2011-06-26T07:34:50Z</time>
      </trkpt>
      <trkpt lat="50.41417" lon="3.52621">
        <ele>52.048584</ele>
        <time>2011-06-26T07:34:56Z</time>
      </trkpt>
      <trkpt lat="50.41421" lon="3.52602">
        <ele>58.297119</ele>
        <time>2011-06-26T07:35:05Z</time>
      </trkpt>
      <trkpt lat="50.41422" lon="3.52598">
        <ele>61.18103</ele>
        <time>2011-06-26T07:35:07Z</time>
      </trkpt>
      <trkpt lat="50.41422" lon="3.52595">
        <ele>63.58435</ele>
        <time>2011-06-26T07:35:09Z</time>
      </trkpt>
      <trkpt lat="50.41423" lon="3.52583">
        <ele>62.622924</ele>
        <time>2011-06-26T07:35:15Z</time>
      </trkpt>
      <trkpt lat="50.41423" lon="3.52578">
        <ele>60.219726</ele>
        <time>2011-06-26T07:35:17Z</time>
      </trkpt>
      <trkpt lat="50.41423" lon="3.52571">
        <ele>57.816528</ele>
        <time>2011-06-26T07:35:20Z</time>
      </trkpt>
      <trkpt lat="50.41422" lon="3.52557">
        <ele>57.816528</ele>
        <time>2011-06-26T07:35:26Z</time>
      </trkpt>
      <trkpt lat="50.41423" lon="3.52546">
        <ele>54.932373</ele>
        <time>2011-06-26T07:35:30Z</time>
      </trkpt>
      <trkpt lat="50.41429" lon="3.52525">
        <ele>54.451782</ele>
        <time>2011-06-26T07:35:38Z</time>
      </trkpt>
      <trkpt lat="50.41436" lon="3.52507">
        <ele>55.893798</ele>
        <time>2011-06-26T07:35:45Z</time>
      </trkpt>
      <trkpt lat="50.4144" lon="3.525">
        <ele>58.297119</ele>
        <time>2011-06-26T07:35:48Z</time>
      </trkpt>
      <trkpt lat="50.41447" lon="3.52485">
        <ele>62.622924</ele>
        <time>2011-06-26T07:35:54Z</time>
      </trkpt>
      <trkpt lat="50.4145" lon="3.52464">
        <ele>58.297119</ele>
        <time>2011-06-26T07:36:00Z</time>
      </trkpt>
      <trkpt lat="50.41459" lon="3.52442">
        <ele>64.065063</ele>
        <time>2011-06-26T07:36:08Z</time>
      </trkpt>
      <trkpt lat="50.41468" lon="3.5243">
        <ele>66.948974</ele>
        <time>2011-06-26T07:36:14Z</time>
      </trkpt>
      <trkpt lat="50.41475" lon="3.52417">
        <ele>68.390869</ele>
        <time>2011-06-26T07:36:19Z</time>
      </trkpt>
      <trkpt lat="50.4148" lon="3.52386">
        <ele>62.142334</ele>
        <time>2011-06-26T07:36:28Z</time>
      </trkpt>
      <trkpt lat="50.41481" lon="3.52381">
        <ele>62.142334</ele>
        <time>2011-06-26T07:36:30Z</time>
      </trkpt>
      <trkpt lat="50.41479" lon="3.52358">
        <ele>57.816528</ele>
        <time>2011-06-26T07:36:37Z</time>
      </trkpt>
      <trkpt lat="50.41479" lon="3.52355">
        <ele>57.816528</ele>
        <time>2011-06-26T07:36:38Z</time>
      </trkpt>
      <trkpt lat="50.41478" lon="3.52336">
        <ele>58.297119</ele>
        <time>2011-06-26T07:36:44Z</time>
      </trkpt>
      <trkpt lat="50.41479" lon="3.52317">
        <ele>55.893798</ele>
        <time>2011-06-26T07:36:50Z</time>
      </trkpt>
      <trkpt lat="50.41474" lon="3.52304">
        <ele>56.855102</ele>
        <time>2011-06-26T07:36:55Z</time>
      </trkpt>
      <trkpt lat="50.41471" lon="3.52292">
        <ele>57.816528</ele>
        <time>2011-06-26T07:37:00Z</time>
      </trkpt>
      <trkpt lat="50.41465" lon="3.52274">
        <ele>60.700317</ele>
        <time>2011-06-26T07:37:08Z</time>
      </trkpt>
      <trkpt lat="50.41462" lon="3.52258">
        <ele>64.065063</ele>
        <time>2011-06-26T07:37:15Z</time>
      </trkpt>
      <trkpt lat="50.41456" lon="3.52248">
        <ele>64.545654</ele>
        <time>2011-06-26T07:37:21Z</time>
      </trkpt>
      <trkpt lat="50.41452" lon="3.52237">
        <ele>65.50708</ele>
        <time>2011-06-26T07:37:27Z</time>
      </trkpt>
      <trkpt lat="50.41451" lon="3.5223">
        <ele>68.390869</ele>
        <time>2011-06-26T07:37:30Z</time>
      </trkpt>
      <trkpt lat="50.41449" lon="3.52222">
        <ele>68.871582</ele>
        <time>2011-06-26T07:37:34Z</time>
      </trkpt>
      <trkpt lat="50.41445" lon="3.52211">
        <ele>73.197631</ele>
        <time>2011-06-26T07:37:41Z</time>
      </trkpt>
      <trkpt lat="50.41438" lon="3.52211">
        <ele>77.042846</ele>
        <time>2011-06-26T07:37:49Z</time>
      </trkpt>
      <trkpt lat="50.41429" lon="3.52215">
        <ele>81.368774</ele>
        <time>2011-06-26T07:37:57Z</time>
      </trkpt>
      <trkpt lat="50.41427" lon="3.52216">
        <ele>82.330078</ele>
        <time>2011-06-26T07:37:59Z</time>
      </trkpt>
      <trkpt lat="50.41422" lon="3.52226">
        <ele>80.888183</ele>
        <time>2011-06-26T07:38:04Z</time>
      </trkpt>
      <trkpt lat="50.41418" lon="3.52242">
        <ele>82.330078</ele>
        <time>2011-06-26T07:38:11Z</time>
      </trkpt>
      <trkpt lat="50.41423" lon="3.52265">
        <ele>84.733398</ele>
        <time>2011-06-26T07:38:17Z</time>
      </trkpt>
      <trkpt lat="50.41424" lon="3.52278">
        <ele>85.69458</ele>
        <time>2011-06-26T07:38:21Z</time>
      </trkpt>
      <trkpt lat="50.41427" lon="3.52299">
        <ele>86.175293</ele>
        <time>2011-06-26T07:38:24Z</time>
      </trkpt>
      <trkpt lat="50.41443" lon="3.52346">
        <ele>85.213989</ele>
        <time>2011-06-26T07:38:31Z</time>
      </trkpt>
      <trkpt lat="50.41437" lon="3.52392">
        <ele>83.291381</ele>
        <time>2011-06-26T07:38:35Z</time>
      </trkpt>
      <trkpt lat="50.41427" lon="3.52418">
        <ele>81.849365</ele>
        <time>2011-06-26T07:38:37Z</time>
      </trkpt>
      <trkpt lat="50.41418" lon="3.52446">
        <ele>80.40747</ele>
        <time>2011-06-26T07:38:39Z</time>
      </trkpt>
      <trkpt lat="50.41394" lon="3.5249">
        <ele>76.562133</ele>
        <time>2011-06-26T07:38:43Z</time>
      </trkpt>
      <trkpt lat="50.41382" lon="3.52509">
        <ele>75.60083</ele>
        <time>2011-06-26T07:38:46Z</time>
      </trkpt>
      <trkpt lat="50.41375" lon="3.52541">
        <ele>70.313476</ele>
        <time>2011-06-26T07:38:51Z</time>
      </trkpt>
      <trkpt lat="50.41366" lon="3.52563">
        <ele>66.468261</ele>
        <time>2011-06-26T07:38:54Z</time>
      </trkpt>
      <trkpt lat="50.41355" lon="3.52582">
        <ele>60.700317</ele>
        <time>2011-06-26T07:38:59Z</time>
      </trkpt>
      <trkpt lat="50.41354" lon="3.52589">
        <ele>61.18103</ele>
        <time>2011-06-26T07:39:01Z</time>
      </trkpt>
      <trkpt lat="50.41354" lon="3.52598">
        <ele>59.258422</ele>
        <time>2011-06-26T07:39:03Z</time>
      </trkpt>
      <trkpt lat="50.41355" lon="3.52601">
        <ele>53.971191</ele>
        <time>2011-06-26T07:39:07Z</time>
      </trkpt>
      <trkpt lat="50.41347" lon="3.5261">
        <ele>53.009765</ele>
        <time>2011-06-26T07:39:18Z</time>
      </trkpt>
      <trkpt lat="50.41338" lon="3.52625">
        <ele>53.009765</ele>
        <time>2011-06-26T07:39:20Z</time>
      </trkpt>
      <trkpt lat="50.41326" lon="3.52623">
        <ele>50.606567</ele>
        <time>2011-06-26T07:39:25Z</time>
      </trkpt>
      <trkpt lat="50.41321" lon="3.52618">
        <ele>49.645263</ele>
        <time>2011-06-26T07:39:27Z</time>
      </trkpt>
      <trkpt lat="50.4131" lon="3.52608">
        <ele>47.722534</ele>
        <time>2011-06-26T07:39:32Z</time>
      </trkpt>
      <trkpt lat="50.41304" lon="3.5262">
        <ele>46.76123</ele>
        <time>2011-06-26T07:39:36Z</time>
      </trkpt>
      <trkpt lat="50.41284" lon="3.52643">
        <ele>42.435424</ele>
        <time>2011-06-26T07:39:41Z</time>
      </trkpt>
      <trkpt lat="50.41278" lon="3.52644">
        <ele>41.473999</ele>
        <time>2011-06-26T07:39:42Z</time>
      </trkpt>
      <trkpt lat="50.4126" lon="3.52654">
        <ele>37.628662</ele>
        <time>2011-06-26T07:39:46Z</time>
      </trkpt>
      <trkpt lat="50.41257" lon="3.5265">
        <ele>38.590087</ele>
        <time>2011-06-26T07:39:49Z</time>
      </trkpt>
      <trkpt lat="50.41258" lon="3.5264">
        <ele>39.070678</ele>
        <time>2011-06-26T07:39:54Z</time>
      </trkpt>
      <trkpt lat="50.41258" lon="3.52638">
        <ele>38.590087</ele>
        <time>2011-06-26T07:39:57Z</time>
      </trkpt>
      <trkpt lat="50.41254" lon="3.5263">
        <ele>34.744873</ele>
        <time>2011-06-26T07:43:44Z</time>
      </trkpt>
      <trkpt lat="50.41255" lon="3.52627">
        <ele>34.744873</ele>
        <time>2011-06-26T07:43:45Z</time>
      </trkpt>
      <trkpt lat="50.41254" lon="3.52621">
        <ele>35.706054</ele>
        <time>2011-06-26T07:43:46Z</time>
      </trkpt>
      <trkpt lat="50.41255" lon="3.52612">
        <ele>37.148071</ele>
        <time>2011-06-26T07:43:49Z</time>
      </trkpt>
      <trkpt lat="50.41252" lon="3.5259">
        <ele>38.590087</ele>
        <time>2011-06-26T07:43:56Z</time>
      </trkpt>
      <trkpt lat="50.41248" lon="3.52576">
        <ele>38.109375</ele>
        <time>2011-06-26T07:44:00Z</time>
      </trkpt>
      <trkpt lat="50.41244" lon="3.52568">
        <ele>37.148071</ele>
        <time>2011-06-26T07:44:03Z</time>
      </trkpt>
      <trkpt lat="50.41241" lon="3.5256">
        <ele>35.706054</ele>
        <time>2011-06-26T07:44:06Z</time>
      </trkpt>
      <trkpt lat="50.41239" lon="3.52558">
        <ele>35.225463</ele>
        <time>2011-06-26T07:44:07Z</time>
      </trkpt>
      <trkpt lat="50.41236" lon="3.52551">
        <ele>34.26416</ele>
        <time>2011-06-26T07:44:10Z</time>
      </trkpt>
      <trkpt lat="50.41225" lon="3.52536">
        <ele>36.186767</ele>
        <time>2011-06-26T07:44:18Z</time>
      </trkpt>
      <trkpt lat="50.41217" lon="3.52527">
        <ele>39.070678</ele>
        <time>2011-06-26T07:44:24Z</time>
      </trkpt>
      <trkpt lat="50.41209" lon="3.52515">
        <ele>41.954711</ele>
        <time>2011-06-26T07:44:31Z</time>
      </trkpt>
      <trkpt lat="50.41198" lon="3.52504">
        <ele>45.799926</ele>
        <time>2011-06-26T07:44:39Z</time>
      </trkpt>
      <trkpt lat="50.41184" lon="3.52492">
        <ele>47.722534</ele>
        <time>2011-06-26T07:44:48Z</time>
      </trkpt>
      <trkpt lat="50.41169" lon="3.52476">
        <ele>49.645263</ele>
        <time>2011-06-26T07:44:57Z</time>
      </trkpt>
      <trkpt lat="50.4116" lon="3.52461">
        <ele>52.529174</ele>
        <time>2011-06-26T07:45:04Z</time>
      </trkpt>
      <trkpt lat="50.41156" lon="3.52447">
        <ele>53.490478</ele>
        <time>2011-06-26T07:45:10Z</time>
      </trkpt>
      <trkpt lat="50.41157" lon="3.5243">
        <ele>54.932373</ele>
        <time>2011-06-26T07:45:17Z</time>
      </trkpt>
      <trkpt lat="50.41158" lon="3.52422">
        <ele>56.374511</ele>
        <time>2011-06-26T07:45:20Z</time>
      </trkpt>
      <trkpt lat="50.41161" lon="3.524">
        <ele>61.661743</ele>
        <time>2011-06-26T07:45:28Z</time>
      </trkpt>
      <trkpt lat="50.41166" lon="3.52385">
        <ele>63.103637</ele>
        <time>2011-06-26T07:45:35Z</time>
      </trkpt>
      <trkpt lat="50.41177" lon="3.52369">
        <ele>61.18103</ele>
        <time>2011-06-26T07:45:43Z</time>
      </trkpt>
      <trkpt lat="50.4119" lon="3.52352">
        <ele>57.816528</ele>
        <time>2011-06-26T07:45:51Z</time>
      </trkpt>
      <trkpt lat="50.412" lon="3.52338">
        <ele>54.451782</ele>
        <time>2011-06-26T07:45:58Z</time>
      </trkpt>
      <trkpt lat="50.41213" lon="3.52324">
        <ele>51.567871</ele>
        <time>2011-06-26T07:46:05Z</time>
      </trkpt>
      <trkpt lat="50.41227" lon="3.5231">
        <ele>52.048584</ele>
        <time>2011-06-26T07:46:13Z</time>
      </trkpt>
      <trkpt lat="50.41236" lon="3.52297">
        <ele>53.490478</ele>
        <time>2011-06-26T07:46:19Z</time>
      </trkpt>
      <trkpt lat="50.41245" lon="3.52274">
        <ele>63.58435</ele>
        <time>2011-06-26T07:46:27Z</time>
      </trkpt>
      <trkpt lat="50.41254" lon="3.52241">
        <ele>69.832885</ele>
        <time>2011-06-26T07:46:37Z</time>
      </trkpt>
      <trkpt lat="50.41265" lon="3.52218">
        <ele>71.274902</ele>
        <time>2011-06-26T07:46:45Z</time>
      </trkpt>
      <trkpt lat="50.4127" lon="3.522">
        <ele>73.197631</ele>
        <time>2011-06-26T07:46:50Z</time>
      </trkpt>
      <trkpt lat="50.4127" lon="3.52174">
        <ele>74.639526</ele>
        <time>2011-06-26T07:46:53Z</time>
      </trkpt>
      <trkpt lat="50.41269" lon="3.52161">
        <ele>76.562133</ele>
        <time>2011-06-26T07:46:56Z</time>
      </trkpt>
      <trkpt lat="50.41261" lon="3.52146">
        <ele>76.562133</ele>
        <time>2011-06-26T07:47:02Z</time>
      </trkpt>
      <trkpt lat="50.41247" lon="3.52136">
        <ele>76.08142</ele>
        <time>2011-06-26T07:47:09Z</time>
      </trkpt>
      <trkpt lat="50.41235" lon="3.52114">
        <ele>78.004028</ele>
        <time>2011-06-26T07:47:15Z</time>
      </trkpt>
      <trkpt lat="50.41229" lon="3.5209">
        <ele>77.523437</ele>
        <time>2011-06-26T07:47:19Z</time>
      </trkpt>
      <trkpt lat="50.41229" lon="3.52066">
        <ele>77.523437</ele>
        <time>2011-06-26T07:47:22Z</time>
      </trkpt>
      <trkpt lat="50.4124" lon="3.52057">
        <ele>78.004028</ele>
        <time>2011-06-26T07:47:26Z</time>
      </trkpt>
      <trkpt lat="50.41242" lon="3.52053">
        <ele>78.965454</ele>
        <time>2011-06-26T07:47:27Z</time>
      </trkpt>
      <trkpt lat="50.41253" lon="3.52034">
        <ele>80.40747</ele>
        <time>2011-06-26T07:47:32Z</time>
      </trkpt>
      <trkpt lat="50.41259" lon="3.52015">
        <ele>81.849365</ele>
        <time>2011-06-26T07:47:36Z</time>
      </trkpt>
      <trkpt lat="50.41255" lon="3.51998">
        <ele>81.849365</ele>
        <time>2011-06-26T07:47:39Z</time>
      </trkpt>
      <trkpt lat="50.41255" lon="3.51975">
        <ele>80.888183</ele>
        <time>2011-06-26T07:47:43Z</time>
      </trkpt>
      <trkpt lat="50.4126" lon="3.5196">
        <ele>80.888183</ele>
        <time>2011-06-26T07:47:45Z</time>
      </trkpt>
      <trkpt lat="50.41265" lon="3.51935">
        <ele>81.368774</ele>
        <time>2011-06-26T07:47:49Z</time>
      </trkpt>
      <trkpt lat="50.41278" lon="3.51905">
        <ele>82.810791</ele>
        <time>2011-06-26T07:47:55Z</time>
      </trkpt>
      <trkpt lat="50.41281" lon="3.51887">
        <ele>83.291381</ele>
        <time>2011-06-26T07:47:59Z</time>
      </trkpt>
      <trkpt lat="50.41279" lon="3.51867">
        <ele>82.810791</ele>
        <time>2011-06-26T07:48:03Z</time>
      </trkpt>
      <trkpt lat="50.41282" lon="3.51851">
        <ele>83.291381</ele>
        <time>2011-06-26T07:48:06Z</time>
      </trkpt>
      <trkpt lat="50.41283" lon="3.51833">
        <ele>83.291381</ele>
        <time>2011-06-26T07:48:09Z</time>
      </trkpt>
      <trkpt lat="50.41289" lon="3.51835">
        <ele>83.291381</ele>
        <time>2011-06-26T07:48:12Z</time>
      </trkpt>
      <trkpt lat="50.41292" lon="3.51841">
        <ele>84.252685</ele>
        <time>2011-06-26T07:48:14Z</time>
      </trkpt>
      <trkpt lat="50.413" lon="3.51853">
        <ele>86.656005</ele>
        <time>2011-06-26T07:48:18Z</time>
      </trkpt>
      <trkpt lat="50.41308" lon="3.51856">
        <ele>87.136596</ele>
        <time>2011-06-26T07:48:21Z</time>
      </trkpt>
      <trkpt lat="50.41319" lon="3.51835">
        <ele>88.578735</ele>
        <time>2011-06-26T07:48:27Z</time>
      </trkpt>
      <trkpt lat="50.4132" lon="3.51829">
        <ele>88.578735</ele>
        <time>2011-06-26T07:48:28Z</time>
      </trkpt>
      <trkpt lat="50.41325" lon="3.51795">
        <ele>88.098022</ele>
        <time>2011-06-26T07:48:34Z</time>
      </trkpt>
      <trkpt lat="50.41332" lon="3.51769">
        <ele>88.578735</ele>
        <time>2011-06-26T07:48:40Z</time>
      </trkpt>
      <trkpt lat="50.41342" lon="3.51752">
        <ele>89.059326</ele>
        <time>2011-06-26T07:48:46Z</time>
      </trkpt>
      <trkpt lat="50.41344" lon="3.51747">
        <ele>88.578735</ele>
        <time>2011-06-26T07:48:48Z</time>
      </trkpt>
      <trkpt lat="50.41345" lon="3.51743">
        <ele>89.539917</ele>
        <time>2011-06-26T07:48:52Z</time>
      </trkpt>
      <trkpt lat="50.41348" lon="3.51739">
        <ele>83.771972</ele>
        <time>2011-06-26T07:53:58Z</time>
      </trkpt>
      <trkpt lat="50.4135" lon="3.51736">
        <ele>83.771972</ele>
        <time>2011-06-26T07:53:59Z</time>
      </trkpt>
      <trkpt lat="50.41354" lon="3.51731">
        <ele>83.771972</ele>
        <time>2011-06-26T07:54:00Z</time>
      </trkpt>
      <trkpt lat="50.41362" lon="3.51714">
        <ele>84.252685</ele>
        <time>2011-06-26T07:54:04Z</time>
      </trkpt>
      <trkpt lat="50.41372" lon="3.51704">
        <ele>83.771972</ele>
        <time>2011-06-26T07:54:07Z</time>
      </trkpt>
      <trkpt lat="50.41375" lon="3.51702">
        <ele>83.771972</ele>
        <time>2011-06-26T07:54:08Z</time>
      </trkpt>
      <trkpt lat="50.41391" lon="3.51672">
        <ele>83.291381</ele>
        <time>2011-06-26T07:54:13Z</time>
      </trkpt>
      <trkpt lat="50.41401" lon="3.51642">
        <ele>82.330078</ele>
        <time>2011-06-26T07:54:18Z</time>
      </trkpt>
      <trkpt lat="50.41411" lon="3.51631">
        <ele>81.368774</ele>
        <time>2011-06-26T07:54:21Z</time>
      </trkpt>
      <trkpt lat="50.41432" lon="3.51655">
        <ele>85.213989</ele>
        <time>2011-06-26T07:54:27Z</time>
      </trkpt>
      <trkpt lat="50.41448" lon="3.51655">
        <ele>86.175293</ele>
        <time>2011-06-26T07:54:31Z</time>
      </trkpt>
      <trkpt lat="50.41455" lon="3.51646">
        <ele>85.213989</ele>
        <time>2011-06-26T07:54:33Z</time>
      </trkpt>
      <trkpt lat="50.4146" lon="3.51643">
        <ele>85.213989</ele>
        <time>2011-06-26T07:54:34Z</time>
      </trkpt>
      <trkpt lat="50.41467" lon="3.51642">
        <ele>85.213989</ele>
        <time>2011-06-26T07:54:36Z</time>
      </trkpt>
      <trkpt lat="50.41485" lon="3.5165">
        <ele>84.252685</ele>
        <time>2011-06-26T07:54:40Z</time>
      </trkpt>
      <trkpt lat="50.41491" lon="3.51671">
        <ele>85.213989</ele>
        <time>2011-06-26T07:54:43Z</time>
      </trkpt>
      <trkpt lat="50.41494" lon="3.51683">
        <ele>85.213989</ele>
        <time>2011-06-26T07:54:45Z</time>
      </trkpt>
      <trkpt lat="50.41499" lon="3.51693">
        <ele>85.213989</ele>
        <time>2011-06-26T07:54:47Z</time>
      </trkpt>
      <trkpt lat="50.415" lon="3.51718">
        <ele>87.136596</ele>
        <time>2011-06-26T07:54:51Z</time>
      </trkpt>
      <trkpt lat="50.41495" lon="3.51754">
        <ele>88.098022</ele>
        <time>2011-06-26T07:54:55Z</time>
      </trkpt>
      <trkpt lat="50.41495" lon="3.51765">
        <ele>88.578735</ele>
        <time>2011-06-26T07:54:58Z</time>
      </trkpt>
      <trkpt lat="50.41494" lon="3.51781">
        <ele>86.175293</ele>
        <time>2011-06-26T07:55:03Z</time>
      </trkpt>
      <trkpt lat="50.41493" lon="3.518">
        <ele>83.291381</ele>
        <time>2011-06-26T07:55:06Z</time>
      </trkpt>
      <trkpt lat="50.41482" lon="3.51815">
        <ele>78.965454</ele>
        <time>2011-06-26T07:55:11Z</time>
      </trkpt>
      <trkpt lat="50.41477" lon="3.51817">
        <ele>77.042846</ele>
        <time>2011-06-26T07:55:13Z</time>
      </trkpt>
      <trkpt lat="50.41478" lon="3.51829">
        <ele>72.236206</ele>
        <time>2011-06-26T07:55:18Z</time>
      </trkpt>
      <trkpt lat="50.41491" lon="3.51858">
        <ele>64.545654</ele>
        <time>2011-06-26T07:55:26Z</time>
      </trkpt>
      <trkpt lat="50.41495" lon="3.5187">
        <ele>62.142334</ele>
        <time>2011-06-26T07:55:32Z</time>
      </trkpt>
      <trkpt lat="50.41504" lon="3.51893">
        <ele>55.413085</ele>
        <time>2011-06-26T07:55:39Z</time>
      </trkpt>
      <trkpt lat="50.41512" lon="3.51918">
        <ele>49.645263</ele>
        <time>2011-06-26T07:55:43Z</time>
      </trkpt>
      <trkpt lat="50.4152" lon="3.5194">
        <ele>45.319213</ele>
        <time>2011-06-26T07:55:46Z</time>
      </trkpt>
      <trkpt lat="50.41526" lon="3.51944">
        <ele>42.435424</ele>
        <time>2011-06-26T07:55:49Z</time>
      </trkpt>
      <trkpt lat="50.41531" lon="3.51929">
        <ele>36.66748</ele>
        <time>2011-06-26T07:55:55Z</time>
      </trkpt>
      <trkpt lat="50.41541" lon="3.51897">
        <ele>30.418823</ele>
        <time>2011-06-26T07:56:02Z</time>
      </trkpt>
      <trkpt lat="50.41543" lon="3.51887">
        <ele>27.534912</ele>
        <time>2011-06-26T07:56:04Z</time>
      </trkpt>
      <trkpt lat="50.41552" lon="3.5188">
        <ele>24.651001</ele>
        <time>2011-06-26T07:56:08Z</time>
      </trkpt>
      <trkpt lat="50.41561" lon="3.51881">
        <ele>23.689575</ele>
        <time>2011-06-26T07:56:11Z</time>
      </trkpt>
      <trkpt lat="50.41574" lon="3.51884">
        <ele>23.689575</ele>
        <time>2011-06-26T07:56:17Z</time>
      </trkpt>
      <trkpt lat="50.41576" lon="3.51883">
        <ele>23.689575</ele>
        <time>2011-06-26T07:56:18Z</time>
      </trkpt>
      <trkpt lat="50.41583" lon="3.51875">
        <ele>26.573608</ele>
        <time>2011-06-26T07:56:23Z</time>
      </trkpt>
      <trkpt lat="50.41592" lon="3.51869">
        <ele>31.380127</ele>
        <time>2011-06-26T07:56:28Z</time>
      </trkpt>
      <trkpt lat="50.41595" lon="3.5186">
        <ele>32.822265</ele>
        <time>2011-06-26T07:56:30Z</time>
      </trkpt>
      <trkpt lat="50.41601" lon="3.51814">
        <ele>40.032104</ele>
        <time>2011-06-26T07:56:38Z</time>
      </trkpt>
      <trkpt lat="50.41606" lon="3.51774">
        <ele>42.916015</ele>
        <time>2011-06-26T07:56:45Z</time>
      </trkpt>
      <trkpt lat="50.41608" lon="3.51747">
        <ele>43.877319</ele>
        <time>2011-06-26T07:56:50Z</time>
      </trkpt>
      <trkpt lat="50.41611" lon="3.51708">
        <ele>43.877319</ele>
        <time>2011-06-26T07:56:57Z</time>
      </trkpt>
      <trkpt lat="50.41613" lon="3.51702">
        <ele>40.993408</ele>
        <time>2011-06-26T07:56:59Z</time>
      </trkpt>
      <trkpt lat="50.41624" lon="3.517">
        <ele>38.109375</ele>
        <time>2011-06-26T07:57:04Z</time>
      </trkpt>
      <trkpt lat="50.41627" lon="3.517">
        <ele>38.109375</ele>
        <time>2011-06-26T07:57:05Z</time>
      </trkpt>
      <trkpt lat="50.41653" lon="3.51703">
        <ele>36.66748</ele>
        <time>2011-06-26T07:57:12Z</time>
      </trkpt>
      <trkpt lat="50.41671" lon="3.51704">
        <ele>34.744873</ele>
        <time>2011-06-26T07:57:16Z</time>
      </trkpt>
      <trkpt lat="50.4168" lon="3.51675">
        <ele>37.148071</ele>
        <time>2011-06-26T07:57:20Z</time>
      </trkpt>
      <trkpt lat="50.41681" lon="3.51665">
        <ele>37.148071</ele>
        <time>2011-06-26T07:57:21Z</time>
      </trkpt>
      <trkpt lat="50.41691" lon="3.51625">
        <ele>34.744873</ele>
        <time>2011-06-26T07:57:25Z</time>
      </trkpt>
      <trkpt lat="50.41707" lon="3.51552">
        <ele>31.860717</ele>
        <time>2011-06-26T07:57:30Z</time>
      </trkpt>
      <trkpt lat="50.41713" lon="3.51489">
        <ele>31.380127</ele>
        <time>2011-06-26T07:57:34Z</time>
      </trkpt>
      <trkpt lat="50.41713" lon="3.51477">
        <ele>30.418823</ele>
        <time>2011-06-26T07:57:35Z</time>
      </trkpt>
      <trkpt lat="50.41701" lon="3.51431">
        <ele>32.822265</ele>
        <time>2011-06-26T07:57:39Z</time>
      </trkpt>
      <trkpt lat="50.4168" lon="3.51377">
        <ele>32.822265</ele>
        <time>2011-06-26T07:57:45Z</time>
      </trkpt>
      <trkpt lat="50.41666" lon="3.51343">
        <ele>31.380127</ele>
        <time>2011-06-26T07:57:50Z</time>
      </trkpt>
      <trkpt lat="50.41642" lon="3.51298">
        <ele>28.976928</ele>
        <time>2011-06-26T07:57:57Z</time>
      </trkpt>
      <trkpt lat="50.41623" lon="3.51267">
        <ele>25.612304</ele>
        <time>2011-06-26T07:58:02Z</time>
      </trkpt>
      <trkpt lat="50.41601" lon="3.51238">
        <ele>25.612304</ele>
        <time>2011-06-26T07:58:07Z</time>
      </trkpt>
      <trkpt lat="50.41576" lon="3.51211">
        <ele>26.092895</ele>
        <time>2011-06-26T07:58:12Z</time>
      </trkpt>
      <trkpt lat="50.41528" lon="3.5116">
        <ele>29.457519</ele>
        <time>2011-06-26T07:58:21Z</time>
      </trkpt>
      <trkpt lat="50.4151" lon="3.51142">
        <ele>27.534912</ele>
        <time>2011-06-26T07:58:24Z</time>
      </trkpt>
      <trkpt lat="50.41473" lon="3.511">
        <ele>23.208984</ele>
        <time>2011-06-26T07:58:31Z</time>
      </trkpt>
      <trkpt lat="50.41442" lon="3.51067">
        <ele>17.921752</ele>
        <time>2011-06-26T07:58:37Z</time>
      </trkpt>
      <trkpt lat="50.4141" lon="3.51035">
        <ele>15.518432</ele>
        <time>2011-06-26T07:58:43Z</time>
      </trkpt>
      <trkpt lat="50.41377" lon="3.51004">
        <ele>15.037719</ele>
        <time>2011-06-26T07:58:49Z</time>
      </trkpt>
      <trkpt lat="50.41349" lon="3.50974">
        <ele>9.7506104</ele>
        <time>2011-06-26T07:58:54Z</time>
      </trkpt>
      <trkpt lat="50.41317" lon="3.50942">
        <ele>12.634399</ele>
        <time>2011-06-26T07:59:00Z</time>
      </trkpt>
      <trkpt lat="50.41291" lon="3.50932">
        <ele>14.076416</ele>
        <time>2011-06-26T07:59:04Z</time>
      </trkpt>
      <trkpt lat="50.41261" lon="3.50917">
        <ele>16.960449</ele>
        <time>2011-06-26T07:59:09Z</time>
      </trkpt>
      <trkpt lat="50.41222" lon="3.50895">
        <ele>20.805664</ele>
        <time>2011-06-26T07:59:15Z</time>
      </trkpt>
      <trkpt lat="50.41211" lon="3.50887">
        <ele>21.286377</ele>
        <time>2011-06-26T07:59:17Z</time>
      </trkpt>
      <trkpt lat="50.41172" lon="3.50869">
        <ele>25.612304</ele>
        <time>2011-06-26T07:59:23Z</time>
      </trkpt>
      <trkpt lat="50.41168" lon="3.50867">
        <ele>26.092895</ele>
        <time>2011-06-26T07:59:24Z</time>
      </trkpt>
      <trkpt lat="50.41162" lon="3.50861">
        <ele>27.054321</ele>
        <time>2011-06-26T07:59:27Z</time>
      </trkpt>
      <trkpt lat="50.41153" lon="3.50852">
        <ele>28.015502</ele>
        <time>2011-06-26T07:59:30Z</time>
      </trkpt>
      <trkpt lat="50.41131" lon="3.50837">
        <ele>29.457519</ele>
        <time>2011-06-26T07:59:35Z</time>
      </trkpt>
      <trkpt lat="50.41102" lon="3.5082">
        <ele>29.93811</ele>
        <time>2011-06-26T07:59:40Z</time>
      </trkpt>
      <trkpt lat="50.41096" lon="3.50817">
        <ele>29.93811</ele>
        <time>2011-06-26T07:59:41Z</time>
      </trkpt>
      <trkpt lat="50.41069" lon="3.50806">
        <ele>30.899536</ele>
        <time>2011-06-26T07:59:45Z</time>
      </trkpt>
      <trkpt lat="50.41057" lon="3.50801">
        <ele>31.380127</ele>
        <time>2011-06-26T07:59:47Z</time>
      </trkpt>
      <trkpt lat="50.41019" lon="3.50779">
        <ele>31.380127</ele>
        <time>2011-06-26T07:59:54Z</time>
      </trkpt>
      <trkpt lat="50.4099" lon="3.50765">
        <ele>31.380127</ele>
        <time>2011-06-26T07:59:59Z</time>
      </trkpt>
      <trkpt lat="50.40985" lon="3.50761">
        <ele>30.899536</ele>
        <time>2011-06-26T08:00:00Z</time>
      </trkpt>
      <trkpt lat="50.40973" lon="3.50752">
        <ele>30.899536</ele>
        <time>2011-06-26T08:00:04Z</time>
      </trkpt>
      <trkpt lat="50.40966" lon="3.50754">
        <ele>33.302856</ele>
        <time>2011-06-26T08:00:07Z</time>
      </trkpt>
      <trkpt lat="50.40954" lon="3.50751">
        <ele>33.783447</ele>
        <time>2011-06-26T08:00:13Z</time>
      </trkpt>
      <trkpt lat="50.40942" lon="3.50747">
        <ele>35.706054</ele>
        <time>2011-06-26T08:00:17Z</time>
      </trkpt>
      <trkpt lat="50.40918" lon="3.50733">
        <ele>35.225463</ele>
        <time>2011-06-26T08:00:23Z</time>
      </trkpt>
      <trkpt lat="50.40905" lon="3.50725">
        <ele>34.744873</ele>
        <time>2011-06-26T08:00:26Z</time>
      </trkpt>
      <trkpt lat="50.40895" lon="3.50714">
        <ele>33.783447</ele>
        <time>2011-06-26T08:00:29Z</time>
      </trkpt>
      <trkpt lat="50.40874" lon="3.50698">
        <ele>27.534912</ele>
        <time>2011-06-26T08:00:33Z</time>
      </trkpt>
      <trkpt lat="50.40852" lon="3.50675">
        <ele>28.496215</ele>
        <time>2011-06-26T08:00:38Z</time>
      </trkpt>
      <trkpt lat="50.40836" lon="3.50655">
        <ele>28.015502</ele>
        <time>2011-06-26T08:00:42Z</time>
      </trkpt>
      <trkpt lat="50.4081" lon="3.5063">
        <ele>23.208984</ele>
        <time>2011-06-26T08:00:47Z</time>
      </trkpt>
      <trkpt lat="50.40806" lon="3.50623">
        <ele>20.324951</ele>
        <time>2011-06-26T08:00:48Z</time>
      </trkpt>
      <trkpt lat="50.40788" lon="3.50603">
        <ele>16.960449</ele>
        <time>2011-06-26T08:00:52Z</time>
      </trkpt>
      <trkpt lat="50.40771" lon="3.50582">
        <ele>15.518432</ele>
        <time>2011-06-26T08:00:56Z</time>
      </trkpt>
      <trkpt lat="50.40765" lon="3.50573">
        <ele>15.999023</ele>
        <time>2011-06-26T08:00:58Z</time>
      </trkpt>
      <trkpt lat="50.40758" lon="3.50556">
        <ele>14.076416</ele>
        <time>2011-06-26T08:01:02Z</time>
      </trkpt>
      <trkpt lat="50.40759" lon="3.50542">
        <ele>13.115112</ele>
        <time>2011-06-26T08:01:06Z</time>
      </trkpt>
      <trkpt lat="50.40754" lon="3.50527">
        <ele>13.595825</ele>
        <time>2011-06-26T08:01:11Z</time>
      </trkpt>
      <trkpt lat="50.4075" lon="3.50521">
        <ele>13.595825</ele>
        <time>2011-06-26T08:01:15Z</time>
      </trkpt>
      <trkpt lat="50.40748" lon="3.50522">
        <ele>14.076416</ele>
        <time>2011-06-26T08:01:18Z</time>
      </trkpt>
      <trkpt lat="50.40733" lon="3.50536">
        <ele>22.728271</ele>
        <time>2011-06-26T08:06:58Z</time>
      </trkpt>
      <trkpt lat="50.40731" lon="3.50536">
        <ele>22.247558</ele>
        <time>2011-06-26T08:06:59Z</time>
      </trkpt>
      <trkpt lat="50.40724" lon="3.50538">
        <ele>21.766967</ele>
        <time>2011-06-26T08:07:00Z</time>
      </trkpt>
      <trkpt lat="50.40698" lon="3.50551">
        <ele>18.883056</ele>
        <time>2011-06-26T08:07:07Z</time>
      </trkpt>
      <trkpt lat="50.40668" lon="3.50564">
        <ele>15.999023</ele>
        <time>2011-06-26T08:07:15Z</time>
      </trkpt>
      <trkpt lat="50.40646" lon="3.50575">
        <ele>15.037719</ele>
        <time>2011-06-26T08:07:20Z</time>
      </trkpt>
      <trkpt lat="50.40609" lon="3.50592">
        <ele>13.595825</ele>
        <time>2011-06-26T08:07:29Z</time>
      </trkpt>
      <trkpt lat="50.40572" lon="3.5061">
        <ele>13.115112</ele>
        <time>2011-06-26T08:07:37Z</time>
      </trkpt>
      <trkpt lat="50.40511" lon="3.50638">
        <ele>11.673217</ele>
        <time>2011-06-26T08:07:49Z</time>
      </trkpt>
      <trkpt lat="50.40466" lon="3.50658">
        <ele>8.7891846</ele>
        <time>2011-06-26T08:07:58Z</time>
      </trkpt>
      <trkpt lat="50.40452" lon="3.5065">
        <ele>7.8278809</ele>
        <time>2011-06-26T08:08:02Z</time>
      </trkpt>
      <trkpt lat="50.40441" lon="3.50628">
        <ele>6.3858643</ele>
        <time>2011-06-26T08:08:07Z</time>
      </trkpt>
      <trkpt lat="50.40441" lon="3.50595">
        <ele>4.9438477</ele>
        <time>2011-06-26T08:08:13Z</time>
      </trkpt>
      <trkpt lat="50.40441" lon="3.50561">
        <ele>3.982666</ele>
        <time>2011-06-26T08:08:18Z</time>
      </trkpt>
      <trkpt lat="50.40441" lon="3.50539">
        <ele>4.4632568</ele>
        <time>2011-06-26T08:08:21Z</time>
      </trkpt>
      <trkpt lat="50.40438" lon="3.50502">
        <ele>6.8664551</ele>
        <time>2011-06-26T08:08:26Z</time>
      </trkpt>
      <trkpt lat="50.40423" lon="3.50454">
        <ele>9.2698975</ele>
        <time>2011-06-26T08:08:33Z</time>
      </trkpt>
      <trkpt lat="50.40417" lon="3.50443">
        <ele>9.7506104</ele>
        <time>2011-06-26T08:08:35Z</time>
      </trkpt>
      <trkpt lat="50.40393" lon="3.50409">
        <ele>11.192504</ele>
        <time>2011-06-26T08:08:42Z</time>
      </trkpt>
      <trkpt lat="50.40386" lon="3.504">
        <ele>10.231201</ele>
        <time>2011-06-26T08:08:44Z</time>
      </trkpt>
      <trkpt lat="50.4035" lon="3.50371">
        <ele>11.673217</ele>
        <time>2011-06-26T08:08:52Z</time>
      </trkpt>
      <trkpt lat="50.40309" lon="3.50339">
        <ele>10.231201</ele>
        <time>2011-06-26T08:09:00Z</time>
      </trkpt>
      <trkpt lat="50.40277" lon="3.50314">
        <ele>9.7506104</ele>
        <time>2011-06-26T08:09:06Z</time>
      </trkpt>
      <trkpt lat="50.40266" lon="3.50305">
        <ele>8.7891846</ele>
        <time>2011-06-26T08:09:08Z</time>
      </trkpt>
      <trkpt lat="50.40245" lon="3.5029">
        <ele>8.7891846</ele>
        <time>2011-06-26T08:09:12Z</time>
      </trkpt>
      <trkpt lat="50.40222" lon="3.50284">
        <ele>8.7891846</ele>
        <time>2011-06-26T08:09:16Z</time>
      </trkpt>
      <trkpt lat="50.40206" lon="3.50263">
        <ele>10.711792</ele>
        <time>2011-06-26T08:09:20Z</time>
      </trkpt>
      <trkpt lat="50.4021" lon="3.50253">
        <ele>12.153808</ele>
        <time>2011-06-26T08:09:22Z</time>
      </trkpt>
      <trkpt lat="50.40217" lon="3.50248">
        <ele>14.557006</ele>
        <time>2011-06-26T08:09:24Z</time>
      </trkpt>
      <trkpt lat="50.40225" lon="3.50242">
        <ele>16.479736</ele>
        <time>2011-06-26T08:09:27Z</time>
      </trkpt>
      <trkpt lat="50.4024" lon="3.50228">
        <ele>18.402343</ele>
        <time>2011-06-26T08:09:33Z</time>
      </trkpt>
      <trkpt lat="50.40255" lon="3.50212">
        <ele>15.037719</ele>
        <time>2011-06-26T08:09:39Z</time>
      </trkpt>
      <trkpt lat="50.40257" lon="3.5021">
        <ele>14.557006</ele>
        <time>2011-06-26T08:09:40Z</time>
      </trkpt>
      <trkpt lat="50.40275" lon="3.50209">
        <ele>15.999023</ele>
        <time>2011-06-26T08:09:47Z</time>
      </trkpt>
      <trkpt lat="50.40282" lon="3.5021">
        <ele>17.441162</ele>
        <time>2011-06-26T08:09:50Z</time>
      </trkpt>
      <trkpt lat="50.40292" lon="3.50215">
        <ele>18.402343</ele>
        <time>2011-06-26T08:09:54Z</time>
      </trkpt>
      <trkpt lat="50.40311" lon="3.50221">
        <ele>22.247558</ele>
        <time>2011-06-26T08:10:02Z</time>
      </trkpt>
      <trkpt lat="50.40324" lon="3.50217">
        <ele>25.131713</ele>
        <time>2011-06-26T08:10:08Z</time>
      </trkpt>
      <trkpt lat="50.40338" lon="3.50209">
        <ele>25.612304</ele>
        <time>2011-06-26T08:10:14Z</time>
      </trkpt>
      <trkpt lat="50.40361" lon="3.50191">
        <ele>28.015502</ele>
        <time>2011-06-26T08:10:23Z</time>
      </trkpt>
      <trkpt lat="50.40372" lon="3.50184">
        <ele>29.457519</ele>
        <time>2011-06-26T08:10:28Z</time>
      </trkpt>
      <trkpt lat="50.40388" lon="3.50177">
        <ele>32.341552</ele>
        <time>2011-06-26T08:10:34Z</time>
      </trkpt>
      <trkpt lat="50.40403" lon="3.50166">
        <ele>35.225463</ele>
        <time>2011-06-26T08:10:40Z</time>
      </trkpt>
      <trkpt lat="50.40416" lon="3.50155">
        <ele>39.070678</ele>
        <time>2011-06-26T08:10:46Z</time>
      </trkpt>
      <trkpt lat="50.40425" lon="3.50142">
        <ele>40.993408</ele>
        <time>2011-06-26T08:10:52Z</time>
      </trkpt>
      <trkpt lat="50.40427" lon="3.50138">
        <ele>39.551269</ele>
        <time>2011-06-26T08:10:53Z</time>
      </trkpt>
      <trkpt lat="50.40434" lon="3.50115">
        <ele>37.148071</ele>
        <time>2011-06-26T08:10:59Z</time>
      </trkpt>
      <trkpt lat="50.4044" lon="3.50098">
        <ele>32.341552</ele>
        <time>2011-06-26T08:11:05Z</time>
      </trkpt>
      <trkpt lat="50.4044" lon="3.50088">
        <ele>32.341552</ele>
        <time>2011-06-26T08:11:09Z</time>
      </trkpt>
      <trkpt lat="50.40437" lon="3.50069">
        <ele>33.302856</ele>
        <time>2011-06-26T08:11:16Z</time>
      </trkpt>
      <trkpt lat="50.4043" lon="3.50051">
        <ele>34.26416</ele>
        <time>2011-06-26T08:11:22Z</time>
      </trkpt>
      <trkpt lat="50.40422" lon="3.50031">
        <ele>39.551269</ele>
        <time>2011-06-26T08:11:29Z</time>
      </trkpt>
      <trkpt lat="50.40418" lon="3.50019">
        <ele>40.993408</ele>
        <time>2011-06-26T08:11:33Z</time>
      </trkpt>
      <trkpt lat="50.4041" lon="3.50001">
        <ele>45.319213</ele>
        <time>2011-06-26T08:11:39Z</time>
      </trkpt>
      <trkpt lat="50.40399" lon="3.4998">
        <ele>49.645263</ele>
        <time>2011-06-26T08:11:46Z</time>
      </trkpt>
      <trkpt lat="50.40386" lon="3.49962">
        <ele>54.932373</ele>
        <time>2011-06-26T08:11:53Z</time>
      </trkpt>
      <trkpt lat="50.40378" lon="3.49954">
        <ele>57.816528</ele>
        <time>2011-06-26T08:11:58Z</time>
      </trkpt>
      <trkpt lat="50.40368" lon="3.49943">
        <ele>56.374511</ele>
        <time>2011-06-26T08:12:05Z</time>
      </trkpt>
      <trkpt lat="50.40353" lon="3.49937">
        <ele>58.297119</ele>
        <time>2011-06-26T08:12:13Z</time>
      </trkpt>
      <trkpt lat="50.40336" lon="3.49937">
        <ele>58.297119</ele>
        <time>2011-06-26T08:12:21Z</time>
      </trkpt>
      <trkpt lat="50.40323" lon="3.4993">
        <ele>53.971191</ele>
        <time>2011-06-26T08:12:24Z</time>
      </trkpt>
      <trkpt lat="50.403" lon="3.4993">
        <ele>51.087158</ele>
        <time>2011-06-26T08:12:28Z</time>
      </trkpt>
      <trkpt lat="50.4028" lon="3.4995">
        <ele>49.16455</ele>
        <time>2011-06-26T08:12:32Z</time>
      </trkpt>
      <trkpt lat="50.40266" lon="3.49976">
        <ele>45.799926</ele>
        <time>2011-06-26T08:12:36Z</time>
      </trkpt>
      <trkpt lat="50.40256" lon="3.4999">
        <ele>42.916015</ele>
        <time>2011-06-26T08:12:39Z</time>
      </trkpt>
      <trkpt lat="50.40254" lon="3.49995">
        <ele>42.435424</ele>
        <time>2011-06-26T08:12:40Z</time>
      </trkpt>
      <trkpt lat="50.40244" lon="3.5002">
        <ele>40.512817</ele>
        <time>2011-06-26T08:12:46Z</time>
      </trkpt>
      <trkpt lat="50.40241" lon="3.50037">
        <ele>37.148071</ele>
        <time>2011-06-26T08:12:50Z</time>
      </trkpt>
      <trkpt lat="50.4024" lon="3.50039">
        <ele>37.148071</ele>
        <time>2011-06-26T08:12:51Z</time>
      </trkpt>
      <trkpt lat="50.40241" lon="3.50042">
        <ele>36.66748</ele>
        <time>2011-06-26T08:12:54Z</time>
      </trkpt>
      <trkpt lat="50.40238" lon="3.50046">
        <ele>38.109375</ele>
        <time>2011-06-26T08:13:01Z</time>
      </trkpt>
      <trkpt lat="50.40231" lon="3.50057">
        <ele>49.645263</ele>
        <time>2011-06-26T08:13:29Z</time>
      </trkpt>
      <trkpt lat="50.40231" lon="3.50061">
        <ele>49.16455</ele>
        <time>2011-06-26T08:13:30Z</time>
      </trkpt>
      <trkpt lat="50.40227" lon="3.50071">
        <ele>46.76123</ele>
        <time>2011-06-26T08:13:31Z</time>
      </trkpt>
      <trkpt lat="50.4022" lon="3.50092">
        <ele>44.358032</ele>
        <time>2011-06-26T08:13:33Z</time>
      </trkpt>
      <trkpt lat="50.40218" lon="3.5012">
        <ele>41.473999</ele>
        <time>2011-06-26T08:13:36Z</time>
      </trkpt>
      <trkpt lat="50.40229" lon="3.50149">
        <ele>40.993408</ele>
        <time>2011-06-26T08:13:40Z</time>
      </trkpt>
      <trkpt lat="50.40241" lon="3.50178">
        <ele>37.148071</ele>
        <time>2011-06-26T08:13:44Z</time>
      </trkpt>
      <trkpt lat="50.40238" lon="3.50202">
        <ele>35.225463</ele>
        <time>2011-06-26T08:13:47Z</time>
      </trkpt>
      <trkpt lat="50.40248" lon="3.50215">
        <ele>30.418823</ele>
        <time>2011-06-26T08:13:50Z</time>
      </trkpt>
      <trkpt lat="50.40266" lon="3.50243">
        <ele>26.092895</ele>
        <time>2011-06-26T08:13:55Z</time>
      </trkpt>
      <trkpt lat="50.40277" lon="3.50257">
        <ele>25.612304</ele>
        <time>2011-06-26T08:13:58Z</time>
      </trkpt>
      <trkpt lat="50.40301" lon="3.50266">
        <ele>23.208984</ele>
        <time>2011-06-26T08:14:02Z</time>
      </trkpt>
      <trkpt lat="50.40336" lon="3.50285">
        <ele>19.363769</ele>
        <time>2011-06-26T08:14:08Z</time>
      </trkpt>
      <trkpt lat="50.40349" lon="3.50274">
        <ele>18.402343</ele>
        <time>2011-06-26T08:14:11Z</time>
      </trkpt>
      <trkpt lat="50.40369" lon="3.50243">
        <ele>18.883056</ele>
        <time>2011-06-26T08:14:17Z</time>
      </trkpt>
      <trkpt lat="50.40373" lon="3.5024">
        <ele>17.441162</ele>
        <time>2011-06-26T08:14:18Z</time>
      </trkpt>
      <trkpt lat="50.40385" lon="3.5023">
        <ele>16.479736</ele>
        <time>2011-06-26T08:14:21Z</time>
      </trkpt>
      <trkpt lat="50.40407" lon="3.50213">
        <ele>18.402343</ele>
        <time>2011-06-26T08:14:27Z</time>
      </trkpt>
      <trkpt lat="50.40419" lon="3.50205">
        <ele>19.84436</ele>
        <time>2011-06-26T08:14:30Z</time>
      </trkpt>
      <trkpt lat="50.40434" lon="3.50195">
        <ele>22.247558</ele>
        <time>2011-06-26T08:14:34Z</time>
      </trkpt>
      <trkpt lat="50.40449" lon="3.50188">
        <ele>27.054321</ele>
        <time>2011-06-26T08:14:39Z</time>
      </trkpt>
      <trkpt lat="50.40464" lon="3.50169">
        <ele>22.728271</ele>
        <time>2011-06-26T08:14:42Z</time>
      </trkpt>
      <trkpt lat="50.4048" lon="3.5017">
        <ele>20.324951</ele>
        <time>2011-06-26T08:14:46Z</time>
      </trkpt>
      <trkpt lat="50.40481" lon="3.50173">
        <ele>20.324951</ele>
        <time>2011-06-26T08:14:47Z</time>
      </trkpt>
      <trkpt lat="50.40485" lon="3.5018">
        <ele>20.324951</ele>
        <time>2011-06-26T08:14:49Z</time>
      </trkpt>
      <trkpt lat="50.4049" lon="3.50201">
        <ele>21.286377</ele>
        <time>2011-06-26T08:14:54Z</time>
      </trkpt>
      <trkpt lat="50.40494" lon="3.50229">
        <ele>26.092895</ele>
        <time>2011-06-26T08:14:57Z</time>
      </trkpt>
      <trkpt lat="50.40499" lon="3.50253">
        <ele>25.612304</ele>
        <time>2011-06-26T08:14:59Z</time>
      </trkpt>
      <trkpt lat="50.40516" lon="3.50295">
        <ele>24.170288</ele>
        <time>2011-06-26T08:15:03Z</time>
      </trkpt>
      <trkpt lat="50.40519" lon="3.50304">
        <ele>24.651001</ele>
        <time>2011-06-26T08:15:04Z</time>
      </trkpt>
      <trkpt lat="50.40543" lon="3.50338">
        <ele>25.612304</ele>
        <time>2011-06-26T08:15:09Z</time>
      </trkpt>
      <trkpt lat="50.40553" lon="3.50375">
        <ele>28.015502</ele>
        <time>2011-06-26T08:15:13Z</time>
      </trkpt>
      <trkpt lat="50.40559" lon="3.50416">
        <ele>28.976928</ele>
        <time>2011-06-26T08:15:18Z</time>
      </trkpt>
      <trkpt lat="50.40564" lon="3.50434">
        <ele>28.976928</ele>
        <time>2011-06-26T08:15:20Z</time>
      </trkpt>
      <trkpt lat="50.40581" lon="3.50464">
        <ele>28.496215</ele>
        <time>2011-06-26T08:15:25Z</time>
      </trkpt>
      <trkpt lat="50.40592" lon="3.50454">
        <ele>26.092895</ele>
        <time>2011-06-26T08:15:28Z</time>
      </trkpt>
      <trkpt lat="50.40608" lon="3.50451">
        <ele>20.805664</ele>
        <time>2011-06-26T08:15:31Z</time>
      </trkpt>
      <trkpt lat="50.40624" lon="3.50455">
        <ele>18.402343</ele>
        <time>2011-06-26T08:15:34Z</time>
      </trkpt>
      <trkpt lat="50.40649" lon="3.5045">
        <ele>16.960449</ele>
        <time>2011-06-26T08:15:40Z</time>
      </trkpt>
      <trkpt lat="50.40653" lon="3.50449">
        <ele>16.479736</ele>
        <time>2011-06-26T08:15:41Z</time>
      </trkpt>
      <trkpt lat="50.40673" lon="3.50432">
        <ele>16.479736</ele>
        <time>2011-06-26T08:15:46Z</time>
      </trkpt>
      <trkpt lat="50.40677" lon="3.50427">
        <ele>15.999023</ele>
        <time>2011-06-26T08:15:47Z</time>
      </trkpt>
      <trkpt lat="50.40688" lon="3.50397">
        <ele>14.076416</ele>
        <time>2011-06-26T08:15:52Z</time>
      </trkpt>
      <trkpt lat="50.40687" lon="3.50361">
        <ele>15.999023</ele>
        <time>2011-06-26T08:15:57Z</time>
      </trkpt>
      <trkpt lat="50.40678" lon="3.50321">
        <ele>17.441162</ele>
        <time>2011-06-26T08:16:03Z</time>
      </trkpt>
      <trkpt lat="50.40667" lon="3.50301">
        <ele>16.479736</ele>
        <time>2011-06-26T08:16:06Z</time>
      </trkpt>
      <trkpt lat="50.40639" lon="3.5026">
        <ele>13.595825</ele>
        <time>2011-06-26T08:16:12Z</time>
      </trkpt>
      <trkpt lat="50.40622" lon="3.50237">
        <ele>18.883056</ele>
        <time>2011-06-26T08:16:17Z</time>
      </trkpt>
      <trkpt lat="50.40607" lon="3.50218">
        <ele>19.363769</ele>
        <time>2011-06-26T08:16:24Z</time>
      </trkpt>
      <trkpt lat="50.40599" lon="3.50198">
        <ele>20.805664</ele>
        <time>2011-06-26T08:16:30Z</time>
      </trkpt>
      <trkpt lat="50.40591" lon="3.50172">
        <ele>19.84436</ele>
        <time>2011-06-26T08:16:36Z</time>
      </trkpt>
      <trkpt lat="50.40581" lon="3.50135">
        <ele>19.363769</ele>
        <time>2011-06-26T08:16:41Z</time>
      </trkpt>
      <trkpt lat="50.40568" lon="3.50087">
        <ele>20.805664</ele>
        <time>2011-06-26T08:16:47Z</time>
      </trkpt>
      <trkpt lat="50.40567" lon="3.5008">
        <ele>20.805664</ele>
        <time>2011-06-26T08:16:48Z</time>
      </trkpt>
      <trkpt lat="50.40574" lon="3.50056">
        <ele>19.363769</ele>
        <time>2011-06-26T08:16:52Z</time>
      </trkpt>
      <trkpt lat="50.40596" lon="3.50033">
        <ele>18.883056</ele>
        <time>2011-06-26T08:16:58Z</time>
      </trkpt>
      <trkpt lat="50.40602" lon="3.50027">
        <ele>19.363769</ele>
        <time>2011-06-26T08:17:00Z</time>
      </trkpt>
      <trkpt lat="50.4062" lon="3.50012">
        <ele>15.518432</ele>
        <time>2011-06-26T08:17:05Z</time>
      </trkpt>
      <trkpt lat="50.40627" lon="3.50007">
        <ele>15.518432</ele>
        <time>2011-06-26T08:17:09Z</time>
      </trkpt>
      <trkpt lat="50.40634" lon="3.50001">
        <ele>14.557006</ele>
        <time>2011-06-26T08:17:13Z</time>
      </trkpt>
      <trkpt lat="50.40641" lon="3.49998">
        <ele>14.557006</ele>
        <time>2011-06-26T08:17:17Z</time>
      </trkpt>
      <trkpt lat="50.40651" lon="3.49996">
        <ele>18.402343</ele>
        <time>2011-06-26T08:17:24Z</time>
      </trkpt>
      <trkpt lat="50.40653" lon="3.49996">
        <ele>18.883056</ele>
        <time>2011-06-26T08:17:25Z</time>
      </trkpt>
      <trkpt lat="50.40659" lon="3.50003">
        <ele>20.805664</ele>
        <time>2011-06-26T08:17:30Z</time>
      </trkpt>
      <trkpt lat="50.40664" lon="3.50018">
        <ele>25.612304</ele>
        <time>2011-06-26T08:17:37Z</time>
      </trkpt>
      <trkpt lat="50.40665" lon="3.50024">
        <ele>27.054321</ele>
        <time>2011-06-26T08:17:40Z</time>
      </trkpt>
      <trkpt lat="50.40668" lon="3.50045">
        <ele>30.899536</ele>
        <time>2011-06-26T08:17:45Z</time>
      </trkpt>
      <trkpt lat="50.40679" lon="3.50073">
        <ele>33.302856</ele>
        <time>2011-06-26T08:17:50Z</time>
      </trkpt>
      <trkpt lat="50.40688" lon="3.50097">
        <ele>35.225463</ele>
        <time>2011-06-26T08:17:54Z</time>
      </trkpt>
      <trkpt lat="50.40702" lon="3.5013">
        <ele>35.706054</ele>
        <time>2011-06-26T08:17:59Z</time>
      </trkpt>
      <trkpt lat="50.40713" lon="3.50153">
        <ele>38.590087</ele>
        <time>2011-06-26T08:18:03Z</time>
      </trkpt>
      <trkpt lat="50.40719" lon="3.5017">
        <ele>39.070678</ele>
        <time>2011-06-26T08:18:06Z</time>
      </trkpt>
      <trkpt lat="50.40724" lon="3.50182">
        <ele>39.070678</ele>
        <time>2011-06-26T08:18:08Z</time>
      </trkpt>
      <trkpt lat="50.40737" lon="3.5022">
        <ele>38.590087</ele>
        <time>2011-06-26T08:18:13Z</time>
      </trkpt>
      <trkpt lat="50.40751" lon="3.50251">
        <ele>37.148071</ele>
        <time>2011-06-26T08:18:18Z</time>
      </trkpt>
      <trkpt lat="50.40753" lon="3.50256">
        <ele>37.148071</ele>
        <time>2011-06-26T08:18:19Z</time>
      </trkpt>
      <trkpt lat="50.4076" lon="3.50283">
        <ele>36.66748</ele>
        <time>2011-06-26T08:18:23Z</time>
      </trkpt>
      <trkpt lat="50.4077" lon="3.5032">
        <ele>38.109375</ele>
        <time>2011-06-26T08:18:28Z</time>
      </trkpt>
      <trkpt lat="50.40788" lon="3.50355">
        <ele>38.109375</ele>
        <time>2011-06-26T08:18:33Z</time>
      </trkpt>
      <trkpt lat="50.40808" lon="3.5039">
        <ele>38.590087</ele>
        <time>2011-06-26T08:18:38Z</time>
      </trkpt>
      <trkpt lat="50.4081" lon="3.50397">
        <ele>38.590087</ele>
        <time>2011-06-26T08:18:39Z</time>
      </trkpt>
      <trkpt lat="50.40823" lon="3.50424">
        <ele>40.993408</ele>
        <time>2011-06-26T08:18:43Z</time>
      </trkpt>
      <trkpt lat="50.40842" lon="3.50454">
        <ele>41.954711</ele>
        <time>2011-06-26T08:18:48Z</time>
      </trkpt>
      <trkpt lat="50.40862" lon="3.50465">
        <ele>40.512817</ele>
        <time>2011-06-26T08:18:52Z</time>
      </trkpt>
      <trkpt lat="50.40872" lon="3.50454">
        <ele>37.148071</ele>
        <time>2011-06-26T08:18:55Z</time>
      </trkpt>
      <trkpt lat="50.40879" lon="3.50446">
        <ele>34.26416</ele>
        <time>2011-06-26T08:18:58Z</time>
      </trkpt>
      <trkpt lat="50.40892" lon="3.50432">
        <ele>30.418823</ele>
        <time>2011-06-26T08:19:03Z</time>
      </trkpt>
      <trkpt lat="50.40905" lon="3.5042">
        <ele>26.092895</ele>
        <time>2011-06-26T08:19:09Z</time>
      </trkpt>
      <trkpt lat="50.40922" lon="3.50402">
        <ele>24.170288</ele>
        <time>2011-06-26T08:19:15Z</time>
      </trkpt>
      <trkpt lat="50.40925" lon="3.504">
        <ele>24.651001</ele>
        <time>2011-06-26T08:19:16Z</time>
      </trkpt>
      <trkpt lat="50.4094" lon="3.5038">
        <ele>20.805664</ele>
        <time>2011-06-26T08:19:22Z</time>
      </trkpt>
      <trkpt lat="50.40951" lon="3.50366">
        <ele>17.921752</ele>
        <time>2011-06-26T08:19:26Z</time>
      </trkpt>
      <trkpt lat="50.40957" lon="3.50352">
        <ele>18.402343</ele>
        <time>2011-06-26T08:19:29Z</time>
      </trkpt>
      <trkpt lat="50.40953" lon="3.50335">
        <ele>16.479736</ele>
        <time>2011-06-26T08:19:33Z</time>
      </trkpt>
      <trkpt lat="50.40955" lon="3.50311">
        <ele>14.076416</ele>
        <time>2011-06-26T08:19:37Z</time>
      </trkpt>
      <trkpt lat="50.40957" lon="3.50282">
        <ele>15.518432</ele>
        <time>2011-06-26T08:19:41Z</time>
      </trkpt>
      <trkpt lat="50.40952" lon="3.50255">
        <ele>18.883056</ele>
        <time>2011-06-26T08:19:45Z</time>
      </trkpt>
      <trkpt lat="50.40943" lon="3.5023">
        <ele>21.766967</ele>
        <time>2011-06-26T08:19:49Z</time>
      </trkpt>
      <trkpt lat="50.40938" lon="3.50211">
        <ele>21.766967</ele>
        <time>2011-06-26T08:19:52Z</time>
      </trkpt>
      <trkpt lat="50.40934" lon="3.50183">
        <ele>17.921752</ele>
        <time>2011-06-26T08:19:57Z</time>
      </trkpt>
      <trkpt lat="50.40939" lon="3.50168">
        <ele>18.402343</ele>
        <time>2011-06-26T08:20:02Z</time>
      </trkpt>
      <trkpt lat="50.40946" lon="3.50145">
        <ele>21.286377</ele>
        <time>2011-06-26T08:20:08Z</time>
      </trkpt>
      <trkpt lat="50.40946" lon="3.50129">
        <ele>24.170288</ele>
        <time>2011-06-26T08:20:13Z</time>
      </trkpt>
      <trkpt lat="50.40947" lon="3.50123">
        <ele>24.651001</ele>
        <time>2011-06-26T08:20:16Z</time>
      </trkpt>
      <trkpt lat="50.40947" lon="3.50105">
        <ele>24.170288</ele>
        <time>2011-06-26T08:20:25Z</time>
      </trkpt>
      <trkpt lat="50.40947" lon="3.5009">
        <ele>24.170288</ele>
        <time>2011-06-26T08:20:33Z</time>
      </trkpt>
      <trkpt lat="50.40945" lon="3.50087">
        <ele>25.131713</ele>
        <time>2011-06-26T08:20:35Z</time>
      </trkpt>
      <trkpt lat="50.40944" lon="3.50082">
        <ele>25.612304</ele>
        <time>2011-06-26T08:20:38Z</time>
      </trkpt>
      <trkpt lat="50.40944" lon="3.50067">
        <ele>27.534912</ele>
        <time>2011-06-26T08:20:46Z</time>
      </trkpt>
      <trkpt lat="50.40947" lon="3.50056">
        <ele>31.860717</ele>
        <time>2011-06-26T08:20:51Z</time>
      </trkpt>
      <trkpt lat="50.40948" lon="3.50052">
        <ele>33.783447</ele>
        <time>2011-06-26T08:20:53Z</time>
      </trkpt>
      <trkpt lat="50.40949" lon="3.50048">
        <ele>36.186767</ele>
        <time>2011-06-26T08:20:55Z</time>
      </trkpt>
      <trkpt lat="50.40943" lon="3.50036">
        <ele>42.435424</ele>
        <time>2011-06-26T08:21:02Z</time>
      </trkpt>
      <trkpt lat="50.40936" lon="3.50031">
        <ele>44.358032</ele>
        <time>2011-06-26T08:21:10Z</time>
      </trkpt>
      <trkpt lat="50.40936" lon="3.50031">
        <ele>44.358032</ele>
        <time>2011-06-26T08:21:11Z</time>
      </trkpt>
      <trkpt lat="50.40916" lon="3.5005">
        <ele>53.009765</ele>
        <time>2011-06-26T08:21:47Z</time>
      </trkpt>
      <trkpt lat="50.40914" lon="3.50043">
        <ele>52.529174</ele>
        <time>2011-06-26T08:21:52Z</time>
      </trkpt>
      <trkpt lat="50.40912" lon="3.50031">
        <ele>51.087158</ele>
        <time>2011-06-26T08:22:00Z</time>
      </trkpt>
      <trkpt lat="50.4091" lon="3.50021">
        <ele>50.125976</ele>
        <time>2011-06-26T08:22:07Z</time>
      </trkpt>
      <trkpt lat="50.40907" lon="3.50011">
        <ele>51.087158</ele>
        <time>2011-06-26T08:22:13Z</time>
      </trkpt>
      <trkpt lat="50.40904" lon="3.50004">
        <ele>51.567871</ele>
        <time>2011-06-26T08:22:18Z</time>
      </trkpt>
      <trkpt lat="50.40899" lon="3.50007">
        <ele>53.009765</ele>
        <time>2011-06-26T08:22:23Z</time>
      </trkpt>
      <trkpt lat="50.40895" lon="3.50009">
        <ele>54.451782</ele>
        <time>2011-06-26T08:22:27Z</time>
      </trkpt>
      <trkpt lat="50.40885" lon="3.50012">
        <ele>59.739135</ele>
        <time>2011-06-26T08:22:36Z</time>
      </trkpt>
      <trkpt lat="50.40875" lon="3.50015">
        <ele>64.065063</ele>
        <time>2011-06-26T08:22:46Z</time>
      </trkpt>
      <trkpt lat="50.40868" lon="3.50019">
        <ele>66.948974</ele>
        <time>2011-06-26T08:22:53Z</time>
      </trkpt>
      <trkpt lat="50.40859" lon="3.50026">
        <ele>67.910278</ele>
        <time>2011-06-26T08:23:02Z</time>
      </trkpt>
      <trkpt lat="50.40858" lon="3.50027">
        <ele>68.871582</ele>
        <time>2011-06-26T08:23:03Z</time>
      </trkpt>
      <trkpt lat="50.40857" lon="3.5003">
        <ele>71.274902</ele>
        <time>2011-06-26T08:23:06Z</time>
      </trkpt>
      <trkpt lat="50.40852" lon="3.50027">
        <ele>75.60083</ele>
        <time>2011-06-26T08:23:12Z</time>
      </trkpt>
      <trkpt lat="50.40851" lon="3.50015">
        <ele>78.004028</ele>
        <time>2011-06-26T08:23:20Z</time>
      </trkpt>
      <trkpt lat="50.4085" lon="3.50004">
        <ele>77.523437</ele>
        <time>2011-06-26T08:23:27Z</time>
      </trkpt>
      <trkpt lat="50.4085" lon="3.49991">
        <ele>74.158813</ele>
        <time>2011-06-26T08:23:35Z</time>
      </trkpt>
      <trkpt lat="50.4085" lon="3.49984">
        <ele>73.678222</ele>
        <time>2011-06-26T08:23:39Z</time>
      </trkpt>
      <trkpt lat="50.40845" lon="3.49983">
        <ele>75.120239</ele>
        <time>2011-06-26T08:23:45Z</time>
      </trkpt>
      <trkpt lat="50.40838" lon="3.49993">
        <ele>78.484741</ele>
        <time>2011-06-26T08:23:55Z</time>
      </trkpt>
      <trkpt lat="50.40834" lon="3.49997">
        <ele>79.446044</ele>
        <time>2011-06-26T08:23:59Z</time>
      </trkpt>
      <trkpt lat="50.40831" lon="3.50003">
        <ele>81.368774</ele>
        <time>2011-06-26T08:24:03Z</time>
      </trkpt>
      <trkpt lat="50.40827" lon="3.50013">
        <ele>84.252685</ele>
        <time>2011-06-26T08:24:10Z</time>
      </trkpt>
      <trkpt lat="50.40822" lon="3.50018">
        <ele>84.733398</ele>
        <time>2011-06-26T08:24:15Z</time>
      </trkpt>
      <trkpt lat="50.40807" lon="3.50023">
        <ele>84.252685</ele>
        <time>2011-06-26T08:24:20Z</time>
      </trkpt>
      <trkpt lat="50.4079" lon="3.50015">
        <ele>81.849365</ele>
        <time>2011-06-26T08:24:23Z</time>
      </trkpt>
      <trkpt lat="50.40784" lon="3.5001">
        <ele>81.368774</ele>
        <time>2011-06-26T08:24:24Z</time>
      </trkpt>
      <trkpt lat="50.40769" lon="3.49991">
        <ele>79.926635</ele>
        <time>2011-06-26T08:24:28Z</time>
      </trkpt>
      <trkpt lat="50.40766" lon="3.49999">
        <ele>79.926635</ele>
        <time>2011-06-26T08:24:30Z</time>
      </trkpt>
      <trkpt lat="50.40769" lon="3.50014">
        <ele>80.40747</ele>
        <time>2011-06-26T08:24:32Z</time>
      </trkpt>
      <trkpt lat="50.40775" lon="3.50052">
        <ele>80.40747</ele>
        <time>2011-06-26T08:24:36Z</time>
      </trkpt>
      <trkpt lat="50.40779" lon="3.5007">
        <ele>77.523437</ele>
        <time>2011-06-26T08:24:38Z</time>
      </trkpt>
      <trkpt lat="50.40774" lon="3.50078">
        <ele>72.716918</ele>
        <time>2011-06-26T08:24:42Z</time>
      </trkpt>
      <trkpt lat="50.4077" lon="3.50074">
        <ele>71.755493</ele>
        <time>2011-06-26T08:24:43Z</time>
      </trkpt>
      <trkpt lat="50.4074" lon="3.50037">
        <ele>66.948974</ele>
        <time>2011-06-26T08:24:48Z</time>
      </trkpt>
      <trkpt lat="50.40734" lon="3.50027">
        <ele>65.50708</ele>
        <time>2011-06-26T08:24:49Z</time>
      </trkpt>
      <trkpt lat="50.40727" lon="3.5">
        <ele>62.142334</ele>
        <time>2011-06-26T08:24:52Z</time>
      </trkpt>
      <trkpt lat="50.40713" lon="3.49991">
        <ele>59.739135</ele>
        <time>2011-06-26T08:24:56Z</time>
      </trkpt>
      <trkpt lat="50.4071" lon="3.50006">
        <ele>57.816528</ele>
        <time>2011-06-26T08:24:58Z</time>
      </trkpt>
      <trkpt lat="50.40712" lon="3.50044">
        <ele>53.971191</ele>
        <time>2011-06-26T08:25:01Z</time>
      </trkpt>
      <trkpt lat="50.40715" lon="3.50074">
        <ele>51.567871</ele>
        <time>2011-06-26T08:25:03Z</time>
      </trkpt>
      <trkpt lat="50.40723" lon="3.50099">
        <ele>44.838623</ele>
        <time>2011-06-26T08:25:07Z</time>
      </trkpt>
      <trkpt lat="50.40707" lon="3.50076">
        <ele>38.109375</ele>
        <time>2011-06-26T08:25:11Z</time>
      </trkpt>
      <trkpt lat="50.40694" lon="3.50046">
        <ele>33.302856</ele>
        <time>2011-06-26T08:25:14Z</time>
      </trkpt>
      <trkpt lat="50.40689" lon="3.50021">
        <ele>28.976928</ele>
        <time>2011-06-26T08:25:16Z</time>
      </trkpt>
      <trkpt lat="50.40679" lon="3.49969">
        <ele>28.496215</ele>
        <time>2011-06-26T08:25:20Z</time>
      </trkpt>
      <trkpt lat="50.40661" lon="3.49954">
        <ele>29.457519</ele>
        <time>2011-06-26T08:25:24Z</time>
      </trkpt>
      <trkpt lat="50.40631" lon="3.49942">
        <ele>27.054321</ele>
        <time>2011-06-26T08:25:28Z</time>
      </trkpt>
      <trkpt lat="50.40621" lon="3.49926">
        <ele>27.534912</ele>
        <time>2011-06-26T08:25:30Z</time>
      </trkpt>
      <trkpt lat="50.40601" lon="3.49883">
        <ele>30.899536</ele>
        <time>2011-06-26T08:25:36Z</time>
      </trkpt>
      <trkpt lat="50.40581" lon="3.49838">
        <ele>28.976928</ele>
        <time>2011-06-26T08:25:41Z</time>
      </trkpt>
      <trkpt lat="50.40565" lon="3.49803">
        <ele>25.612304</ele>
        <time>2011-06-26T08:25:44Z</time>
      </trkpt>
      <trkpt lat="50.4056" lon="3.49793">
        <ele>23.689575</ele>
        <time>2011-06-26T08:25:45Z</time>
      </trkpt>
      <trkpt lat="50.40552" lon="3.49753">
        <ele>19.84436</ele>
        <time>2011-06-26T08:25:49Z</time>
      </trkpt>
      <trkpt lat="50.40565" lon="3.49744">
        <ele>18.402343</ele>
        <time>2011-06-26T08:25:52Z</time>
      </trkpt>
      <trkpt lat="50.40573" lon="3.49747">
        <ele>18.883056</ele>
        <time>2011-06-26T08:25:56Z</time>
      </trkpt>
      <trkpt lat="50.40581" lon="3.49752">
        <ele>17.441162</ele>
        <time>2011-06-26T08:26:03Z</time>
      </trkpt>
      <trkpt lat="50.40583" lon="3.49753">
        <ele>17.441162</ele>
        <time>2011-06-26T08:26:08Z</time>
      </trkpt>
      <trkpt lat="50.40584" lon="3.49755">
        <ele>19.84436</ele>
        <time>2011-06-26T08:26:12Z</time>
      </trkpt>
      <trkpt lat="50.40588" lon="3.49739">
        <ele>30.899536</ele>
        <time>2011-06-26T08:26:59Z</time>
      </trkpt>
      <trkpt lat="50.40588" lon="3.49739">
        <ele>30.418823</ele>
        <time>2011-06-26T08:27:00Z</time>
      </trkpt>
      <trkpt lat="50.4059" lon="3.49738">
        <ele>30.418823</ele>
        <time>2011-06-26T08:27:04Z</time>
      </trkpt>
      <trkpt lat="50.4059" lon="3.49738">
        <ele>32.341552</ele>
        <time>2011-06-26T08:27:11Z</time>
      </trkpt>
      <trkpt lat="50.40589" lon="3.49739">
        <ele>29.93811</ele>
        <time>2011-06-26T08:27:13Z</time>
      </trkpt>
      <trkpt lat="50.4058" lon="3.49738">
        <ele>-1.785278</ele>
        <time>2011-06-26T08:27:53Z</time>
      </trkpt>
      <trkpt lat="50.40587" lon="3.49748">
        <ele>-15.24365</ele>
        <time>2011-06-26T08:28:03Z</time>
      </trkpt>
      <trkpt lat="50.40587" lon="3.49754">
        <ele>-26.77954</ele>
        <time>2011-06-26T08:28:13Z</time>
      </trkpt>
      <trkpt lat="50.40583" lon="3.49741">
        <ele>-23.41491</ele>
        <time>2011-06-26T08:28:38Z</time>
      </trkpt>
      <trkpt lat="50.40586" lon="3.49732">
        <ele>-17.16638</ele>
        <time>2011-06-26T08:28:40Z</time>
      </trkpt>
      <trkpt lat="50.40589" lon="3.49725">
        <ele>-13.80175</ele>
        <time>2011-06-26T08:28:42Z</time>
      </trkpt>
      <trkpt lat="50.40591" lon="3.49721">
        <ele>-13.32104</ele>
        <time>2011-06-26T08:28:43Z</time>
      </trkpt>
      <trkpt lat="50.40598" lon="3.49709">
        <ele>-10.43725</ele>
        <time>2011-06-26T08:28:45Z</time>
      </trkpt>
      <trkpt lat="50.40612" lon="3.49691">
        <ele>-6.591918</ele>
        <time>2011-06-26T08:28:48Z</time>
      </trkpt>
      <trkpt lat="50.40633" lon="3.49655">
        <ele>-1.785278</ele>
        <time>2011-06-26T08:28:53Z</time>
      </trkpt>
      <trkpt lat="50.40649" lon="3.49636">
        <ele>4.9438477</ele>
        <time>2011-06-26T08:28:57Z</time>
      </trkpt>
      <trkpt lat="50.4066" lon="3.49606">
        <ele>7.347168</ele>
        <time>2011-06-26T08:29:01Z</time>
      </trkpt>
      <trkpt lat="50.40662" lon="3.49597">
        <ele>7.8278809</ele>
        <time>2011-06-26T08:29:02Z</time>
      </trkpt>
      <trkpt lat="50.40674" lon="3.49552">
        <ele>8.7891846</ele>
        <time>2011-06-26T08:29:07Z</time>
      </trkpt>
      <trkpt lat="50.40674" lon="3.4954">
        <ele>9.2698975</ele>
        <time>2011-06-26T08:29:09Z</time>
      </trkpt>
      <trkpt lat="50.40674" lon="3.49523">
        <ele>11.673217</ele>
        <time>2011-06-26T08:29:12Z</time>
      </trkpt>
      <trkpt lat="50.40671" lon="3.49497">
        <ele>16.479736</ele>
        <time>2011-06-26T08:29:16Z</time>
      </trkpt>
      <trkpt lat="50.40657" lon="3.49468">
        <ele>24.170288</ele>
        <time>2011-06-26T08:29:20Z</time>
      </trkpt>
      <trkpt lat="50.40641" lon="3.4944">
        <ele>23.689575</ele>
        <time>2011-06-26T08:29:23Z</time>
      </trkpt>
      <trkpt lat="50.40635" lon="3.49412">
        <ele>21.286377</ele>
        <time>2011-06-26T08:29:27Z</time>
      </trkpt>
      <trkpt lat="50.40632" lon="3.4938">
        <ele>17.921752</ele>
        <time>2011-06-26T08:29:31Z</time>
      </trkpt>
      <trkpt lat="50.40635" lon="3.49352">
        <ele>15.518432</ele>
        <time>2011-06-26T08:29:35Z</time>
      </trkpt>
      <trkpt lat="50.40634" lon="3.49309">
        <ele>15.518432</ele>
        <time>2011-06-26T08:29:40Z</time>
      </trkpt>
      <trkpt lat="50.4064" lon="3.49259">
        <ele>12.634399</ele>
        <time>2011-06-26T08:29:45Z</time>
      </trkpt>
      <trkpt lat="50.40644" lon="3.49233">
        <ele>12.153808</ele>
        <time>2011-06-26T08:29:48Z</time>
      </trkpt>
      <trkpt lat="50.40637" lon="3.49202">
        <ele>15.999023</ele>
        <time>2011-06-26T08:29:52Z</time>
      </trkpt>
      <trkpt lat="50.40618" lon="3.4919">
        <ele>19.84436</ele>
        <time>2011-06-26T08:29:55Z</time>
      </trkpt>
      <trkpt lat="50.406" lon="3.49193">
        <ele>22.728271</ele>
        <time>2011-06-26T08:29:58Z</time>
      </trkpt>
      <trkpt lat="50.40579" lon="3.49207">
        <ele>21.286377</ele>
        <time>2011-06-26T08:30:02Z</time>
      </trkpt>
      <trkpt lat="50.4056" lon="3.49228">
        <ele>25.612304</ele>
        <time>2011-06-26T08:30:06Z</time>
      </trkpt>
      <trkpt lat="50.40543" lon="3.49259">
        <ele>24.651001</ele>
        <time>2011-06-26T08:30:11Z</time>
      </trkpt>
      <trkpt lat="50.40539" lon="3.49266">
        <ele>23.208984</ele>
        <time>2011-06-26T08:30:12Z</time>
      </trkpt>
      <trkpt lat="50.405" lon="3.49301">
        <ele>34.26416</ele>
        <time>2011-06-26T08:30:19Z</time>
      </trkpt>
      <trkpt lat="50.40494" lon="3.49305">
        <ele>35.706054</ele>
        <time>2011-06-26T08:30:20Z</time>
      </trkpt>
      <trkpt lat="50.40477" lon="3.49312">
        <ele>40.512817</ele>
        <time>2011-06-26T08:30:23Z</time>
      </trkpt>
      <trkpt lat="50.4046" lon="3.49302">
        <ele>36.66748</ele>
        <time>2011-06-26T08:30:27Z</time>
      </trkpt>
      <trkpt lat="50.40454" lon="3.49289">
        <ele>35.225463</ele>
        <time>2011-06-26T08:30:29Z</time>
      </trkpt>
      <trkpt lat="50.40447" lon="3.49271">
        <ele>34.744873</ele>
        <time>2011-06-26T08:30:31Z</time>
      </trkpt>
      <trkpt lat="50.40433" lon="3.49243">
        <ele>32.822265</ele>
        <time>2011-06-26T08:30:35Z</time>
      </trkpt>
      <trkpt lat="50.40413" lon="3.49204">
        <ele>24.170288</ele>
        <time>2011-06-26T08:30:41Z</time>
      </trkpt>
      <trkpt lat="50.40412" lon="3.49197">
        <ele>21.766967</ele>
        <time>2011-06-26T08:30:42Z</time>
      </trkpt>
      <trkpt lat="50.40416" lon="3.49154">
        <ele>18.883056</ele>
        <time>2011-06-26T08:30:47Z</time>
      </trkpt>
      <trkpt lat="50.40418" lon="3.49146">
        <ele>18.883056</ele>
        <time>2011-06-26T08:30:48Z</time>
      </trkpt>
      <trkpt lat="50.40435" lon="3.49115">
        <ele>25.131713</ele>
        <time>2011-06-26T08:30:53Z</time>
      </trkpt>
      <trkpt lat="50.40453" lon="3.49091">
        <ele>29.93811</ele>
        <time>2011-06-26T08:30:57Z</time>
      </trkpt>
      <trkpt lat="50.40468" lon="3.49073">
        <ele>29.457519</ele>
        <time>2011-06-26T08:31:00Z</time>
      </trkpt>
      <trkpt lat="50.4048" lon="3.49051">
        <ele>28.496215</ele>
        <time>2011-06-26T08:31:03Z</time>
      </trkpt>
      <trkpt lat="50.40495" lon="3.49022">
        <ele>29.93811</ele>
        <time>2011-06-26T08:31:07Z</time>
      </trkpt>
      <trkpt lat="50.4049" lon="3.48995">
        <ele>34.26416</ele>
        <time>2011-06-26T08:31:11Z</time>
      </trkpt>
      <trkpt lat="50.40482" lon="3.4898">
        <ele>34.26416</ele>
        <time>2011-06-26T08:31:14Z</time>
      </trkpt>
      <trkpt lat="50.40469" lon="3.48969">
        <ele>33.783447</ele>
        <time>2011-06-26T08:31:17Z</time>
      </trkpt>
      <trkpt lat="50.40439" lon="3.48945">
        <ele>37.628662</ele>
        <time>2011-06-26T08:31:23Z</time>
      </trkpt>
      <trkpt lat="50.40429" lon="3.4894">
        <ele>37.148071</ele>
        <time>2011-06-26T08:31:25Z</time>
      </trkpt>
      <trkpt lat="50.40406" lon="3.48925">
        <ele>39.551269</ele>
        <time>2011-06-26T08:31:30Z</time>
      </trkpt>
      <trkpt lat="50.40402" lon="3.48909">
        <ele>33.783447</ele>
        <time>2011-06-26T08:31:34Z</time>
      </trkpt>
      <trkpt lat="50.4041" lon="3.48875">
        <ele>30.418823</ele>
        <time>2011-06-26T08:31:40Z</time>
      </trkpt>
      <trkpt lat="50.40423" lon="3.48849">
        <ele>28.496215</ele>
        <time>2011-06-26T08:31:45Z</time>
      </trkpt>
      <trkpt lat="50.40435" lon="3.4882">
        <ele>27.534912</ele>
        <time>2011-06-26T08:31:50Z</time>
      </trkpt>
      <trkpt lat="50.40446" lon="3.48793">
        <ele>27.534912</ele>
        <time>2011-06-26T08:31:54Z</time>
      </trkpt>
      <trkpt lat="50.40458" lon="3.48761">
        <ele>24.170288</ele>
        <time>2011-06-26T08:31:59Z</time>
      </trkpt>
      <trkpt lat="50.4046" lon="3.48756">
        <ele>23.689575</ele>
        <time>2011-06-26T08:32:00Z</time>
      </trkpt>
      <trkpt lat="50.40467" lon="3.48739">
        <ele>22.728271</ele>
        <time>2011-06-26T08:32:03Z</time>
      </trkpt>
      <trkpt lat="50.40476" lon="3.48721">
        <ele>22.247558</ele>
        <time>2011-06-26T08:32:06Z</time>
      </trkpt>
      <trkpt lat="50.40484" lon="3.48701">
        <ele>20.805664</ele>
        <time>2011-06-26T08:32:09Z</time>
      </trkpt>
      <trkpt lat="50.40497" lon="3.48679">
        <ele>18.883056</ele>
        <time>2011-06-26T08:32:13Z</time>
      </trkpt>
      <trkpt lat="50.40509" lon="3.48666">
        <ele>17.921752</ele>
        <time>2011-06-26T08:32:16Z</time>
      </trkpt>
      <trkpt lat="50.40514" lon="3.48656">
        <ele>19.363769</ele>
        <time>2011-06-26T08:32:18Z</time>
      </trkpt>
      <trkpt lat="50.40528" lon="3.4863">
        <ele>20.324951</ele>
        <time>2011-06-26T08:32:22Z</time>
      </trkpt>
      <trkpt lat="50.40535" lon="3.48616">
        <ele>21.286377</ele>
        <time>2011-06-26T08:32:24Z</time>
      </trkpt>
      <trkpt lat="50.40555" lon="3.4857">
        <ele>21.286377</ele>
        <time>2011-06-26T08:32:30Z</time>
      </trkpt>
      <trkpt lat="50.40576" lon="3.48526">
        <ele>19.363769</ele>
        <time>2011-06-26T08:32:36Z</time>
      </trkpt>
      <trkpt lat="50.40586" lon="3.48504">
        <ele>19.84436</ele>
        <time>2011-06-26T08:32:39Z</time>
      </trkpt>
      <trkpt lat="50.40616" lon="3.48435">
        <ele>23.689575</ele>
        <time>2011-06-26T08:32:49Z</time>
      </trkpt>
      <trkpt lat="50.40633" lon="3.48395">
        <ele>25.612304</ele>
        <time>2011-06-26T08:32:55Z</time>
      </trkpt>
      <trkpt lat="50.4065" lon="3.48356">
        <ele>28.976928</ele>
        <time>2011-06-26T08:33:01Z</time>
      </trkpt>
      <trkpt lat="50.40667" lon="3.48318">
        <ele>31.380127</ele>
        <time>2011-06-26T08:33:07Z</time>
      </trkpt>
      <trkpt lat="50.40685" lon="3.48282">
        <ele>26.573608</ele>
        <time>2011-06-26T08:33:13Z</time>
      </trkpt>
      <trkpt lat="50.40688" lon="3.48276">
        <ele>24.651001</ele>
        <time>2011-06-26T08:33:14Z</time>
      </trkpt>
      <trkpt lat="50.4071" lon="3.48226">
        <ele>21.766967</ele>
        <time>2011-06-26T08:33:22Z</time>
      </trkpt>
      <trkpt lat="50.40729" lon="3.48184">
        <ele>21.286377</ele>
        <time>2011-06-26T08:33:28Z</time>
      </trkpt>
      <trkpt lat="50.40736" lon="3.48171">
        <ele>20.805664</ele>
        <time>2011-06-26T08:33:30Z</time>
      </trkpt>
      <trkpt lat="50.40748" lon="3.48146">
        <ele>20.805664</ele>
        <time>2011-06-26T08:33:34Z</time>
      </trkpt>
      <trkpt lat="50.40754" lon="3.48134">
        <ele>19.363769</ele>
        <time>2011-06-26T08:33:36Z</time>
      </trkpt>
      <trkpt lat="50.40761" lon="3.48122">
        <ele>18.883056</ele>
        <time>2011-06-26T08:33:38Z</time>
      </trkpt>
      <trkpt lat="50.4077" lon="3.48098">
        <ele>17.921752</ele>
        <time>2011-06-26T08:33:42Z</time>
      </trkpt>
      <trkpt lat="50.40777" lon="3.48081">
        <ele>18.883056</ele>
        <time>2011-06-26T08:33:45Z</time>
      </trkpt>
      <trkpt lat="50.4079" lon="3.48046">
        <ele>16.960449</ele>
        <time>2011-06-26T08:33:51Z</time>
      </trkpt>
      <trkpt lat="50.40803" lon="3.48023">
        <ele>19.84436</ele>
        <time>2011-06-26T08:33:55Z</time>
      </trkpt>
      <trkpt lat="50.40816" lon="3.47998">
        <ele>21.766967</ele>
        <time>2011-06-26T08:33:59Z</time>
      </trkpt>
      <trkpt lat="50.40819" lon="3.47992">
        <ele>21.286377</ele>
        <time>2011-06-26T08:34:00Z</time>
      </trkpt>
      <trkpt lat="50.40823" lon="3.4798">
        <ele>22.728271</ele>
        <time>2011-06-26T08:34:02Z</time>
      </trkpt>
      <trkpt lat="50.40826" lon="3.47968">
        <ele>21.766967</ele>
        <time>2011-06-26T08:34:04Z</time>
      </trkpt>
      <trkpt lat="50.40838" lon="3.47943">
        <ele>20.324951</ele>
        <time>2011-06-26T08:34:08Z</time>
      </trkpt>
      <trkpt lat="50.40845" lon="3.47922">
        <ele>16.960449</ele>
        <time>2011-06-26T08:34:12Z</time>
      </trkpt>
      <trkpt lat="50.40868" lon="3.47865">
        <ele>19.363769</ele>
        <time>2011-06-26T08:34:21Z</time>
      </trkpt>
      <trkpt lat="50.4087" lon="3.47859">
        <ele>20.324951</ele>
        <time>2011-06-26T08:34:22Z</time>
      </trkpt>
      <trkpt lat="50.40883" lon="3.47833">
        <ele>21.286377</ele>
        <time>2011-06-26T08:34:27Z</time>
      </trkpt>
      <trkpt lat="50.40888" lon="3.47822">
        <ele>22.728271</ele>
        <time>2011-06-26T08:34:29Z</time>
      </trkpt>
      <trkpt lat="50.409" lon="3.47804">
        <ele>18.883056</ele>
        <time>2011-06-26T08:34:34Z</time>
      </trkpt>
      <trkpt lat="50.40915" lon="3.47785">
        <ele>19.84436</ele>
        <time>2011-06-26T08:34:39Z</time>
      </trkpt>
      <trkpt lat="50.40927" lon="3.47767">
        <ele>20.805664</ele>
        <time>2011-06-26T08:34:43Z</time>
      </trkpt>
      <trkpt lat="50.40943" lon="3.47746">
        <ele>22.728271</ele>
        <time>2011-06-26T08:34:47Z</time>
      </trkpt>
      <trkpt lat="50.40958" lon="3.47726">
        <ele>25.131713</ele>
        <time>2011-06-26T08:34:51Z</time>
      </trkpt>
      <trkpt lat="50.40967" lon="3.47717">
        <ele>28.015502</ele>
        <time>2011-06-26T08:34:53Z</time>
      </trkpt>
      <trkpt lat="50.40988" lon="3.47691">
        <ele>27.534912</ele>
        <time>2011-06-26T08:34:58Z</time>
      </trkpt>
      <trkpt lat="50.41003" lon="3.47673">
        <ele>28.976928</ele>
        <time>2011-06-26T08:35:02Z</time>
      </trkpt>
      <trkpt lat="50.41022" lon="3.47649">
        <ele>29.93811</ele>
        <time>2011-06-26T08:35:07Z</time>
      </trkpt>
      <trkpt lat="50.41057" lon="3.47621">
        <ele>32.822265</ele>
        <time>2011-06-26T08:35:14Z</time>
      </trkpt>
      <trkpt lat="50.41082" lon="3.47594">
        <ele>35.706054</ele>
        <time>2011-06-26T08:35:20Z</time>
      </trkpt>
      <trkpt lat="50.41104" lon="3.47572">
        <ele>35.706054</ele>
        <time>2011-06-26T08:35:25Z</time>
      </trkpt>
      <trkpt lat="50.41112" lon="3.47563">
        <ele>35.706054</ele>
        <time>2011-06-26T08:35:27Z</time>
      </trkpt>
      <trkpt lat="50.41129" lon="3.47548">
        <ele>35.225463</ele>
        <time>2011-06-26T08:35:31Z</time>
      </trkpt>
      <trkpt lat="50.41151" lon="3.47531">
        <ele>34.26416</ele>
        <time>2011-06-26T08:35:36Z</time>
      </trkpt>
      <trkpt lat="50.4117" lon="3.47511">
        <ele>35.225463</ele>
        <time>2011-06-26T08:35:41Z</time>
      </trkpt>
      <trkpt lat="50.41202" lon="3.47485">
        <ele>34.744873</ele>
        <time>2011-06-26T08:35:48Z</time>
      </trkpt>
      <trkpt lat="50.41229" lon="3.47459">
        <ele>35.225463</ele>
        <time>2011-06-26T08:35:54Z</time>
      </trkpt>
      <trkpt lat="50.41256" lon="3.47439">
        <ele>34.26416</ele>
        <time>2011-06-26T08:35:59Z</time>
      </trkpt>
      <trkpt lat="50.41297" lon="3.47398">
        <ele>33.783447</ele>
        <time>2011-06-26T08:36:08Z</time>
      </trkpt>
      <trkpt lat="50.4132" lon="3.47378">
        <ele>33.783447</ele>
        <time>2011-06-26T08:36:13Z</time>
      </trkpt>
      <trkpt lat="50.41351" lon="3.4735">
        <ele>34.744873</ele>
        <time>2011-06-26T08:36:20Z</time>
      </trkpt>
      <trkpt lat="50.41372" lon="3.47329">
        <ele>34.744873</ele>
        <time>2011-06-26T08:36:25Z</time>
      </trkpt>
      <trkpt lat="50.41397" lon="3.47304">
        <ele>34.744873</ele>
        <time>2011-06-26T08:36:31Z</time>
      </trkpt>
      <trkpt lat="50.41403" lon="3.47301">
        <ele>34.744873</ele>
        <time>2011-06-26T08:36:32Z</time>
      </trkpt>
      <trkpt lat="50.41444" lon="3.47266">
        <ele>31.380127</ele>
        <time>2011-06-26T08:36:40Z</time>
      </trkpt>
      <trkpt lat="50.41453" lon="3.47253">
        <ele>31.380127</ele>
        <time>2011-06-26T08:36:42Z</time>
      </trkpt>
      <trkpt lat="50.41483" lon="3.47225">
        <ele>29.457519</ele>
        <time>2011-06-26T08:36:47Z</time>
      </trkpt>
      <trkpt lat="50.41501" lon="3.4721">
        <ele>27.054321</ele>
        <time>2011-06-26T08:36:50Z</time>
      </trkpt>
      <trkpt lat="50.41534" lon="3.47181">
        <ele>25.612304</ele>
        <time>2011-06-26T08:36:56Z</time>
      </trkpt>
      <trkpt lat="50.41549" lon="3.47166">
        <ele>24.170288</ele>
        <time>2011-06-26T08:36:59Z</time>
      </trkpt>
      <trkpt lat="50.41557" lon="3.47154">
        <ele>25.131713</ele>
        <time>2011-06-26T08:37:01Z</time>
      </trkpt>
      <trkpt lat="50.41581" lon="3.47132">
        <ele>25.612304</ele>
        <time>2011-06-26T08:37:06Z</time>
      </trkpt>
      <trkpt lat="50.41606" lon="3.47115">
        <ele>22.247558</ele>
        <time>2011-06-26T08:37:11Z</time>
      </trkpt>
      <trkpt lat="50.41639" lon="3.47087">
        <ele>22.247558</ele>
        <time>2011-06-26T08:37:18Z</time>
      </trkpt>
      <trkpt lat="50.41644" lon="3.47083">
        <ele>22.728271</ele>
        <time>2011-06-26T08:37:19Z</time>
      </trkpt>
      <trkpt lat="50.41675" lon="3.47051">
        <ele>25.612304</ele>
        <time>2011-06-26T08:37:26Z</time>
      </trkpt>
      <trkpt lat="50.41688" lon="3.4704">
        <ele>27.054321</ele>
        <time>2011-06-26T08:37:29Z</time>
      </trkpt>
      <trkpt lat="50.41696" lon="3.4703">
        <ele>27.534912</ele>
        <time>2011-06-26T08:37:31Z</time>
      </trkpt>
      <trkpt lat="50.41696" lon="3.47007">
        <ele>28.496215</ele>
        <time>2011-06-26T08:37:35Z</time>
      </trkpt>
      <trkpt lat="50.4169" lon="3.47002">
        <ele>30.899536</ele>
        <time>2011-06-26T08:37:37Z</time>
      </trkpt>
      <trkpt lat="50.41679" lon="3.47001">
        <ele>34.26416</ele>
        <time>2011-06-26T08:37:40Z</time>
      </trkpt>
      <trkpt lat="50.41661" lon="3.46999">
        <ele>37.148071</ele>
        <time>2011-06-26T08:37:44Z</time>
      </trkpt>
      <trkpt lat="50.41638" lon="3.47001">
        <ele>42.435424</ele>
        <time>2011-06-26T08:37:49Z</time>
      </trkpt>
      <trkpt lat="50.41608" lon="3.47007">
        <ele>44.838623</ele>
        <time>2011-06-26T08:37:55Z</time>
      </trkpt>
      <trkpt lat="50.41602" lon="3.47008">
        <ele>46.280639</ele>
        <time>2011-06-26T08:37:56Z</time>
      </trkpt>
      <trkpt lat="50.41589" lon="3.47008">
        <ele>46.76123</ele>
        <time>2011-06-26T08:37:58Z</time>
      </trkpt>
      <trkpt lat="50.41577" lon="3.47009">
        <ele>49.16455</ele>
        <time>2011-06-26T08:38:00Z</time>
      </trkpt>
      <trkpt lat="50.41535" lon="3.47014">
        <ele>51.087158</ele>
        <time>2011-06-26T08:38:06Z</time>
      </trkpt>
      <trkpt lat="50.41527" lon="3.47016">
        <ele>50.606567</ele>
        <time>2011-06-26T08:38:07Z</time>
      </trkpt>
      <trkpt lat="50.41498" lon="3.47019">
        <ele>46.280639</ele>
        <time>2011-06-26T08:38:11Z</time>
      </trkpt>
      <trkpt lat="50.41464" lon="3.47022">
        <ele>43.877319</ele>
        <time>2011-06-26T08:38:17Z</time>
      </trkpt>
      <trkpt lat="50.41445" lon="3.47024">
        <ele>42.435424</ele>
        <time>2011-06-26T08:38:20Z</time>
      </trkpt>
      <trkpt lat="50.41413" lon="3.47028">
        <ele>39.551269</ele>
        <time>2011-06-26T08:38:25Z</time>
      </trkpt>
      <trkpt lat="50.41373" lon="3.47033">
        <ele>41.473999</ele>
        <time>2011-06-26T08:38:31Z</time>
      </trkpt>
      <trkpt lat="50.41331" lon="3.47036">
        <ele>39.070678</ele>
        <time>2011-06-26T08:38:37Z</time>
      </trkpt>
      <trkpt lat="50.41295" lon="3.47041">
        <ele>38.590087</ele>
        <time>2011-06-26T08:38:42Z</time>
      </trkpt>
      <trkpt lat="50.41261" lon="3.47046">
        <ele>38.109375</ele>
        <time>2011-06-26T08:38:47Z</time>
      </trkpt>
      <trkpt lat="50.41217" lon="3.47051">
        <ele>36.186767</ele>
        <time>2011-06-26T08:38:54Z</time>
      </trkpt>
      <trkpt lat="50.41192" lon="3.47054">
        <ele>35.706054</ele>
        <time>2011-06-26T08:38:58Z</time>
      </trkpt>
      <trkpt lat="50.41178" lon="3.47057">
        <ele>36.66748</ele>
        <time>2011-06-26T08:39:00Z</time>
      </trkpt>
      <trkpt lat="50.41146" lon="3.4706">
        <ele>33.783447</ele>
        <time>2011-06-26T08:39:05Z</time>
      </trkpt>
      <trkpt lat="50.41117" lon="3.4706">
        <ele>32.822265</ele>
        <time>2011-06-26T08:39:10Z</time>
      </trkpt>
      <trkpt lat="50.41087" lon="3.47064">
        <ele>32.341552</ele>
        <time>2011-06-26T08:39:15Z</time>
      </trkpt>
      <trkpt lat="50.4108" lon="3.47065">
        <ele>32.341552</ele>
        <time>2011-06-26T08:39:16Z</time>
      </trkpt>
      <trkpt lat="50.41062" lon="3.47069">
        <ele>35.225463</ele>
        <time>2011-06-26T08:39:19Z</time>
      </trkpt>
      <trkpt lat="50.41056" lon="3.47074">
        <ele>36.186767</ele>
        <time>2011-06-26T08:39:21Z</time>
      </trkpt>
      <trkpt lat="50.41052" lon="3.47087">
        <ele>34.744873</ele>
        <time>2011-06-26T08:39:25Z</time>
      </trkpt>
      <trkpt lat="50.41051" lon="3.47114">
        <ele>29.457519</ele>
        <time>2011-06-26T08:39:29Z</time>
      </trkpt>
      <trkpt lat="50.41054" lon="3.47137">
        <ele>28.496215</ele>
        <time>2011-06-26T08:39:32Z</time>
      </trkpt>
      <trkpt lat="50.41063" lon="3.4715">
        <ele>24.651001</ele>
        <time>2011-06-26T08:39:35Z</time>
      </trkpt>
      <trkpt lat="50.41076" lon="3.4716">
        <ele>20.324951</ele>
        <time>2011-06-26T08:39:38Z</time>
      </trkpt>
      <trkpt lat="50.41082" lon="3.47183">
        <ele>19.363769</ele>
        <time>2011-06-26T08:39:42Z</time>
      </trkpt>
      <trkpt lat="50.41086" lon="3.47203">
        <ele>21.286377</ele>
        <time>2011-06-26T08:39:45Z</time>
      </trkpt>
      <trkpt lat="50.41083" lon="3.47226">
        <ele>21.766967</ele>
        <time>2011-06-26T08:39:48Z</time>
      </trkpt>
      <trkpt lat="50.41081" lon="3.47253">
        <ele>19.363769</ele>
        <time>2011-06-26T08:39:53Z</time>
      </trkpt>
      <trkpt lat="50.4107" lon="3.47267">
        <ele>20.324951</ele>
        <time>2011-06-26T08:39:57Z</time>
      </trkpt>
      <trkpt lat="50.41061" lon="3.4728">
        <ele>22.247558</ele>
        <time>2011-06-26T08:40:04Z</time>
      </trkpt>
      <trkpt lat="50.41059" lon="3.47282">
        <ele>23.689575</ele>
        <time>2011-06-26T08:40:06Z</time>
      </trkpt>
      <trkpt lat="50.41058" lon="3.47285">
        <ele>23.208984</ele>
        <time>2011-06-26T08:40:08Z</time>
      </trkpt>
      <trkpt lat="50.41056" lon="3.47286">
        <ele>22.728271</ele>
        <time>2011-06-26T08:40:10Z</time>
      </trkpt>
      <trkpt lat="50.41049" lon="3.47295">
        <ele>28.976928</ele>
        <time>2011-06-26T08:40:15Z</time>
      </trkpt>
      <trkpt lat="50.41044" lon="3.47293">
        <ele>26.573608</ele>
        <time>2011-06-26T08:40:20Z</time>
      </trkpt>
      <trkpt lat="50.4104" lon="3.47293">
        <ele>28.976928</ele>
        <time>2011-06-26T08:40:22Z</time>
      </trkpt>
      <trkpt lat="50.41035" lon="3.47294">
        <ele>28.976928</ele>
        <time>2011-06-26T08:40:24Z</time>
      </trkpt>
      <trkpt lat="50.41022" lon="3.47307">
        <ele>31.380127</ele>
        <time>2011-06-26T08:40:30Z</time>
      </trkpt>
      <trkpt lat="50.41011" lon="3.47313">
        <ele>34.26416</ele>
        <time>2011-06-26T08:40:34Z</time>
      </trkpt>
      <trkpt lat="50.41001" lon="3.47314">
        <ele>35.706054</ele>
        <time>2011-06-26T08:40:38Z</time>
      </trkpt>
      <trkpt lat="50.40984" lon="3.47318">
        <ele>39.070678</ele>
        <time>2011-06-26T08:40:44Z</time>
      </trkpt>
      <trkpt lat="50.40972" lon="3.47319">
        <ele>38.590087</ele>
        <time>2011-06-26T08:40:48Z</time>
      </trkpt>
      <trkpt lat="50.40958" lon="3.47318">
        <ele>39.070678</ele>
        <time>2011-06-26T08:40:52Z</time>
      </trkpt>
      <trkpt lat="50.40936" lon="3.47311">
        <ele>40.993408</ele>
        <time>2011-06-26T08:40:58Z</time>
      </trkpt>
      <trkpt lat="50.40929" lon="3.4731">
        <ele>40.993408</ele>
        <time>2011-06-26T08:41:00Z</time>
      </trkpt>
      <trkpt lat="50.40918" lon="3.47299">
        <ele>38.590087</ele>
        <time>2011-06-26T08:41:07Z</time>
      </trkpt>
      <trkpt lat="50.40917" lon="3.47297">
        <ele>38.109375</ele>
        <time>2011-06-26T08:41:08Z</time>
      </trkpt>
      <trkpt lat="50.40915" lon="3.47291">
        <ele>36.186767</ele>
        <time>2011-06-26T08:41:12Z</time>
      </trkpt>
      <trkpt lat="50.40914" lon="3.4729">
        <ele>34.744873</ele>
        <time>2011-06-26T08:41:15Z</time>
      </trkpt>
      <trkpt lat="50.40936" lon="3.47277">
        <ele>38.590087</ele>
        <time>2011-06-26T08:41:54Z</time>
      </trkpt>
      <trkpt lat="50.40939" lon="3.47272">
        <ele>40.993408</ele>
        <time>2011-06-26T08:41:59Z</time>
      </trkpt>
      <trkpt lat="50.40942" lon="3.47269">
        <ele>44.838623</ele>
        <time>2011-06-26T08:42:04Z</time>
      </trkpt>
      <trkpt lat="50.40946" lon="3.4727">
        <ele>49.16455</ele>
        <time>2011-06-26T08:42:11Z</time>
      </trkpt>
      <trkpt lat="50.4095" lon="3.47265">
        <ele>48.203369</ele>
        <time>2011-06-26T08:42:19Z</time>
      </trkpt>
      <trkpt lat="50.40955" lon="3.47264">
        <ele>40.512817</ele>
        <time>2011-06-26T08:42:26Z</time>
      </trkpt>
      <trkpt lat="50.40958" lon="3.47259">
        <ele>35.706054</ele>
        <time>2011-06-26T08:42:33Z</time>
      </trkpt>
      <trkpt lat="50.40962" lon="3.47257">
        <ele>33.302856</ele>
        <time>2011-06-26T08:42:39Z</time>
      </trkpt>
      <trkpt lat="50.40963" lon="3.47256">
        <ele>33.783447</ele>
        <time>2011-06-26T08:42:41Z</time>
      </trkpt>
      <trkpt lat="50.40983" lon="3.47233">
        <ele>51.567871</ele>
        <time>2011-06-26T08:43:56Z</time>
      </trkpt>
      <trkpt lat="50.40984" lon="3.47231">
        <ele>50.606567</ele>
        <time>2011-06-26T08:43:57Z</time>
      </trkpt>
      <trkpt lat="50.40991" lon="3.47227">
        <ele>49.16455</ele>
        <time>2011-06-26T08:44:00Z</time>
      </trkpt>
      <trkpt lat="50.40999" lon="3.47225">
        <ele>48.68396</ele>
        <time>2011-06-26T08:44:04Z</time>
      </trkpt>
      <trkpt lat="50.41003" lon="3.4722">
        <ele>47.722534</ele>
        <time>2011-06-26T08:44:10Z</time>
      </trkpt>
      <trkpt lat="50.41003" lon="3.47219">
        <ele>47.241821</ele>
        <time>2011-06-26T08:44:11Z</time>
      </trkpt>
      <trkpt lat="50.40995" lon="3.47207">
        <ele>47.722534</ele>
        <time>2011-06-26T08:44:17Z</time>
      </trkpt>
      <trkpt lat="50.4098" lon="3.47208">
        <ele>48.68396</ele>
        <time>2011-06-26T08:44:20Z</time>
      </trkpt>
      <trkpt lat="50.40973" lon="3.47205">
        <ele>48.68396</ele>
        <time>2011-06-26T08:44:22Z</time>
      </trkpt>
      <trkpt lat="50.40969" lon="3.47197">
        <ele>48.203369</ele>
        <time>2011-06-26T08:44:29Z</time>
      </trkpt>
      <trkpt lat="50.40954" lon="3.47194">
        <ele>53.490478</ele>
        <time>2011-06-26T08:44:35Z</time>
      </trkpt>
      <trkpt lat="50.40934" lon="3.47183">
        <ele>52.048584</ele>
        <time>2011-06-26T08:44:39Z</time>
      </trkpt>
      <trkpt lat="50.40921" lon="3.47179">
        <ele>47.241821</ele>
        <time>2011-06-26T08:44:42Z</time>
      </trkpt>
      <trkpt lat="50.40905" lon="3.47147">
        <ele>42.435424</ele>
        <time>2011-06-26T08:44:47Z</time>
      </trkpt>
      <trkpt lat="50.40891" lon="3.47125">
        <ele>38.109375</ele>
        <time>2011-06-26T08:44:50Z</time>
      </trkpt>
      <trkpt lat="50.40874" lon="3.47107">
        <ele>31.860717</ele>
        <time>2011-06-26T08:44:54Z</time>
      </trkpt>
      <trkpt lat="50.40858" lon="3.47084">
        <ele>26.573608</ele>
        <time>2011-06-26T08:44:58Z</time>
      </trkpt>
      <trkpt lat="50.40838" lon="3.47088">
        <ele>31.380127</ele>
        <time>2011-06-26T08:45:04Z</time>
      </trkpt>
      <trkpt lat="50.40788" lon="3.47097">
        <ele>36.186767</ele>
        <time>2011-06-26T08:45:13Z</time>
      </trkpt>
      <trkpt lat="50.40754" lon="3.47098">
        <ele>32.341552</ele>
        <time>2011-06-26T08:45:20Z</time>
      </trkpt>
      <trkpt lat="50.40716" lon="3.47104">
        <ele>32.822265</ele>
        <time>2011-06-26T08:45:27Z</time>
      </trkpt>
      <trkpt lat="50.40702" lon="3.47102">
        <ele>30.899536</ele>
        <time>2011-06-26T08:45:30Z</time>
      </trkpt>
      <trkpt lat="50.4069" lon="3.47096">
        <ele>27.054321</ele>
        <time>2011-06-26T08:45:34Z</time>
      </trkpt>
      <trkpt lat="50.40686" lon="3.47082">
        <ele>22.728271</ele>
        <time>2011-06-26T08:45:38Z</time>
      </trkpt>
      <trkpt lat="50.40681" lon="3.47038">
        <ele>15.518432</ele>
        <time>2011-06-26T08:45:45Z</time>
      </trkpt>
      <trkpt lat="50.40677" lon="3.47012">
        <ele>12.153808</ele>
        <time>2011-06-26T08:45:49Z</time>
      </trkpt>
      <trkpt lat="50.40669" lon="3.46952">
        <ele>5.4245605</ele>
        <time>2011-06-26T08:45:57Z</time>
      </trkpt>
      <trkpt lat="50.40659" lon="3.46893">
        <ele>3.5019531</ele>
        <time>2011-06-26T08:46:05Z</time>
      </trkpt>
      <trkpt lat="50.40648" lon="3.46833">
        <ele>-0.824096</ele>
        <time>2011-06-26T08:46:13Z</time>
      </trkpt>
      <trkpt lat="50.4064" lon="3.46782">
        <ele>-2.746704</ele>
        <time>2011-06-26T08:46:20Z</time>
      </trkpt>
      <trkpt lat="50.40629" lon="3.46729">
        <ele>-4.188598</ele>
        <time>2011-06-26T08:46:27Z</time>
      </trkpt>
      <trkpt lat="50.40626" lon="3.46705">
        <ele>-6.591918</ele>
        <time>2011-06-26T08:46:30Z</time>
      </trkpt>
      <trkpt lat="50.40612" lon="3.46695">
        <ele>-3.227294</ele>
        <time>2011-06-26T08:46:34Z</time>
      </trkpt>
      <trkpt lat="50.40608" lon="3.467">
        <ele>-2.746704</ele>
        <time>2011-06-26T08:46:35Z</time>
      </trkpt>
      <trkpt lat="50.40564" lon="3.46745">
        <ele>10.711792</ele>
        <time>2011-06-26T08:46:45Z</time>
      </trkpt>
      <trkpt lat="50.40547" lon="3.46753">
        <ele>15.999023</ele>
        <time>2011-06-26T08:46:49Z</time>
      </trkpt>
      <trkpt lat="50.40528" lon="3.46753">
        <ele>19.363769</ele>
        <time>2011-06-26T08:46:53Z</time>
      </trkpt>
      <trkpt lat="50.4051" lon="3.46764">
        <ele>20.324951</ele>
        <time>2011-06-26T08:46:57Z</time>
      </trkpt>
      <trkpt lat="50.40494" lon="3.46781">
        <ele>20.805664</ele>
        <time>2011-06-26T08:47:01Z</time>
      </trkpt>
      <trkpt lat="50.40476" lon="3.46793">
        <ele>21.286377</ele>
        <time>2011-06-26T08:47:05Z</time>
      </trkpt>
      <trkpt lat="50.40448" lon="3.46805">
        <ele>21.766967</ele>
        <time>2011-06-26T08:47:11Z</time>
      </trkpt>
      <trkpt lat="50.40428" lon="3.4681">
        <ele>24.651001</ele>
        <time>2011-06-26T08:47:15Z</time>
      </trkpt>
      <trkpt lat="50.40395" lon="3.46816">
        <ele>29.457519</ele>
        <time>2011-06-26T08:47:21Z</time>
      </trkpt>
      <trkpt lat="50.40382" lon="3.46813">
        <ele>28.496215</ele>
        <time>2011-06-26T08:47:24Z</time>
      </trkpt>
      <trkpt lat="50.40364" lon="3.46809">
        <ele>27.534912</ele>
        <time>2011-06-26T08:47:28Z</time>
      </trkpt>
      <trkpt lat="50.40351" lon="3.46803">
        <ele>24.651001</ele>
        <time>2011-06-26T08:47:34Z</time>
      </trkpt>
      <trkpt lat="50.40353" lon="3.46807">
        <ele>25.131713</ele>
        <time>2011-06-26T08:47:38Z</time>
      </trkpt>
      <trkpt lat="50.40358" lon="3.46806">
        <ele>26.573608</ele>
        <time>2011-06-26T08:47:43Z</time>
      </trkpt>
      <trkpt lat="50.4036" lon="3.46806">
        <ele>28.496215</ele>
        <time>2011-06-26T08:47:46Z</time>
      </trkpt>
      <trkpt lat="50.40349" lon="3.4679">
        <ele>28.976928</ele>
        <time>2011-06-26T08:48:25Z</time>
      </trkpt>
      <trkpt lat="50.40355" lon="3.46792">
        <ele>29.457519</ele>
        <time>2011-06-26T08:48:27Z</time>
      </trkpt>
      <trkpt lat="50.40371" lon="3.4678">
        <ele>26.573608</ele>
        <time>2011-06-26T08:48:33Z</time>
      </trkpt>
      <trkpt lat="50.40383" lon="3.46767">
        <ele>24.170288</ele>
        <time>2011-06-26T08:48:38Z</time>
      </trkpt>
      <trkpt lat="50.40389" lon="3.46759">
        <ele>23.689575</ele>
        <time>2011-06-26T08:48:41Z</time>
      </trkpt>
      <trkpt lat="50.40395" lon="3.4675">
        <ele>22.728271</ele>
        <time>2011-06-26T08:48:45Z</time>
      </trkpt>
      <trkpt lat="50.40404" lon="3.46755">
        <ele>21.286377</ele>
        <time>2011-06-26T08:48:49Z</time>
      </trkpt>
      <trkpt lat="50.40419" lon="3.46764">
        <ele>21.286377</ele>
        <time>2011-06-26T08:48:53Z</time>
      </trkpt>
      <trkpt lat="50.40423" lon="3.46764">
        <ele>21.286377</ele>
        <time>2011-06-26T08:48:54Z</time>
      </trkpt>
      <trkpt lat="50.40446" lon="3.46763">
        <ele>20.805664</ele>
        <time>2011-06-26T08:49:00Z</time>
      </trkpt>
      <trkpt lat="50.40483" lon="3.46761">
        <ele>18.883056</ele>
        <time>2011-06-26T08:49:08Z</time>
      </trkpt>
      <trkpt lat="50.40512" lon="3.46761">
        <ele>18.402343</ele>
        <time>2011-06-26T08:49:15Z</time>
      </trkpt>
      <trkpt lat="50.40538" lon="3.4676">
        <ele>19.363769</ele>
        <time>2011-06-26T08:49:21Z</time>
      </trkpt>
      <trkpt lat="50.40551" lon="3.4676">
        <ele>18.883056</ele>
        <time>2011-06-26T08:49:24Z</time>
      </trkpt>
      <trkpt lat="50.40573" lon="3.46745">
        <ele>18.883056</ele>
        <time>2011-06-26T08:49:29Z</time>
      </trkpt>
      <trkpt lat="50.40598" lon="3.46718">
        <ele>21.286377</ele>
        <time>2011-06-26T08:49:36Z</time>
      </trkpt>
      <trkpt lat="50.40604" lon="3.46712">
        <ele>22.728271</ele>
        <time>2011-06-26T08:49:38Z</time>
      </trkpt>
      <trkpt lat="50.40609" lon="3.46698">
        <ele>23.689575</ele>
        <time>2011-06-26T08:49:42Z</time>
      </trkpt>
      <trkpt lat="50.40605" lon="3.46661">
        <ele>20.805664</ele>
        <time>2011-06-26T08:49:49Z</time>
      </trkpt>
      <trkpt lat="50.40599" lon="3.46625">
        <ele>21.286377</ele>
        <time>2011-06-26T08:49:54Z</time>
      </trkpt>
      <trkpt lat="50.40595" lon="3.46587">
        <ele>18.402343</ele>
        <time>2011-06-26T08:49:59Z</time>
      </trkpt>
      <trkpt lat="50.40587" lon="3.46551">
        <ele>17.441162</ele>
        <time>2011-06-26T08:50:04Z</time>
      </trkpt>
      <trkpt lat="50.40581" lon="3.4651">
        <ele>15.037719</ele>
        <time>2011-06-26T08:50:10Z</time>
      </trkpt>
      <trkpt lat="50.40577" lon="3.465">
        <ele>19.84436</ele>
        <time>2011-06-26T08:50:13Z</time>
      </trkpt>
      <trkpt lat="50.40569" lon="3.46504">
        <ele>22.247558</ele>
        <time>2011-06-26T08:50:15Z</time>
      </trkpt>
      <trkpt lat="50.40547" lon="3.46524">
        <ele>22.247558</ele>
        <time>2011-06-26T08:50:21Z</time>
      </trkpt>
      <trkpt lat="50.40536" lon="3.46523">
        <ele>21.766967</ele>
        <time>2011-06-26T08:50:24Z</time>
      </trkpt>
      <trkpt lat="50.40527" lon="3.46511">
        <ele>20.324951</ele>
        <time>2011-06-26T08:50:28Z</time>
      </trkpt>
      <trkpt lat="50.40511" lon="3.46495">
        <ele>18.883056</ele>
        <time>2011-06-26T08:50:34Z</time>
      </trkpt>
      <trkpt lat="50.40491" lon="3.46484">
        <ele>22.247558</ele>
        <time>2011-06-26T08:50:39Z</time>
      </trkpt>
      <trkpt lat="50.40471" lon="3.46486">
        <ele>24.170288</ele>
        <time>2011-06-26T08:50:44Z</time>
      </trkpt>
      <trkpt lat="50.40461" lon="3.46493">
        <ele>25.131713</ele>
        <time>2011-06-26T08:50:47Z</time>
      </trkpt>
      <trkpt lat="50.40437" lon="3.46498">
        <ele>26.573608</ele>
        <time>2011-06-26T08:50:53Z</time>
      </trkpt>
      <trkpt lat="50.40421" lon="3.46496">
        <ele>25.612304</ele>
        <time>2011-06-26T08:50:57Z</time>
      </trkpt>
      <trkpt lat="50.40397" lon="3.46493">
        <ele>26.573608</ele>
        <time>2011-06-26T08:51:03Z</time>
      </trkpt>
      <trkpt lat="50.40387" lon="3.46484">
        <ele>22.247558</ele>
        <time>2011-06-26T08:51:08Z</time>
      </trkpt>
      <trkpt lat="50.40378" lon="3.46454">
        <ele>16.960449</ele>
        <time>2011-06-26T08:51:13Z</time>
      </trkpt>
      <trkpt lat="50.40368" lon="3.46423">
        <ele>15.518432</ele>
        <time>2011-06-26T08:51:18Z</time>
      </trkpt>
      <trkpt lat="50.40356" lon="3.4638">
        <ele>17.441162</ele>
        <time>2011-06-26T08:51:25Z</time>
      </trkpt>
      <trkpt lat="50.40344" lon="3.46361">
        <ele>22.728271</ele>
        <time>2011-06-26T08:51:29Z</time>
      </trkpt>
      <trkpt lat="50.40333" lon="3.46354">
        <ele>26.573608</ele>
        <time>2011-06-26T08:51:32Z</time>
      </trkpt>
      <trkpt lat="50.40316" lon="3.46345">
        <ele>30.418823</ele>
        <time>2011-06-26T08:51:38Z</time>
      </trkpt>
      <trkpt lat="50.40304" lon="3.46332">
        <ele>30.418823</ele>
        <time>2011-06-26T08:51:42Z</time>
      </trkpt>
      <trkpt lat="50.40292" lon="3.463">
        <ele>25.131713</ele>
        <time>2011-06-26T08:51:47Z</time>
      </trkpt>
      <trkpt lat="50.40289" lon="3.46294">
        <ele>25.131713</ele>
        <time>2011-06-26T08:51:48Z</time>
      </trkpt>
      <trkpt lat="50.4027" lon="3.46254">
        <ele>24.651001</ele>
        <time>2011-06-26T08:51:54Z</time>
      </trkpt>
      <trkpt lat="50.40251" lon="3.46199">
        <ele>16.479736</ele>
        <time>2011-06-26T08:52:01Z</time>
      </trkpt>
      <trkpt lat="50.40227" lon="3.46143">
        <ele>12.634399</ele>
        <time>2011-06-26T08:52:09Z</time>
      </trkpt>
      <trkpt lat="50.4021" lon="3.46101">
        <ele>8.7891846</ele>
        <time>2011-06-26T08:52:15Z</time>
      </trkpt>
      <trkpt lat="50.40211" lon="3.46071">
        <ele>9.2698975</ele>
        <time>2011-06-26T08:52:19Z</time>
      </trkpt>
      <trkpt lat="50.40231" lon="3.45996">
        <ele>10.711792</ele>
        <time>2011-06-26T08:52:28Z</time>
      </trkpt>
      <trkpt lat="50.40235" lon="3.45979">
        <ele>11.673217</ele>
        <time>2011-06-26T08:52:30Z</time>
      </trkpt>
      <trkpt lat="50.40238" lon="3.45963">
        <ele>12.153808</ele>
        <time>2011-06-26T08:52:32Z</time>
      </trkpt>
      <trkpt lat="50.40235" lon="3.45935">
        <ele>13.115112</ele>
        <time>2011-06-26T08:52:36Z</time>
      </trkpt>
      <trkpt lat="50.40231" lon="3.45931">
        <ele>14.076416</ele>
        <time>2011-06-26T08:52:37Z</time>
      </trkpt>
      <trkpt lat="50.4022" lon="3.45922">
        <ele>16.479736</ele>
        <time>2011-06-26T08:52:40Z</time>
      </trkpt>
      <trkpt lat="50.40201" lon="3.45906">
        <ele>20.805664</ele>
        <time>2011-06-26T08:52:45Z</time>
      </trkpt>
      <trkpt lat="50.40197" lon="3.45902">
        <ele>21.286377</ele>
        <time>2011-06-26T08:52:46Z</time>
      </trkpt>
      <trkpt lat="50.40179" lon="3.45893">
        <ele>23.208984</ele>
        <time>2011-06-26T08:52:52Z</time>
      </trkpt>
      <trkpt lat="50.40167" lon="3.45903">
        <ele>21.766967</ele>
        <time>2011-06-26T08:52:57Z</time>
      </trkpt>
      <trkpt lat="50.40149" lon="3.45906">
        <ele>17.921752</ele>
        <time>2011-06-26T08:53:02Z</time>
      </trkpt>
      <trkpt lat="50.40133" lon="3.45902">
        <ele>17.441162</ele>
        <time>2011-06-26T08:53:06Z</time>
      </trkpt>
      <trkpt lat="50.40128" lon="3.45891">
        <ele>11.673217</ele>
        <time>2011-06-26T08:53:12Z</time>
      </trkpt>
      <trkpt lat="50.40128" lon="3.45888">
        <ele>11.673217</ele>
        <time>2011-06-26T08:53:13Z</time>
      </trkpt>
      <trkpt lat="50.40128" lon="3.45875">
        <ele>15.999023</ele>
        <time>2011-06-26T08:53:18Z</time>
      </trkpt>
      <trkpt lat="50.40126" lon="3.45872">
        <ele>15.518432</ele>
        <time>2011-06-26T08:53:19Z</time>
      </trkpt>
      <trkpt lat="50.4012" lon="3.45862">
        <ele>16.479736</ele>
        <time>2011-06-26T08:53:22Z</time>
      </trkpt>
      <trkpt lat="50.40115" lon="3.45849">
        <ele>16.960449</ele>
        <time>2011-06-26T08:53:25Z</time>
      </trkpt>
      <trkpt lat="50.40113" lon="3.45825">
        <ele>20.805664</ele>
        <time>2011-06-26T08:53:30Z</time>
      </trkpt>
      <trkpt lat="50.40117" lon="3.4582">
        <ele>24.170288</ele>
        <time>2011-06-26T08:53:34Z</time>
      </trkpt>
      <trkpt lat="50.40122" lon="3.45815">
        <ele>28.015502</ele>
        <time>2011-06-26T08:53:39Z</time>
      </trkpt>
      <trkpt lat="50.40126" lon="3.45809">
        <ele>31.380127</ele>
        <time>2011-06-26T08:53:48Z</time>
      </trkpt>
      <trkpt lat="50.40129" lon="3.45808">
        <ele>32.341552</ele>
        <time>2011-06-26T08:53:53Z</time>
      </trkpt>
      <trkpt lat="50.40129" lon="3.45809">
        <ele>31.860717</ele>
        <time>2011-06-26T08:53:55Z</time>
      </trkpt>
      <trkpt lat="50.40137" lon="3.4582">
        <ele>29.457519</ele>
        <time>2011-06-26T08:56:47Z</time>
      </trkpt>
      <trkpt lat="50.4014" lon="3.45819">
        <ele>29.93811</ele>
        <time>2011-06-26T08:56:48Z</time>
      </trkpt>
      <trkpt lat="50.40157" lon="3.45817">
        <ele>32.341552</ele>
        <time>2011-06-26T08:56:50Z</time>
      </trkpt>
      <trkpt lat="50.40163" lon="3.45817">
        <ele>32.822265</ele>
        <time>2011-06-26T08:56:51Z</time>
      </trkpt>
      <trkpt lat="50.40188" lon="3.4582">
        <ele>33.783447</ele>
        <time>2011-06-26T08:56:55Z</time>
      </trkpt>
      <trkpt lat="50.40191" lon="3.45805">
        <ele>34.744873</ele>
        <time>2011-06-26T08:56:59Z</time>
      </trkpt>
      <trkpt lat="50.4019" lon="3.45792">
        <ele>34.26416</ele>
        <time>2011-06-26T08:57:04Z</time>
      </trkpt>
      <trkpt lat="50.40179" lon="3.45772">
        <ele>34.744873</ele>
        <time>2011-06-26T08:57:11Z</time>
      </trkpt>
      <trkpt lat="50.40165" lon="3.45759">
        <ele>36.66748</ele>
        <time>2011-06-26T08:57:16Z</time>
      </trkpt>
      <trkpt lat="50.40143" lon="3.45741">
        <ele>35.706054</ele>
        <time>2011-06-26T08:57:21Z</time>
      </trkpt>
      <trkpt lat="50.40124" lon="3.4573">
        <ele>24.651001</ele>
        <time>2011-06-26T08:57:26Z</time>
      </trkpt>
      <trkpt lat="50.40094" lon="3.45707">
        <ele>17.921752</ele>
        <time>2011-06-26T08:57:33Z</time>
      </trkpt>
      <trkpt lat="50.40072" lon="3.4569">
        <ele>18.883056</ele>
        <time>2011-06-26T08:57:38Z</time>
      </trkpt>
      <trkpt lat="50.40055" lon="3.45675">
        <ele>18.402343</ele>
        <time>2011-06-26T08:57:42Z</time>
      </trkpt>
      <trkpt lat="50.40033" lon="3.45655">
        <ele>18.883056</ele>
        <time>2011-06-26T08:57:47Z</time>
      </trkpt>
      <trkpt lat="50.40018" lon="3.45642">
        <ele>22.728271</ele>
        <time>2011-06-26T08:57:50Z</time>
      </trkpt>
      <trkpt lat="50.4" lon="3.45625">
        <ele>23.208984</ele>
        <time>2011-06-26T08:57:54Z</time>
      </trkpt>
      <trkpt lat="50.39985" lon="3.45608">
        <ele>21.286377</ele>
        <time>2011-06-26T08:57:58Z</time>
      </trkpt>
      <trkpt lat="50.39964" lon="3.45589">
        <ele>25.612304</ele>
        <time>2011-06-26T08:58:04Z</time>
      </trkpt>
      <trkpt lat="50.39957" lon="3.45589">
        <ele>26.092895</ele>
        <time>2011-06-26T08:58:06Z</time>
      </trkpt>
      <trkpt lat="50.39944" lon="3.45584">
        <ele>21.766967</ele>
        <time>2011-06-26T08:58:12Z</time>
      </trkpt>
      <trkpt lat="50.39942" lon="3.45579">
        <ele>21.286377</ele>
        <time>2011-06-26T08:58:13Z</time>
      </trkpt>
      <trkpt lat="50.39931" lon="3.45539">
        <ele>15.999023</ele>
        <time>2011-06-26T08:58:19Z</time>
      </trkpt>
      <trkpt lat="50.39925" lon="3.45515">
        <ele>12.153808</ele>
        <time>2011-06-26T08:58:22Z</time>
      </trkpt>
      <trkpt lat="50.39918" lon="3.45462">
        <ele>5.4245605</ele>
        <time>2011-06-26T08:58:29Z</time>
      </trkpt>
      <trkpt lat="50.39917" lon="3.45449">
        <ele>4.4632568</ele>
        <time>2011-06-26T08:58:31Z</time>
      </trkpt>
      <trkpt lat="50.3991" lon="3.45416">
        <ele>4.9438477</ele>
        <time>2011-06-26T08:58:36Z</time>
      </trkpt>
      <trkpt lat="50.39908" lon="3.45394">
        <ele>1.0986328</ele>
        <time>2011-06-26T08:58:40Z</time>
      </trkpt>
      <trkpt lat="50.39906" lon="3.45369">
        <ele>-0.343383</ele>
        <time>2011-06-26T08:58:45Z</time>
      </trkpt>
      <trkpt lat="50.39896" lon="3.45339">
        <ele>5.4245605</ele>
        <time>2011-06-26T08:58:50Z</time>
      </trkpt>
      <trkpt lat="50.3989" lon="3.45321">
        <ele>4.4632568</ele>
        <time>2011-06-26T08:58:53Z</time>
      </trkpt>
      <trkpt lat="50.39872" lon="3.45294">
        <ele>9.7506104</ele>
        <time>2011-06-26T08:58:59Z</time>
      </trkpt>
      <trkpt lat="50.39842" lon="3.45264">
        <ele>16.960449</ele>
        <time>2011-06-26T08:59:07Z</time>
      </trkpt>
      <trkpt lat="50.39815" lon="3.45239">
        <ele>21.286377</ele>
        <time>2011-06-26T08:59:14Z</time>
      </trkpt>
      <trkpt lat="50.39806" lon="3.45229">
        <ele>22.728271</ele>
        <time>2011-06-26T08:59:17Z</time>
      </trkpt>
      <trkpt lat="50.39786" lon="3.45205">
        <ele>19.363769</ele>
        <time>2011-06-26T08:59:24Z</time>
      </trkpt>
      <trkpt lat="50.39772" lon="3.45179">
        <ele>15.999023</ele>
        <time>2011-06-26T08:59:30Z</time>
      </trkpt>
      <trkpt lat="50.39755" lon="3.45147">
        <ele>14.557006</ele>
        <time>2011-06-26T08:59:37Z</time>
      </trkpt>
      <trkpt lat="50.39746" lon="3.45128">
        <ele>15.518432</ele>
        <time>2011-06-26T08:59:42Z</time>
      </trkpt>
      <trkpt lat="50.39732" lon="3.451">
        <ele>16.479736</ele>
        <time>2011-06-26T08:59:48Z</time>
      </trkpt>
      <trkpt lat="50.3972" lon="3.45065">
        <ele>14.076416</ele>
        <time>2011-06-26T08:59:53Z</time>
      </trkpt>
      <trkpt lat="50.39702" lon="3.45018">
        <ele>12.634399</ele>
        <time>2011-06-26T08:59:58Z</time>
      </trkpt>
      <trkpt lat="50.39694" lon="3.44999">
        <ele>12.634399</ele>
        <time>2011-06-26T09:00:00Z</time>
      </trkpt>
      <trkpt lat="50.39685" lon="3.44962">
        <ele>16.960449</ele>
        <time>2011-06-26T09:00:03Z</time>
      </trkpt>
      <trkpt lat="50.39676" lon="3.44946">
        <ele>17.441162</ele>
        <time>2011-06-26T09:00:06Z</time>
      </trkpt>
      <trkpt lat="50.39654" lon="3.44909">
        <ele>16.479736</ele>
        <time>2011-06-26T09:00:10Z</time>
      </trkpt>
      <trkpt lat="50.39641" lon="3.4489">
        <ele>18.402343</ele>
        <time>2011-06-26T09:00:13Z</time>
      </trkpt>
      <trkpt lat="50.39615" lon="3.44868">
        <ele>21.766967</ele>
        <time>2011-06-26T09:00:19Z</time>
      </trkpt>
      <trkpt lat="50.39607" lon="3.44852">
        <ele>25.131713</ele>
        <time>2011-06-26T09:00:24Z</time>
      </trkpt>
      <trkpt lat="50.39607" lon="3.44847">
        <ele>25.131713</ele>
        <time>2011-06-26T09:00:25Z</time>
      </trkpt>
      <trkpt lat="50.396" lon="3.44805">
        <ele>21.286377</ele>
        <time>2011-06-26T09:00:31Z</time>
      </trkpt>
      <trkpt lat="50.39592" lon="3.44754">
        <ele>20.324951</ele>
        <time>2011-06-26T09:00:37Z</time>
      </trkpt>
      <trkpt lat="50.39584" lon="3.44722">
        <ele>19.363769</ele>
        <time>2011-06-26T09:00:41Z</time>
      </trkpt>
      <trkpt lat="50.39582" lon="3.44714">
        <ele>18.883056</ele>
        <time>2011-06-26T09:00:42Z</time>
      </trkpt>
      <trkpt lat="50.39561" lon="3.44668">
        <ele>20.805664</ele>
        <time>2011-06-26T09:00:48Z</time>
      </trkpt>
      <trkpt lat="50.39551" lon="3.44642">
        <ele>20.324951</ele>
        <time>2011-06-26T09:00:51Z</time>
      </trkpt>
      <trkpt lat="50.39524" lon="3.44585">
        <ele>26.092895</ele>
        <time>2011-06-26T09:00:57Z</time>
      </trkpt>
      <trkpt lat="50.39512" lon="3.44554">
        <ele>28.496215</ele>
        <time>2011-06-26T09:01:00Z</time>
      </trkpt>
      <trkpt lat="50.39487" lon="3.44496">
        <ele>32.822265</ele>
        <time>2011-06-26T09:01:06Z</time>
      </trkpt>
      <trkpt lat="50.39472" lon="3.44458">
        <ele>36.186767</ele>
        <time>2011-06-26T09:01:10Z</time>
      </trkpt>
      <trkpt lat="50.39451" lon="3.44395">
        <ele>32.341552</ele>
        <time>2011-06-26T09:01:16Z</time>
      </trkpt>
      <trkpt lat="50.39429" lon="3.44351">
        <ele>32.341552</ele>
        <time>2011-06-26T09:01:21Z</time>
      </trkpt>
      <trkpt lat="50.39407" lon="3.44293">
        <ele>23.689575</ele>
        <time>2011-06-26T09:01:27Z</time>
      </trkpt>
      <trkpt lat="50.39382" lon="3.44223">
        <ele>19.363769</ele>
        <time>2011-06-26T09:01:34Z</time>
      </trkpt>
      <trkpt lat="50.39367" lon="3.44176">
        <ele>13.115112</ele>
        <time>2011-06-26T09:01:39Z</time>
      </trkpt>
      <trkpt lat="50.39343" lon="3.44114">
        <ele>14.076416</ele>
        <time>2011-06-26T09:01:46Z</time>
      </trkpt>
      <trkpt lat="50.39319" lon="3.4406">
        <ele>15.037719</ele>
        <time>2011-06-26T09:01:52Z</time>
      </trkpt>
      <trkpt lat="50.393" lon="3.44014">
        <ele>15.518432</ele>
        <time>2011-06-26T09:01:57Z</time>
      </trkpt>
      <trkpt lat="50.39277" lon="3.43959">
        <ele>14.557006</ele>
        <time>2011-06-26T09:02:03Z</time>
      </trkpt>
      <trkpt lat="50.3926" lon="3.43914">
        <ele>12.634399</ele>
        <time>2011-06-26T09:02:08Z</time>
      </trkpt>
      <trkpt lat="50.3924" lon="3.43862">
        <ele>8.3085938</ele>
        <time>2011-06-26T09:02:14Z</time>
      </trkpt>
      <trkpt lat="50.39232" lon="3.43835">
        <ele>3.0212402</ele>
        <time>2011-06-26T09:02:17Z</time>
      </trkpt>
      <trkpt lat="50.39216" lon="3.43779">
        <ele>-6.111206</ele>
        <time>2011-06-26T09:02:23Z</time>
      </trkpt>
      <trkpt lat="50.39202" lon="3.43734">
        <ele>-9.47583</ele>
        <time>2011-06-26T09:02:28Z</time>
      </trkpt>
      <trkpt lat="50.39183" lon="3.43693">
        <ele>-11.39843</ele>
        <time>2011-06-26T09:02:33Z</time>
      </trkpt>
      <trkpt lat="50.39161" lon="3.43644">
        <ele>-8.033935</ele>
        <time>2011-06-26T09:02:40Z</time>
      </trkpt>
      <trkpt lat="50.39138" lon="3.43587">
        <ele>-3.227294</ele>
        <time>2011-06-26T09:02:47Z</time>
      </trkpt>
      <trkpt lat="50.39124" lon="3.4355">
        <ele>-3.707885</ele>
        <time>2011-06-26T09:02:52Z</time>
      </trkpt>
      <trkpt lat="50.39104" lon="3.43507">
        <ele>2.5406494</ele>
        <time>2011-06-26T09:02:58Z</time>
      </trkpt>
      <trkpt lat="50.39086" lon="3.43471">
        <ele>10.711792</ele>
        <time>2011-06-26T09:03:04Z</time>
      </trkpt>
      <trkpt lat="50.39076" lon="3.43453">
        <ele>16.479736</ele>
        <time>2011-06-26T09:03:07Z</time>
      </trkpt>
      <trkpt lat="50.39061" lon="3.43413">
        <ele>19.363769</ele>
        <time>2011-06-26T09:03:13Z</time>
      </trkpt>
      <trkpt lat="50.39048" lon="3.43379">
        <ele>18.883056</ele>
        <time>2011-06-26T09:03:18Z</time>
      </trkpt>
      <trkpt lat="50.39038" lon="3.43364">
        <ele>19.363769</ele>
        <time>2011-06-26T09:03:21Z</time>
      </trkpt>
      <trkpt lat="50.39025" lon="3.43348">
        <ele>22.247558</ele>
        <time>2011-06-26T09:03:24Z</time>
      </trkpt>
      <trkpt lat="50.38999" lon="3.43328">
        <ele>23.689575</ele>
        <time>2011-06-26T09:03:30Z</time>
      </trkpt>
      <trkpt lat="50.38994" lon="3.43326">
        <ele>24.170288</ele>
        <time>2011-06-26T09:03:31Z</time>
      </trkpt>
      <trkpt lat="50.38968" lon="3.43322">
        <ele>27.054321</ele>
        <time>2011-06-26T09:03:37Z</time>
      </trkpt>
      <trkpt lat="50.38948" lon="3.43321">
        <ele>25.612304</ele>
        <time>2011-06-26T09:03:43Z</time>
      </trkpt>
      <trkpt lat="50.38943" lon="3.43321">
        <ele>24.651001</ele>
        <time>2011-06-26T09:03:45Z</time>
      </trkpt>
      <trkpt lat="50.38939" lon="3.43321">
        <ele>24.170288</ele>
        <time>2011-06-26T09:03:48Z</time>
      </trkpt>
      <trkpt lat="50.38933" lon="3.43318">
        <ele>24.170288</ele>
        <time>2011-06-26T09:03:53Z</time>
      </trkpt>
      <trkpt lat="50.38917" lon="3.43313">
        <ele>25.131713</ele>
        <time>2011-06-26T09:03:59Z</time>
      </trkpt>
      <trkpt lat="50.38897" lon="3.43315">
        <ele>27.534912</ele>
        <time>2011-06-26T09:04:05Z</time>
      </trkpt>
      <trkpt lat="50.38879" lon="3.43315">
        <ele>27.534912</ele>
        <time>2011-06-26T09:04:10Z</time>
      </trkpt>
      <trkpt lat="50.38863" lon="3.43313">
        <ele>26.573608</ele>
        <time>2011-06-26T09:04:15Z</time>
      </trkpt>
      <trkpt lat="50.38839" lon="3.43309">
        <ele>23.208984</ele>
        <time>2011-06-26T09:04:21Z</time>
      </trkpt>
      <trkpt lat="50.38818" lon="3.43307">
        <ele>21.766967</ele>
        <time>2011-06-26T09:04:26Z</time>
      </trkpt>
      <trkpt lat="50.38792" lon="3.43302">
        <ele>21.286377</ele>
        <time>2011-06-26T09:04:32Z</time>
      </trkpt>
      <trkpt lat="50.38773" lon="3.43301">
        <ele>19.84436</ele>
        <time>2011-06-26T09:04:36Z</time>
      </trkpt>
      <trkpt lat="50.38756" lon="3.43302">
        <ele>18.883056</ele>
        <time>2011-06-26T09:04:40Z</time>
      </trkpt>
      <trkpt lat="50.38732" lon="3.43299">
        <ele>19.363769</ele>
        <time>2011-06-26T09:04:46Z</time>
      </trkpt>
      <trkpt lat="50.38722" lon="3.43292">
        <ele>19.363769</ele>
        <time>2011-06-26T09:04:51Z</time>
      </trkpt>
      <trkpt lat="50.38724" lon="3.43293">
        <ele>26.092895</ele>
        <time>2011-06-26T09:04:54Z</time>
      </trkpt>
      <trkpt lat="50.38725" lon="3.43297">
        <ele>28.496215</ele>
        <time>2011-06-26T09:04:57Z</time>
      </trkpt>
      <trkpt lat="50.38718" lon="3.433">
        <ele>28.976928</ele>
        <time>2011-06-26T09:05:02Z</time>
      </trkpt>
      <trkpt lat="50.387" lon="3.43297">
        <ele>28.015502</ele>
        <time>2011-06-26T09:05:09Z</time>
      </trkpt>
      <trkpt lat="50.38698" lon="3.43295">
        <ele>27.054321</ele>
        <time>2011-06-26T09:05:10Z</time>
      </trkpt>
      <trkpt lat="50.38693" lon="3.43274">
        <ele>24.651001</ele>
        <time>2011-06-26T09:05:16Z</time>
      </trkpt>
      <trkpt lat="50.38683" lon="3.43267">
        <ele>27.054321</ele>
        <time>2011-06-26T09:05:20Z</time>
      </trkpt>
      <trkpt lat="50.3868" lon="3.43267">
        <ele>27.534912</ele>
        <time>2011-06-26T09:05:21Z</time>
      </trkpt>
      <trkpt lat="50.38672" lon="3.43266">
        <ele>29.457519</ele>
        <time>2011-06-26T09:05:24Z</time>
      </trkpt>
      <trkpt lat="50.38666" lon="3.43255">
        <ele>30.899536</ele>
        <time>2011-06-26T09:05:28Z</time>
      </trkpt>
      <trkpt lat="50.38673" lon="3.43233">
        <ele>32.341552</ele>
        <time>2011-06-26T09:05:35Z</time>
      </trkpt>
      <trkpt lat="50.38677" lon="3.43219">
        <ele>33.302856</ele>
        <time>2011-06-26T09:05:39Z</time>
      </trkpt>
      <trkpt lat="50.38686" lon="3.43214">
        <ele>33.302856</ele>
        <time>2011-06-26T09:05:43Z</time>
      </trkpt>
      <trkpt lat="50.38691" lon="3.4321">
        <ele>32.822265</ele>
        <time>2011-06-26T09:05:45Z</time>
      </trkpt>
      <trkpt lat="50.38706" lon="3.43214">
        <ele>33.783447</ele>
        <time>2011-06-26T09:05:50Z</time>
      </trkpt>
      <trkpt lat="50.38714" lon="3.43213">
        <ele>34.26416</ele>
        <time>2011-06-26T09:05:53Z</time>
      </trkpt>
      <trkpt lat="50.38716" lon="3.43206">
        <ele>34.744873</ele>
        <time>2011-06-26T09:05:55Z</time>
      </trkpt>
      <trkpt lat="50.38718" lon="3.4319">
        <ele>36.186767</ele>
        <time>2011-06-26T09:05:59Z</time>
      </trkpt>
      <trkpt lat="50.38722" lon="3.43166">
        <ele>34.26416</ele>
        <time>2011-06-26T09:06:04Z</time>
      </trkpt>
      <trkpt lat="50.38725" lon="3.43158">
        <ele>33.783447</ele>
        <time>2011-06-26T09:06:06Z</time>
      </trkpt>
      <trkpt lat="50.38738" lon="3.43155">
        <ele>34.26416</ele>
        <time>2011-06-26T09:06:11Z</time>
      </trkpt>
      <trkpt lat="50.38744" lon="3.43152">
        <ele>32.822265</ele>
        <time>2011-06-26T09:06:13Z</time>
      </trkpt>
      <trkpt lat="50.38752" lon="3.43148">
        <ele>30.418823</ele>
        <time>2011-06-26T09:06:16Z</time>
      </trkpt>
      <trkpt lat="50.38754" lon="3.43136">
        <ele>29.93811</ele>
        <time>2011-06-26T09:06:19Z</time>
      </trkpt>
      <trkpt lat="50.38761" lon="3.43122">
        <ele>30.418823</ele>
        <time>2011-06-26T09:06:23Z</time>
      </trkpt>
      <trkpt lat="50.38771" lon="3.43116">
        <ele>28.976928</ele>
        <time>2011-06-26T09:06:27Z</time>
      </trkpt>
      <trkpt lat="50.38776" lon="3.43109">
        <ele>28.976928</ele>
        <time>2011-06-26T09:06:29Z</time>
      </trkpt>
      <trkpt lat="50.38786" lon="3.43096">
        <ele>28.976928</ele>
        <time>2011-06-26T09:06:33Z</time>
      </trkpt>
      <trkpt lat="50.38785" lon="3.43079">
        <ele>28.496215</ele>
        <time>2011-06-26T09:06:37Z</time>
      </trkpt>
      <trkpt lat="50.38785" lon="3.43066">
        <ele>29.93811</ele>
        <time>2011-06-26T09:06:40Z</time>
      </trkpt>
      <trkpt lat="50.38786" lon="3.43062">
        <ele>29.93811</ele>
        <time>2011-06-26T09:06:41Z</time>
      </trkpt>
      <trkpt lat="50.38794" lon="3.43039">
        <ele>31.860717</ele>
        <time>2011-06-26T09:06:46Z</time>
      </trkpt>
      <trkpt lat="50.388" lon="3.43017">
        <ele>30.418823</ele>
        <time>2011-06-26T09:06:51Z</time>
      </trkpt>
      <trkpt lat="50.38803" lon="3.42991">
        <ele>27.054321</ele>
        <time>2011-06-26T09:06:55Z</time>
      </trkpt>
      <trkpt lat="50.38805" lon="3.42966">
        <ele>25.612304</ele>
        <time>2011-06-26T09:06:59Z</time>
      </trkpt>
      <trkpt lat="50.38806" lon="3.42962">
        <ele>25.612304</ele>
        <time>2011-06-26T09:07:00Z</time>
      </trkpt>
      <trkpt lat="50.388" lon="3.42942">
        <ele>27.054321</ele>
        <time>2011-06-26T09:07:05Z</time>
      </trkpt>
      <trkpt lat="50.38788" lon="3.42923">
        <ele>25.612304</ele>
        <time>2011-06-26T09:07:10Z</time>
      </trkpt>
      <trkpt lat="50.3878" lon="3.42907">
        <ele>23.208984</ele>
        <time>2011-06-26T09:07:14Z</time>
      </trkpt>
      <trkpt lat="50.38763" lon="3.4289">
        <ele>26.573608</ele>
        <time>2011-06-26T09:07:19Z</time>
      </trkpt>
      <trkpt lat="50.38751" lon="3.42881">
        <ele>28.976928</ele>
        <time>2011-06-26T09:07:23Z</time>
      </trkpt>
      <trkpt lat="50.38741" lon="3.42881">
        <ele>29.457519</ele>
        <time>2011-06-26T09:07:28Z</time>
      </trkpt>
      <trkpt lat="50.38738" lon="3.42882">
        <ele>27.534912</ele>
        <time>2011-06-26T09:07:30Z</time>
      </trkpt>
      <trkpt lat="50.38735" lon="3.42884">
        <ele>31.860717</ele>
        <time>2011-06-26T09:07:36Z</time>
      </trkpt>
      <trkpt lat="50.3873" lon="3.42884">
        <ele>27.534912</ele>
        <time>2011-06-26T09:07:42Z</time>
      </trkpt>
      <trkpt lat="50.38722" lon="3.42888">
        <ele>29.457519</ele>
        <time>2011-06-26T09:07:45Z</time>
      </trkpt>
      <trkpt lat="50.38711" lon="3.42886">
        <ele>29.93811</ele>
        <time>2011-06-26T09:07:48Z</time>
      </trkpt>
      <trkpt lat="50.3869" lon="3.42884">
        <ele>28.496215</ele>
        <time>2011-06-26T09:07:52Z</time>
      </trkpt>
      <trkpt lat="50.38678" lon="3.42874">
        <ele>29.457519</ele>
        <time>2011-06-26T09:07:56Z</time>
      </trkpt>
      <trkpt lat="50.38684" lon="3.42864">
        <ele>31.380127</ele>
        <time>2011-06-26T09:08:01Z</time>
      </trkpt>
      <trkpt lat="50.38686" lon="3.42857">
        <ele>31.380127</ele>
        <time>2011-06-26T09:08:03Z</time>
      </trkpt>
      <trkpt lat="50.38685" lon="3.42841">
        <ele>30.418823</ele>
        <time>2011-06-26T09:08:09Z</time>
      </trkpt>
      <trkpt lat="50.38678" lon="3.42825">
        <ele>30.418823</ele>
        <time>2011-06-26T09:08:14Z</time>
      </trkpt>
      <trkpt lat="50.38676" lon="3.42817">
        <ele>28.976928</ele>
        <time>2011-06-26T09:08:16Z</time>
      </trkpt>
      <trkpt lat="50.38667" lon="3.42787">
        <ele>26.573608</ele>
        <time>2011-06-26T09:08:22Z</time>
      </trkpt>
      <trkpt lat="50.3866" lon="3.42768">
        <ele>22.728271</ele>
        <time>2011-06-26T09:08:26Z</time>
      </trkpt>
      <trkpt lat="50.38649" lon="3.42733">
        <ele>28.496215</ele>
        <time>2011-06-26T09:08:32Z</time>
      </trkpt>
      <trkpt lat="50.38649" lon="3.42723">
        <ele>27.534912</ele>
        <time>2011-06-26T09:08:34Z</time>
      </trkpt>
      <trkpt lat="50.38635" lon="3.42701">
        <ele>28.015502</ele>
        <time>2011-06-26T09:08:40Z</time>
      </trkpt>
      <trkpt lat="50.38619" lon="3.42703">
        <ele>29.93811</ele>
        <time>2011-06-26T09:08:45Z</time>
      </trkpt>
      <trkpt lat="50.38594" lon="3.42724">
        <ele>35.706054</ele>
        <time>2011-06-26T09:08:53Z</time>
      </trkpt>
      <trkpt lat="50.38588" lon="3.42727">
        <ele>36.66748</ele>
        <time>2011-06-26T09:08:55Z</time>
      </trkpt>
      <trkpt lat="50.38578" lon="3.42716">
        <ele>35.706054</ele>
        <time>2011-06-26T09:08:59Z</time>
      </trkpt>
      <trkpt lat="50.38565" lon="3.42687">
        <ele>34.744873</ele>
        <time>2011-06-26T09:09:06Z</time>
      </trkpt>
      <trkpt lat="50.38554" lon="3.42687">
        <ele>34.26416</ele>
        <time>2011-06-26T09:09:09Z</time>
      </trkpt>
      <trkpt lat="50.38532" lon="3.42703">
        <ele>40.032104</ele>
        <time>2011-06-26T09:09:15Z</time>
      </trkpt>
      <trkpt lat="50.38525" lon="3.42708">
        <ele>40.993408</ele>
        <time>2011-06-26T09:09:17Z</time>
      </trkpt>
      <trkpt lat="50.38514" lon="3.42699">
        <ele>40.032104</ele>
        <time>2011-06-26T09:09:21Z</time>
      </trkpt>
      <trkpt lat="50.38505" lon="3.42676">
        <ele>39.551269</ele>
        <time>2011-06-26T09:09:26Z</time>
      </trkpt>
      <trkpt lat="50.38502" lon="3.42664">
        <ele>39.551269</ele>
        <time>2011-06-26T09:09:29Z</time>
      </trkpt>
      <trkpt lat="50.38498" lon="3.42657">
        <ele>40.032104</ele>
        <time>2011-06-26T09:09:31Z</time>
      </trkpt>
      <trkpt lat="50.38493" lon="3.42651">
        <ele>41.473999</ele>
        <time>2011-06-26T09:09:36Z</time>
      </trkpt>
      <trkpt lat="50.38493" lon="3.42651">
        <ele>40.993408</ele>
        <time>2011-06-26T09:09:37Z</time>
      </trkpt>
      <trkpt lat="50.3849" lon="3.42646">
        <ele>39.551269</ele>
        <time>2011-06-26T09:09:44Z</time>
      </trkpt>
      <trkpt lat="50.3849" lon="3.42647">
        <ele>38.590087</ele>
        <time>2011-06-26T09:09:46Z</time>
      </trkpt>
    </trkseg>
  </trk>
</gpx>